<?xml version="1.0" encoding="UTF-8" standalone="no" ?>
<gpx xmlns="http://www.topografix.com/GPX/1/1" xmlns:xsi="http://www.w3.org/2001/XMLSchema-instance" xsi:schemaLocation="http://www.topografix.com/GPX/1/1 http://www.topografix.com/GPX/1/1/gpx.xsd" version="1.1" creator="VisuGPX - https://www.visugpx.com">
  <metadata>
    <name>2020-07-21-01 font d'urle</name>
    <desc><![CDATA[Fond d'urle]]></desc>
  </metadata>
  <trk>
    <name><![CDATA[2020-07-21-01 font d'urle]]></name>
    <extensions>
      <line xmlns="http://www.topografix.com/GPX/gpx_style/0/2">
        <color>0000FF</color>
        <width>4</width>
      </line>
    </extensions>
    <trkseg>
      <trkpt lat="44.90739" lon="5.35556">
        <ele>1407</ele>
        <time>2020-07-21T09:41:31.000Z</time>
      </trkpt>
      <trkpt lat="44.90735" lon="5.35561">
        <ele>1407</ele>
        <time>2020-07-21T09:41:35.000Z</time>
      </trkpt>
      <trkpt lat="44.90735" lon="5.35574">
        <ele>1407.6</ele>
        <time>2020-07-21T09:51:08.000Z</time>
      </trkpt>
      <trkpt lat="44.90732" lon="5.35562">
        <ele>1407.4</ele>
        <time>2020-07-21T09:57:26.000Z</time>
      </trkpt>
      <trkpt lat="44.90722" lon="5.35564">
        <ele>1406.9</ele>
        <time>2020-07-21T09:57:44.000Z</time>
      </trkpt>
      <trkpt lat="44.90713" lon="5.35567">
        <ele>1406.6</ele>
        <time>2020-07-21T09:57:53.000Z</time>
      </trkpt>
      <trkpt lat="44.90707" lon="5.35576">
        <ele>1406.4</ele>
        <time>2020-07-21T09:58:02.000Z</time>
      </trkpt>
      <trkpt lat="44.90702" lon="5.35588">
        <ele>1406.1</ele>
        <time>2020-07-21T09:58:11.000Z</time>
      </trkpt>
      <trkpt lat="44.90695" lon="5.35597">
        <ele>1406</ele>
        <time>2020-07-21T09:58:21.000Z</time>
      </trkpt>
      <trkpt lat="44.90689" lon="5.35588">
        <ele>1406</ele>
        <time>2020-07-21T09:58:30.000Z</time>
      </trkpt>
      <trkpt lat="44.90684" lon="5.35576">
        <ele>1405.7</ele>
        <time>2020-07-21T09:58:40.000Z</time>
      </trkpt>
      <trkpt lat="44.90679" lon="5.35564">
        <ele>1405.3</ele>
        <time>2020-07-21T09:58:50.000Z</time>
      </trkpt>
      <trkpt lat="44.90676" lon="5.35551">
        <ele>1404.8</ele>
        <time>2020-07-21T09:58:59.000Z</time>
      </trkpt>
      <trkpt lat="44.90674" lon="5.35538">
        <ele>1404.5</ele>
        <time>2020-07-21T09:59:07.000Z</time>
      </trkpt>
      <trkpt lat="44.90671" lon="5.35526">
        <ele>1404.3</ele>
        <time>2020-07-21T09:59:15.000Z</time>
      </trkpt>
      <trkpt lat="44.90666" lon="5.35514">
        <ele>1403.8</ele>
        <time>2020-07-21T09:59:23.000Z</time>
      </trkpt>
      <trkpt lat="44.9066" lon="5.35503">
        <ele>1403.4</ele>
        <time>2020-07-21T09:59:31.000Z</time>
      </trkpt>
      <trkpt lat="44.90653" lon="5.35493">
        <ele>1402.9</ele>
        <time>2020-07-21T09:59:39.000Z</time>
      </trkpt>
      <trkpt lat="44.90645" lon="5.35484">
        <ele>1402.6</ele>
        <time>2020-07-21T09:59:48.000Z</time>
      </trkpt>
      <trkpt lat="44.90637" lon="5.35476">
        <ele>1402.2</ele>
        <time>2020-07-21T09:59:56.000Z</time>
      </trkpt>
      <trkpt lat="44.9063" lon="5.35468">
        <ele>1401.8</ele>
        <time>2020-07-21T10:00:02.000Z</time>
      </trkpt>
      <trkpt lat="44.90623" lon="5.35458">
        <ele>1401.5</ele>
        <time>2020-07-21T10:00:10.000Z</time>
      </trkpt>
      <trkpt lat="44.90619" lon="5.35445">
        <ele>1401</ele>
        <time>2020-07-21T10:00:19.000Z</time>
      </trkpt>
      <trkpt lat="44.90618" lon="5.35433">
        <ele>1400.5</ele>
        <time>2020-07-21T10:00:27.000Z</time>
      </trkpt>
      <trkpt lat="44.90617" lon="5.35418">
        <ele>1400.6</ele>
        <time>2020-07-21T10:00:36.000Z</time>
      </trkpt>
      <trkpt lat="44.90615" lon="5.35406">
        <ele>1400.6</ele>
        <time>2020-07-21T10:00:44.000Z</time>
      </trkpt>
      <trkpt lat="44.90611" lon="5.35393">
        <ele>1400.7</ele>
        <time>2020-07-21T10:00:52.000Z</time>
      </trkpt>
      <trkpt lat="44.90604" lon="5.35384">
        <ele>1399.9</ele>
        <time>2020-07-21T10:01:02.000Z</time>
      </trkpt>
      <trkpt lat="44.90597" lon="5.35376">
        <ele>1399.2</ele>
        <time>2020-07-21T10:01:11.000Z</time>
      </trkpt>
      <trkpt lat="44.90589" lon="5.35366">
        <ele>1398.7</ele>
        <time>2020-07-21T10:01:19.000Z</time>
      </trkpt>
      <trkpt lat="44.90583" lon="5.35356">
        <ele>1398.2</ele>
        <time>2020-07-21T10:01:27.000Z</time>
      </trkpt>
      <trkpt lat="44.9058" lon="5.35344">
        <ele>1398.2</ele>
        <time>2020-07-21T10:01:35.000Z</time>
      </trkpt>
      <trkpt lat="44.90575" lon="5.35332">
        <ele>1398.2</ele>
        <time>2020-07-21T10:01:43.000Z</time>
      </trkpt>
      <trkpt lat="44.9057" lon="5.3532">
        <ele>1398.3</ele>
        <time>2020-07-21T10:01:51.000Z</time>
      </trkpt>
      <trkpt lat="44.90565" lon="5.35307">
        <ele>1398.6</ele>
        <time>2020-07-21T10:02:00.000Z</time>
      </trkpt>
      <trkpt lat="44.90559" lon="5.35296">
        <ele>1398.8</ele>
        <time>2020-07-21T10:02:08.000Z</time>
      </trkpt>
      <trkpt lat="44.90554" lon="5.35285">
        <ele>1399</ele>
        <time>2020-07-21T10:02:16.000Z</time>
      </trkpt>
      <trkpt lat="44.90548" lon="5.35273">
        <ele>1399.4</ele>
        <time>2020-07-21T10:02:24.000Z</time>
      </trkpt>
      <trkpt lat="44.90544" lon="5.3526">
        <ele>1400.1</ele>
        <time>2020-07-21T10:02:33.000Z</time>
      </trkpt>
      <trkpt lat="44.90537" lon="5.35251">
        <ele>1400.5</ele>
        <time>2020-07-21T10:02:41.000Z</time>
      </trkpt>
      <trkpt lat="44.90529" lon="5.35244">
        <ele>1400.9</ele>
        <time>2020-07-21T10:02:48.000Z</time>
      </trkpt>
      <trkpt lat="44.90522" lon="5.35235">
        <ele>1401.5</ele>
        <time>2020-07-21T10:02:57.000Z</time>
      </trkpt>
      <trkpt lat="44.90515" lon="5.35226">
        <ele>1402.2</ele>
        <time>2020-07-21T10:03:05.000Z</time>
      </trkpt>
      <trkpt lat="44.90507" lon="5.35219">
        <ele>1402.8</ele>
        <time>2020-07-21T10:03:13.000Z</time>
      </trkpt>
      <trkpt lat="44.90499" lon="5.35211">
        <ele>1403.5</ele>
        <time>2020-07-21T10:03:21.000Z</time>
      </trkpt>
      <trkpt lat="44.90492" lon="5.35201">
        <ele>1404</ele>
        <time>2020-07-21T10:03:29.000Z</time>
      </trkpt>
      <trkpt lat="44.90484" lon="5.35192">
        <ele>1404.3</ele>
        <time>2020-07-21T10:03:37.000Z</time>
      </trkpt>
      <trkpt lat="44.90475" lon="5.35186">
        <ele>1404.6</ele>
        <time>2020-07-21T10:03:45.000Z</time>
      </trkpt>
      <trkpt lat="44.90467" lon="5.35178">
        <ele>1405.2</ele>
        <time>2020-07-21T10:04:24.000Z</time>
      </trkpt>
      <trkpt lat="44.9046" lon="5.3517">
        <ele>1405.6</ele>
        <time>2020-07-21T10:06:02.000Z</time>
      </trkpt>
      <trkpt lat="44.90451" lon="5.35164">
        <ele>1406.1</ele>
        <time>2020-07-21T10:06:11.000Z</time>
      </trkpt>
      <trkpt lat="44.90444" lon="5.35155">
        <ele>1407.1</ele>
        <time>2020-07-21T10:06:21.000Z</time>
      </trkpt>
      <trkpt lat="44.90436" lon="5.3515">
        <ele>1408</ele>
        <time>2020-07-21T10:06:29.000Z</time>
      </trkpt>
      <trkpt lat="44.90427" lon="5.35141">
        <ele>1408.5</ele>
        <time>2020-07-21T10:06:37.000Z</time>
      </trkpt>
      <trkpt lat="44.90419" lon="5.35133">
        <ele>1408.9</ele>
        <time>2020-07-21T10:06:42.000Z</time>
      </trkpt>
      <trkpt lat="44.9041" lon="5.35128">
        <ele>1409.6</ele>
        <time>2020-07-21T10:06:49.000Z</time>
      </trkpt>
      <trkpt lat="44.90402" lon="5.35122">
        <ele>1410.2</ele>
        <time>2020-07-21T10:06:56.000Z</time>
      </trkpt>
      <trkpt lat="44.90394" lon="5.35117">
        <ele>1410.9</ele>
        <time>2020-07-21T10:07:03.000Z</time>
      </trkpt>
      <trkpt lat="44.90388" lon="5.35106">
        <ele>1411.3</ele>
        <time>2020-07-21T10:07:11.000Z</time>
      </trkpt>
      <trkpt lat="44.90382" lon="5.35095">
        <ele>1412</ele>
        <time>2020-07-21T10:07:18.000Z</time>
      </trkpt>
      <trkpt lat="44.90375" lon="5.35084">
        <ele>1412.7</ele>
        <time>2020-07-21T10:07:26.000Z</time>
      </trkpt>
      <trkpt lat="44.90369" lon="5.35072">
        <ele>1413.4</ele>
        <time>2020-07-21T10:07:34.000Z</time>
      </trkpt>
      <trkpt lat="44.90364" lon="5.3506">
        <ele>1414.2</ele>
        <time>2020-07-21T10:07:42.000Z</time>
      </trkpt>
      <trkpt lat="44.90359" lon="5.35049">
        <ele>1415</ele>
        <time>2020-07-21T10:07:48.000Z</time>
      </trkpt>
      <trkpt lat="44.90352" lon="5.35039">
        <ele>1415.8</ele>
        <time>2020-07-21T10:07:57.000Z</time>
      </trkpt>
      <trkpt lat="44.90345" lon="5.3503">
        <ele>1416.5</ele>
        <time>2020-07-21T10:08:05.000Z</time>
      </trkpt>
      <trkpt lat="44.90338" lon="5.3502">
        <ele>1417.7</ele>
        <time>2020-07-21T10:08:14.000Z</time>
      </trkpt>
      <trkpt lat="44.9033" lon="5.35012">
        <ele>1418.7</ele>
        <time>2020-07-21T10:08:22.000Z</time>
      </trkpt>
      <trkpt lat="44.90322" lon="5.35005">
        <ele>1420</ele>
        <time>2020-07-21T10:08:30.000Z</time>
      </trkpt>
      <trkpt lat="44.90314" lon="5.34998">
        <ele>1421.7</ele>
        <time>2020-07-21T10:08:41.000Z</time>
      </trkpt>
      <trkpt lat="44.90305" lon="5.34989">
        <ele>1422.6</ele>
        <time>2020-07-21T10:08:49.000Z</time>
      </trkpt>
      <trkpt lat="44.90298" lon="5.34981">
        <ele>1423.8</ele>
        <time>2020-07-21T10:08:57.000Z</time>
      </trkpt>
      <trkpt lat="44.90291" lon="5.34971">
        <ele>1424.5</ele>
        <time>2020-07-21T10:09:05.000Z</time>
      </trkpt>
      <trkpt lat="44.90283" lon="5.34963">
        <ele>1425.4</ele>
        <time>2020-07-21T10:09:14.000Z</time>
      </trkpt>
      <trkpt lat="44.90274" lon="5.34959">
        <ele>1426.4</ele>
        <time>2020-07-21T10:09:24.000Z</time>
      </trkpt>
      <trkpt lat="44.90265" lon="5.34954">
        <ele>1427.6</ele>
        <time>2020-07-21T10:09:35.000Z</time>
      </trkpt>
      <trkpt lat="44.90256" lon="5.34951">
        <ele>1428.5</ele>
        <time>2020-07-21T10:09:44.000Z</time>
      </trkpt>
      <trkpt lat="44.90246" lon="5.34952">
        <ele>1428.9</ele>
        <time>2020-07-21T10:09:47.000Z</time>
      </trkpt>
      <trkpt lat="44.90237" lon="5.34949">
        <ele>1430.1</ele>
        <time>2020-07-21T10:09:57.000Z</time>
      </trkpt>
      <trkpt lat="44.90228" lon="5.34943">
        <ele>1431.7</ele>
        <time>2020-07-21T10:10:08.000Z</time>
      </trkpt>
      <trkpt lat="44.9022" lon="5.34937">
        <ele>1432.8</ele>
        <time>2020-07-21T10:10:16.000Z</time>
      </trkpt>
      <trkpt lat="44.9021" lon="5.34934">
        <ele>1434.1</ele>
        <time>2020-07-21T10:10:25.000Z</time>
      </trkpt>
      <trkpt lat="44.90202" lon="5.34926">
        <ele>1435.3</ele>
        <time>2020-07-21T10:10:33.000Z</time>
      </trkpt>
      <trkpt lat="44.90193" lon="5.34922">
        <ele>1436.5</ele>
        <time>2020-07-21T10:10:40.000Z</time>
      </trkpt>
      <trkpt lat="44.90185" lon="5.34915">
        <ele>1437.9</ele>
        <time>2020-07-21T10:10:50.000Z</time>
      </trkpt>
      <trkpt lat="44.90177" lon="5.34908">
        <ele>1439.8</ele>
        <time>2020-07-21T10:11:02.000Z</time>
      </trkpt>
      <trkpt lat="44.9017" lon="5.349">
        <ele>1441.2</ele>
        <time>2020-07-21T10:11:12.000Z</time>
      </trkpt>
      <trkpt lat="44.9016" lon="5.34894">
        <ele>1442.3</ele>
        <time>2020-07-21T10:11:21.000Z</time>
      </trkpt>
      <trkpt lat="44.90154" lon="5.34884">
        <ele>1443.5</ele>
        <time>2020-07-21T10:11:29.000Z</time>
      </trkpt>
      <trkpt lat="44.90146" lon="5.34877">
        <ele>1444.7</ele>
        <time>2020-07-21T10:11:37.000Z</time>
      </trkpt>
      <trkpt lat="44.90137" lon="5.34872">
        <ele>1445.9</ele>
        <time>2020-07-21T10:11:44.000Z</time>
      </trkpt>
      <trkpt lat="44.90128" lon="5.34868">
        <ele>1447.5</ele>
        <time>2020-07-21T10:11:53.000Z</time>
      </trkpt>
      <trkpt lat="44.90118" lon="5.34865">
        <ele>1448.4</ele>
        <time>2020-07-21T10:11:59.000Z</time>
      </trkpt>
      <trkpt lat="44.90109" lon="5.34863">
        <ele>1449.4</ele>
        <time>2020-07-21T10:12:06.000Z</time>
      </trkpt>
      <trkpt lat="44.90098" lon="5.34865">
        <ele>1449.9</ele>
        <time>2020-07-21T10:12:12.000Z</time>
      </trkpt>
      <trkpt lat="44.90086" lon="5.34867">
        <ele>1451</ele>
        <time>2020-07-21T10:12:20.000Z</time>
      </trkpt>
      <trkpt lat="44.90077" lon="5.34866">
        <ele>1453.1</ele>
        <time>2020-07-21T10:12:36.000Z</time>
      </trkpt>
      <trkpt lat="44.90066" lon="5.34862">
        <ele>1454.8</ele>
        <time>2020-07-21T10:12:45.000Z</time>
      </trkpt>
      <trkpt lat="44.90057" lon="5.34864">
        <ele>1456.5</ele>
        <time>2020-07-21T10:12:55.000Z</time>
      </trkpt>
      <trkpt lat="44.90047" lon="5.34863">
        <ele>1457.7</ele>
        <time>2020-07-21T10:13:03.000Z</time>
      </trkpt>
      <trkpt lat="44.90038" lon="5.34861">
        <ele>1458.7</ele>
        <time>2020-07-21T10:13:11.000Z</time>
      </trkpt>
      <trkpt lat="44.90029" lon="5.34861">
        <ele>1460.1</ele>
        <time>2020-07-21T10:13:23.000Z</time>
      </trkpt>
      <trkpt lat="44.90019" lon="5.34859">
        <ele>1461.3</ele>
        <time>2020-07-21T10:13:33.000Z</time>
      </trkpt>
      <trkpt lat="44.9001" lon="5.34859">
        <ele>1462.1</ele>
        <time>2020-07-21T10:13:40.000Z</time>
      </trkpt>
      <trkpt lat="44.90001" lon="5.34852">
        <ele>1463.7</ele>
        <time>2020-07-21T10:13:53.000Z</time>
      </trkpt>
      <trkpt lat="44.89992" lon="5.34846">
        <ele>1464.8</ele>
        <time>2020-07-21T10:14:04.000Z</time>
      </trkpt>
      <trkpt lat="44.89981" lon="5.34844">
        <ele>1466.4</ele>
        <time>2020-07-21T10:14:14.000Z</time>
      </trkpt>
      <trkpt lat="44.89971" lon="5.34838">
        <ele>1468.5</ele>
        <time>2020-07-21T10:14:27.000Z</time>
      </trkpt>
      <trkpt lat="44.89962" lon="5.34833">
        <ele>1469.5</ele>
        <time>2020-07-21T10:14:35.000Z</time>
      </trkpt>
      <trkpt lat="44.89952" lon="5.34831">
        <ele>1470.5</ele>
        <time>2020-07-21T10:14:45.000Z</time>
      </trkpt>
      <trkpt lat="44.89943" lon="5.3483">
        <ele>1471.1</ele>
        <time>2020-07-21T10:14:52.000Z</time>
      </trkpt>
      <trkpt lat="44.89934" lon="5.34826">
        <ele>1472</ele>
        <time>2020-07-21T10:15:00.000Z</time>
      </trkpt>
      <trkpt lat="44.89924" lon="5.34826">
        <ele>1472.8</ele>
        <time>2020-07-21T10:15:08.000Z</time>
      </trkpt>
      <trkpt lat="44.89914" lon="5.34825">
        <ele>1473.7</ele>
        <time>2020-07-21T10:15:18.000Z</time>
      </trkpt>
      <trkpt lat="44.89905" lon="5.34824">
        <ele>1474</ele>
        <time>2020-07-21T10:15:22.000Z</time>
      </trkpt>
      <trkpt lat="44.89896" lon="5.34822">
        <ele>1474.4</ele>
        <time>2020-07-21T10:15:29.000Z</time>
      </trkpt>
      <trkpt lat="44.89886" lon="5.3482">
        <ele>1475.6</ele>
        <time>2020-07-21T10:15:43.000Z</time>
      </trkpt>
      <trkpt lat="44.89877" lon="5.34818">
        <ele>1476.3</ele>
        <time>2020-07-21T10:15:51.000Z</time>
      </trkpt>
      <trkpt lat="44.89869" lon="5.34814">
        <ele>1477.2</ele>
        <time>2020-07-21T10:16:02.000Z</time>
      </trkpt>
      <trkpt lat="44.89859" lon="5.34814">
        <ele>1478.3</ele>
        <time>2020-07-21T10:16:11.000Z</time>
      </trkpt>
      <trkpt lat="44.8985" lon="5.34815">
        <ele>1478.9</ele>
        <time>2020-07-21T10:16:16.000Z</time>
      </trkpt>
      <trkpt lat="44.89839" lon="5.34816">
        <ele>1479.6</ele>
        <time>2020-07-21T10:16:24.000Z</time>
      </trkpt>
      <trkpt lat="44.8983" lon="5.34815">
        <ele>1480.8</ele>
        <time>2020-07-21T10:16:35.000Z</time>
      </trkpt>
      <trkpt lat="44.8982" lon="5.34821">
        <ele>1481.6</ele>
        <time>2020-07-21T10:16:42.000Z</time>
      </trkpt>
      <trkpt lat="44.89811" lon="5.34826">
        <ele>1482.3</ele>
        <time>2020-07-21T10:16:49.000Z</time>
      </trkpt>
      <trkpt lat="44.89801" lon="5.3483">
        <ele>1483</ele>
        <time>2020-07-21T10:16:56.000Z</time>
      </trkpt>
      <trkpt lat="44.89792" lon="5.34835">
        <ele>1483.7</ele>
        <time>2020-07-21T10:17:01.000Z</time>
      </trkpt>
      <trkpt lat="44.89784" lon="5.34842">
        <ele>1484.5</ele>
        <time>2020-07-21T10:17:09.000Z</time>
      </trkpt>
      <trkpt lat="44.89777" lon="5.3485">
        <ele>1485.7</ele>
        <time>2020-07-21T10:17:18.000Z</time>
      </trkpt>
      <trkpt lat="44.89767" lon="5.34853">
        <ele>1486.6</ele>
        <time>2020-07-21T10:17:27.000Z</time>
      </trkpt>
      <trkpt lat="44.89758" lon="5.34856">
        <ele>1487.7</ele>
        <time>2020-07-21T10:17:37.000Z</time>
      </trkpt>
      <trkpt lat="44.89749" lon="5.34858">
        <ele>1488.3</ele>
        <time>2020-07-21T10:17:46.000Z</time>
      </trkpt>
      <trkpt lat="44.89739" lon="5.34857">
        <ele>1489.7</ele>
        <time>2020-07-21T10:18:01.000Z</time>
      </trkpt>
      <trkpt lat="44.89728" lon="5.34859">
        <ele>1490.8</ele>
        <time>2020-07-21T10:18:12.000Z</time>
      </trkpt>
      <trkpt lat="44.89719" lon="5.3486">
        <ele>1491.7</ele>
        <time>2020-07-21T10:18:20.000Z</time>
      </trkpt>
      <trkpt lat="44.89709" lon="5.34863">
        <ele>1493</ele>
        <time>2020-07-21T10:18:31.000Z</time>
      </trkpt>
      <trkpt lat="44.897" lon="5.34857">
        <ele>1494.5</ele>
        <time>2020-07-21T10:18:44.000Z</time>
      </trkpt>
      <trkpt lat="44.8969" lon="5.34857">
        <ele>1495.3</ele>
        <time>2020-07-21T10:18:51.000Z</time>
      </trkpt>
      <trkpt lat="44.89681" lon="5.34859">
        <ele>1496.4</ele>
        <time>2020-07-21T10:18:58.000Z</time>
      </trkpt>
      <trkpt lat="44.89671" lon="5.34859">
        <ele>1497.8</ele>
        <time>2020-07-21T10:19:11.000Z</time>
      </trkpt>
      <trkpt lat="44.89661" lon="5.34859">
        <ele>1498.5</ele>
        <time>2020-07-21T10:19:18.000Z</time>
      </trkpt>
      <trkpt lat="44.89652" lon="5.34857">
        <ele>1499.6</ele>
        <time>2020-07-21T10:19:27.000Z</time>
      </trkpt>
      <trkpt lat="44.89645" lon="5.34848">
        <ele>1501.5</ele>
        <time>2020-07-21T10:19:42.000Z</time>
      </trkpt>
      <trkpt lat="44.89636" lon="5.34842">
        <ele>1502.4</ele>
        <time>2020-07-21T10:19:51.000Z</time>
      </trkpt>
      <trkpt lat="44.89627" lon="5.34836">
        <ele>1503.4</ele>
        <time>2020-07-21T10:20:00.000Z</time>
      </trkpt>
      <trkpt lat="44.89619" lon="5.34828">
        <ele>1504.7</ele>
        <time>2020-07-21T10:20:11.000Z</time>
      </trkpt>
      <trkpt lat="44.8961" lon="5.34824">
        <ele>1505.3</ele>
        <time>2020-07-21T10:20:19.000Z</time>
      </trkpt>
      <trkpt lat="44.896" lon="5.34821">
        <ele>1506.1</ele>
        <time>2020-07-21T10:20:27.000Z</time>
      </trkpt>
      <trkpt lat="44.89591" lon="5.34816">
        <ele>1507.3</ele>
        <time>2020-07-21T10:20:39.000Z</time>
      </trkpt>
      <trkpt lat="44.89583" lon="5.3481">
        <ele>1508.5</ele>
        <time>2020-07-21T10:20:49.000Z</time>
      </trkpt>
      <trkpt lat="44.89575" lon="5.34803">
        <ele>1509.3</ele>
        <time>2020-07-21T10:20:57.000Z</time>
      </trkpt>
      <trkpt lat="44.89567" lon="5.34795">
        <ele>1510.2</ele>
        <time>2020-07-21T10:21:07.000Z</time>
      </trkpt>
      <trkpt lat="44.8956" lon="5.34789">
        <ele>1510.8</ele>
        <time>2020-07-21T10:21:14.000Z</time>
      </trkpt>
      <trkpt lat="44.89553" lon="5.34781">
        <ele>1511.6</ele>
        <time>2020-07-21T10:21:23.000Z</time>
      </trkpt>
      <trkpt lat="44.89544" lon="5.34776">
        <ele>1512.5</ele>
        <time>2020-07-21T10:21:32.000Z</time>
      </trkpt>
      <trkpt lat="44.89536" lon="5.34769">
        <ele>1514</ele>
        <time>2020-07-21T10:21:42.000Z</time>
      </trkpt>
      <trkpt lat="44.89527" lon="5.34762">
        <ele>1516</ele>
        <time>2020-07-21T10:21:54.000Z</time>
      </trkpt>
      <trkpt lat="44.89519" lon="5.34756">
        <ele>1517.8</ele>
        <time>2020-07-21T10:22:05.000Z</time>
      </trkpt>
      <trkpt lat="44.89511" lon="5.3475">
        <ele>1518.9</ele>
        <time>2020-07-21T10:22:12.000Z</time>
      </trkpt>
      <trkpt lat="44.89503" lon="5.34743">
        <ele>1520.3</ele>
        <time>2020-07-21T10:22:21.000Z</time>
      </trkpt>
      <trkpt lat="44.89494" lon="5.34737">
        <ele>1521.5</ele>
        <time>2020-07-21T10:22:29.000Z</time>
      </trkpt>
      <trkpt lat="44.89489" lon="5.34726">
        <ele>1523.4</ele>
        <time>2020-07-21T10:22:41.000Z</time>
      </trkpt>
      <trkpt lat="44.89483" lon="5.34716">
        <ele>1524.8</ele>
        <time>2020-07-21T10:22:50.000Z</time>
      </trkpt>
      <trkpt lat="44.89474" lon="5.3471">
        <ele>1526.4</ele>
        <time>2020-07-21T10:22:59.000Z</time>
      </trkpt>
      <trkpt lat="44.89465" lon="5.34705">
        <ele>1528.2</ele>
        <time>2020-07-21T10:23:09.000Z</time>
      </trkpt>
      <trkpt lat="44.89457" lon="5.34699">
        <ele>1529.8</ele>
        <time>2020-07-21T10:23:17.000Z</time>
      </trkpt>
      <trkpt lat="44.89448" lon="5.34695">
        <ele>1531.4</ele>
        <time>2020-07-21T10:23:24.000Z</time>
      </trkpt>
      <trkpt lat="44.89439" lon="5.34689">
        <ele>1533.2</ele>
        <time>2020-07-21T10:23:32.000Z</time>
      </trkpt>
      <trkpt lat="44.8943" lon="5.34688">
        <ele>1533.9</ele>
        <time>2020-07-21T10:23:36.000Z</time>
      </trkpt>
      <trkpt lat="44.8942" lon="5.34688">
        <ele>1534.8</ele>
        <time>2020-07-21T10:23:43.000Z</time>
      </trkpt>
      <trkpt lat="44.89413" lon="5.34679">
        <ele>1536.5</ele>
        <time>2020-07-21T10:23:56.000Z</time>
      </trkpt>
      <trkpt lat="44.89405" lon="5.34673">
        <ele>1537.7</ele>
        <time>2020-07-21T10:24:05.000Z</time>
      </trkpt>
      <trkpt lat="44.89395" lon="5.34668">
        <ele>1538.5</ele>
        <time>2020-07-21T10:24:11.000Z</time>
      </trkpt>
      <trkpt lat="44.89386" lon="5.34666">
        <ele>1539</ele>
        <time>2020-07-21T10:24:15.000Z</time>
      </trkpt>
      <trkpt lat="44.89376" lon="5.34663">
        <ele>1539.9</ele>
        <time>2020-07-21T10:24:20.000Z</time>
      </trkpt>
      <trkpt lat="44.89366" lon="5.34661">
        <ele>1540.9</ele>
        <time>2020-07-21T10:24:27.000Z</time>
      </trkpt>
      <trkpt lat="44.89357" lon="5.3466">
        <ele>1542.5</ele>
        <time>2020-07-21T10:24:37.000Z</time>
      </trkpt>
      <trkpt lat="44.89347" lon="5.34665">
        <ele>1543.4</ele>
        <time>2020-07-21T10:24:43.000Z</time>
      </trkpt>
      <trkpt lat="44.89342" lon="5.34677">
        <ele>1544.8</ele>
        <time>2020-07-21T10:24:51.000Z</time>
      </trkpt>
      <trkpt lat="44.89346" lon="5.34689">
        <ele>1545.6</ele>
        <time>2020-07-21T10:24:57.000Z</time>
      </trkpt>
      <trkpt lat="44.89353" lon="5.34697">
        <ele>1546.4</ele>
        <time>2020-07-21T10:25:05.000Z</time>
      </trkpt>
      <trkpt lat="44.89351" lon="5.34685">
        <ele>1554.9</ele>
        <time>2020-07-21T10:26:13.000Z</time>
      </trkpt>
      <trkpt lat="44.89351" lon="5.34671">
        <ele>1552.8</ele>
        <time>2020-07-21T10:26:21.000Z</time>
      </trkpt>
      <trkpt lat="44.89349" lon="5.34659">
        <ele>1549.8</ele>
        <time>2020-07-21T10:26:28.000Z</time>
      </trkpt>
      <trkpt lat="44.89342" lon="5.34648">
        <ele>1547.3</ele>
        <time>2020-07-21T10:26:37.000Z</time>
      </trkpt>
      <trkpt lat="44.89332" lon="5.34645">
        <ele>1546.6</ele>
        <time>2020-07-21T10:26:43.000Z</time>
      </trkpt>
      <trkpt lat="44.89323" lon="5.34641">
        <ele>1547</ele>
        <time>2020-07-21T10:26:52.000Z</time>
      </trkpt>
      <trkpt lat="44.89314" lon="5.34635">
        <ele>1548.3</ele>
        <time>2020-07-21T10:27:05.000Z</time>
      </trkpt>
      <trkpt lat="44.89304" lon="5.34629">
        <ele>1549.8</ele>
        <time>2020-07-21T10:27:15.000Z</time>
      </trkpt>
      <trkpt lat="44.89295" lon="5.34625">
        <ele>1550.7</ele>
        <time>2020-07-21T10:27:22.000Z</time>
      </trkpt>
      <trkpt lat="44.89287" lon="5.34619">
        <ele>1552.1</ele>
        <time>2020-07-21T10:27:33.000Z</time>
      </trkpt>
      <trkpt lat="44.89277" lon="5.34616">
        <ele>1553</ele>
        <time>2020-07-21T10:27:41.000Z</time>
      </trkpt>
      <trkpt lat="44.89269" lon="5.34609">
        <ele>1553.9</ele>
        <time>2020-07-21T10:27:50.000Z</time>
      </trkpt>
      <trkpt lat="44.89261" lon="5.34602">
        <ele>1556.4</ele>
        <time>2020-07-21T10:28:06.000Z</time>
      </trkpt>
      <trkpt lat="44.89251" lon="5.34599">
        <ele>1558.4</ele>
        <time>2020-07-21T10:28:18.000Z</time>
      </trkpt>
      <trkpt lat="44.89242" lon="5.34596">
        <ele>1559.6</ele>
        <time>2020-07-21T10:28:25.000Z</time>
      </trkpt>
      <trkpt lat="44.89232" lon="5.34594">
        <ele>1560.8</ele>
        <time>2020-07-21T10:28:32.000Z</time>
      </trkpt>
      <trkpt lat="44.89222" lon="5.34594">
        <ele>1561.4</ele>
        <time>2020-07-21T10:28:35.000Z</time>
      </trkpt>
      <trkpt lat="44.89212" lon="5.34594">
        <ele>1562.6</ele>
        <time>2020-07-21T10:28:41.000Z</time>
      </trkpt>
      <trkpt lat="44.89204" lon="5.346">
        <ele>1564.2</ele>
        <time>2020-07-21T10:28:52.000Z</time>
      </trkpt>
      <trkpt lat="44.89194" lon="5.346">
        <ele>1565.4</ele>
        <time>2020-07-21T10:29:26.000Z</time>
      </trkpt>
      <trkpt lat="44.89186" lon="5.34593">
        <ele>1566.7</ele>
        <time>2020-07-21T10:29:35.000Z</time>
      </trkpt>
      <trkpt lat="44.89179" lon="5.34584">
        <ele>1567.3</ele>
        <time>2020-07-21T10:29:42.000Z</time>
      </trkpt>
      <trkpt lat="44.89171" lon="5.34577">
        <ele>1567.6</ele>
        <time>2020-07-21T10:29:49.000Z</time>
      </trkpt>
      <trkpt lat="44.89163" lon="5.34571">
        <ele>1567.7</ele>
        <time>2020-07-21T10:29:56.000Z</time>
      </trkpt>
      <trkpt lat="44.89154" lon="5.34565">
        <ele>1567</ele>
        <time>2020-07-21T10:30:04.000Z</time>
      </trkpt>
      <trkpt lat="44.89145" lon="5.34561">
        <ele>1566.6</ele>
        <time>2020-07-21T10:30:12.000Z</time>
      </trkpt>
      <trkpt lat="44.89137" lon="5.34554">
        <ele>1566.6</ele>
        <time>2020-07-21T10:30:19.000Z</time>
      </trkpt>
      <trkpt lat="44.89128" lon="5.34548">
        <ele>1567.3</ele>
        <time>2020-07-21T10:30:27.000Z</time>
      </trkpt>
      <trkpt lat="44.89119" lon="5.34543">
        <ele>1568.1</ele>
        <time>2020-07-21T10:30:35.000Z</time>
      </trkpt>
      <trkpt lat="44.89112" lon="5.34535">
        <ele>1569.2</ele>
        <time>2020-07-21T10:30:44.000Z</time>
      </trkpt>
      <trkpt lat="44.89104" lon="5.34529">
        <ele>1570</ele>
        <time>2020-07-21T10:30:52.000Z</time>
      </trkpt>
      <trkpt lat="44.89095" lon="5.34523">
        <ele>1570.8</ele>
        <time>2020-07-21T10:31:00.000Z</time>
      </trkpt>
      <trkpt lat="44.89086" lon="5.3452">
        <ele>1571.2</ele>
        <time>2020-07-21T10:31:05.000Z</time>
      </trkpt>
      <trkpt lat="44.89077" lon="5.34514">
        <ele>1572.1</ele>
        <time>2020-07-21T10:31:13.000Z</time>
      </trkpt>
      <trkpt lat="44.89068" lon="5.34509">
        <ele>1573</ele>
        <time>2020-07-21T10:31:21.000Z</time>
      </trkpt>
      <trkpt lat="44.8906" lon="5.34505">
        <ele>1573.9</ele>
        <time>2020-07-21T10:31:29.000Z</time>
      </trkpt>
      <trkpt lat="44.89052" lon="5.34498">
        <ele>1575.3</ele>
        <time>2020-07-21T10:31:38.000Z</time>
      </trkpt>
      <trkpt lat="44.89044" lon="5.3449">
        <ele>1576.4</ele>
        <time>2020-07-21T10:31:45.000Z</time>
      </trkpt>
      <trkpt lat="44.89035" lon="5.34485">
        <ele>1577.7</ele>
        <time>2020-07-21T10:31:53.000Z</time>
      </trkpt>
      <trkpt lat="44.89025" lon="5.34481">
        <ele>1578.9</ele>
        <time>2020-07-21T10:31:59.000Z</time>
      </trkpt>
      <trkpt lat="44.89016" lon="5.34481">
        <ele>1580</ele>
        <time>2020-07-21T10:32:05.000Z</time>
      </trkpt>
      <trkpt lat="44.89009" lon="5.3447">
        <ele>1582.4</ele>
        <time>2020-07-21T10:32:15.000Z</time>
      </trkpt>
      <trkpt lat="44.88998" lon="5.34464">
        <ele>1583.7</ele>
        <time>2020-07-21T10:32:20.000Z</time>
      </trkpt>
      <trkpt lat="44.88988" lon="5.34463">
        <ele>1585.2</ele>
        <time>2020-07-21T10:32:24.000Z</time>
      </trkpt>
      <trkpt lat="44.88978" lon="5.34462">
        <ele>1586.6</ele>
        <time>2020-07-21T10:32:30.000Z</time>
      </trkpt>
      <trkpt lat="44.8897" lon="5.34457">
        <ele>1588.4</ele>
        <time>2020-07-21T10:32:47.000Z</time>
      </trkpt>
      <trkpt lat="44.88961" lon="5.34459">
        <ele>1588.7</ele>
        <time>2020-07-21T10:33:06.000Z</time>
      </trkpt>
      <trkpt lat="44.88955" lon="5.3447">
        <ele>1588.3</ele>
        <time>2020-07-21T10:33:14.000Z</time>
      </trkpt>
      <trkpt lat="44.8895" lon="5.34482">
        <ele>1587.9</ele>
        <time>2020-07-21T10:33:21.000Z</time>
      </trkpt>
      <trkpt lat="44.88943" lon="5.34491">
        <ele>1587.4</ele>
        <time>2020-07-21T10:33:29.000Z</time>
      </trkpt>
      <trkpt lat="44.88935" lon="5.34496">
        <ele>1586.7</ele>
        <time>2020-07-21T10:33:36.000Z</time>
      </trkpt>
      <trkpt lat="44.88926" lon="5.34499">
        <ele>1586</ele>
        <time>2020-07-21T10:33:43.000Z</time>
      </trkpt>
      <trkpt lat="44.88917" lon="5.34501">
        <ele>1585.5</ele>
        <time>2020-07-21T10:33:50.000Z</time>
      </trkpt>
      <trkpt lat="44.88907" lon="5.34507">
        <ele>1585.3</ele>
        <time>2020-07-21T10:33:58.000Z</time>
      </trkpt>
      <trkpt lat="44.88898" lon="5.3451">
        <ele>1585.4</ele>
        <time>2020-07-21T10:34:05.000Z</time>
      </trkpt>
      <trkpt lat="44.88889" lon="5.34515">
        <ele>1585.6</ele>
        <time>2020-07-21T10:34:10.000Z</time>
      </trkpt>
      <trkpt lat="44.88879" lon="5.34517">
        <ele>1586.2</ele>
        <time>2020-07-21T10:34:16.000Z</time>
      </trkpt>
      <trkpt lat="44.8887" lon="5.34519">
        <ele>1587.1</ele>
        <time>2020-07-21T10:34:24.000Z</time>
      </trkpt>
      <trkpt lat="44.8886" lon="5.34522">
        <ele>1588.1</ele>
        <time>2020-07-21T10:34:32.000Z</time>
      </trkpt>
      <trkpt lat="44.8885" lon="5.34522">
        <ele>1588.9</ele>
        <time>2020-07-21T10:34:40.000Z</time>
      </trkpt>
      <trkpt lat="44.88841" lon="5.34526">
        <ele>1589.8</ele>
        <time>2020-07-21T10:34:48.000Z</time>
      </trkpt>
      <trkpt lat="44.88832" lon="5.3453">
        <ele>1590.3</ele>
        <time>2020-07-21T10:34:56.000Z</time>
      </trkpt>
      <trkpt lat="44.88823" lon="5.34536">
        <ele>1591.2</ele>
        <time>2020-07-21T10:35:05.000Z</time>
      </trkpt>
      <trkpt lat="44.88814" lon="5.3454">
        <ele>1591.8</ele>
        <time>2020-07-21T10:35:13.000Z</time>
      </trkpt>
      <trkpt lat="44.88805" lon="5.34542">
        <ele>1592.7</ele>
        <time>2020-07-21T10:35:21.000Z</time>
      </trkpt>
      <trkpt lat="44.88796" lon="5.3454">
        <ele>1593.7</ele>
        <time>2020-07-21T10:35:29.000Z</time>
      </trkpt>
      <trkpt lat="44.88786" lon="5.34538">
        <ele>1594.5</ele>
        <time>2020-07-21T10:35:37.000Z</time>
      </trkpt>
      <trkpt lat="44.88777" lon="5.34536">
        <ele>1595.3</ele>
        <time>2020-07-21T10:35:45.000Z</time>
      </trkpt>
      <trkpt lat="44.88767" lon="5.34532">
        <ele>1596.5</ele>
        <time>2020-07-21T10:35:53.000Z</time>
      </trkpt>
      <trkpt lat="44.88758" lon="5.34526">
        <ele>1597.4</ele>
        <time>2020-07-21T10:36:01.000Z</time>
      </trkpt>
      <trkpt lat="44.88748" lon="5.34523">
        <ele>1597.9</ele>
        <time>2020-07-21T10:36:09.000Z</time>
      </trkpt>
      <trkpt lat="44.88739" lon="5.34522">
        <ele>1598.2</ele>
        <time>2020-07-21T10:36:17.000Z</time>
      </trkpt>
      <trkpt lat="44.88729" lon="5.34521">
        <ele>1598.8</ele>
        <time>2020-07-21T10:36:25.000Z</time>
      </trkpt>
      <trkpt lat="44.8872" lon="5.34517">
        <ele>1599</ele>
        <time>2020-07-21T10:36:32.000Z</time>
      </trkpt>
      <trkpt lat="44.88711" lon="5.34515">
        <ele>1598.9</ele>
        <time>2020-07-21T10:36:40.000Z</time>
      </trkpt>
      <trkpt lat="44.88701" lon="5.34512">
        <ele>1599.3</ele>
        <time>2020-07-21T10:36:48.000Z</time>
      </trkpt>
      <trkpt lat="44.88692" lon="5.3451">
        <ele>1600</ele>
        <time>2020-07-21T10:36:56.000Z</time>
      </trkpt>
      <trkpt lat="44.88683" lon="5.34507">
        <ele>1601</ele>
        <time>2020-07-21T10:37:04.000Z</time>
      </trkpt>
      <trkpt lat="44.88674" lon="5.34505">
        <ele>1602.3</ele>
        <time>2020-07-21T10:37:12.000Z</time>
      </trkpt>
      <trkpt lat="44.88665" lon="5.34501">
        <ele>1603.2</ele>
        <time>2020-07-21T10:37:20.000Z</time>
      </trkpt>
      <trkpt lat="44.88657" lon="5.34499">
        <ele>1604.2</ele>
        <time>2020-07-21T10:37:28.000Z</time>
      </trkpt>
      <trkpt lat="44.88647" lon="5.34497">
        <ele>1605</ele>
        <time>2020-07-21T10:37:36.000Z</time>
      </trkpt>
      <trkpt lat="44.88637" lon="5.34496">
        <ele>1605.8</ele>
        <time>2020-07-21T10:37:45.000Z</time>
      </trkpt>
      <trkpt lat="44.88628" lon="5.34496">
        <ele>1606.3</ele>
        <time>2020-07-21T10:37:53.000Z</time>
      </trkpt>
      <trkpt lat="44.88618" lon="5.34497">
        <ele>1606.9</ele>
        <time>2020-07-21T10:38:01.000Z</time>
      </trkpt>
      <trkpt lat="44.8861" lon="5.34501">
        <ele>1607.7</ele>
        <time>2020-07-21T10:38:09.000Z</time>
      </trkpt>
      <trkpt lat="44.886" lon="5.34504">
        <ele>1608.9</ele>
        <time>2020-07-21T10:38:18.000Z</time>
      </trkpt>
      <trkpt lat="44.88592" lon="5.3451">
        <ele>1609.7</ele>
        <time>2020-07-21T10:38:27.000Z</time>
      </trkpt>
      <trkpt lat="44.88582" lon="5.34514">
        <ele>1610.6</ele>
        <time>2020-07-21T10:38:36.000Z</time>
      </trkpt>
      <trkpt lat="44.88573" lon="5.34516">
        <ele>1611.1</ele>
        <time>2020-07-21T10:38:44.000Z</time>
      </trkpt>
      <trkpt lat="44.88564" lon="5.34517">
        <ele>1611.8</ele>
        <time>2020-07-21T10:38:52.000Z</time>
      </trkpt>
      <trkpt lat="44.88554" lon="5.34516">
        <ele>1613</ele>
        <time>2020-07-21T10:39:01.000Z</time>
      </trkpt>
      <trkpt lat="44.88544" lon="5.34517">
        <ele>1614.1</ele>
        <time>2020-07-21T10:39:10.000Z</time>
      </trkpt>
      <trkpt lat="44.88535" lon="5.34514">
        <ele>1614.8</ele>
        <time>2020-07-21T10:39:18.000Z</time>
      </trkpt>
      <trkpt lat="44.88525" lon="5.34513">
        <ele>1615.6</ele>
        <time>2020-07-21T10:39:27.000Z</time>
      </trkpt>
      <trkpt lat="44.88515" lon="5.34514">
        <ele>1616.9</ele>
        <time>2020-07-21T10:39:36.000Z</time>
      </trkpt>
      <trkpt lat="44.88506" lon="5.34522">
        <ele>1618.2</ele>
        <time>2020-07-21T10:39:45.000Z</time>
      </trkpt>
      <trkpt lat="44.88498" lon="5.34529">
        <ele>1619.3</ele>
        <time>2020-07-21T10:39:53.000Z</time>
      </trkpt>
      <trkpt lat="44.8849" lon="5.34535">
        <ele>1620.8</ele>
        <time>2020-07-21T10:40:01.000Z</time>
      </trkpt>
      <trkpt lat="44.88483" lon="5.34543">
        <ele>1622.1</ele>
        <time>2020-07-21T10:40:09.000Z</time>
      </trkpt>
      <trkpt lat="44.88476" lon="5.34552">
        <ele>1623.5</ele>
        <time>2020-07-21T10:40:17.000Z</time>
      </trkpt>
      <trkpt lat="44.88471" lon="5.34562">
        <ele>1624.4</ele>
        <time>2020-07-21T10:40:25.000Z</time>
      </trkpt>
      <trkpt lat="44.88467" lon="5.34574">
        <ele>1625.1</ele>
        <time>2020-07-21T10:40:33.000Z</time>
      </trkpt>
      <trkpt lat="44.88463" lon="5.34586">
        <ele>1626.1</ele>
        <time>2020-07-21T10:40:42.000Z</time>
      </trkpt>
      <trkpt lat="44.88457" lon="5.34596">
        <ele>1626.9</ele>
        <time>2020-07-21T10:40:51.000Z</time>
      </trkpt>
      <trkpt lat="44.88448" lon="5.34601">
        <ele>1627.1</ele>
        <time>2020-07-21T10:41:00.000Z</time>
      </trkpt>
      <trkpt lat="44.88441" lon="5.34609">
        <ele>1627.3</ele>
        <time>2020-07-21T10:41:09.000Z</time>
      </trkpt>
      <trkpt lat="44.88432" lon="5.34607">
        <ele>1628</ele>
        <time>2020-07-21T10:41:17.000Z</time>
      </trkpt>
      <trkpt lat="44.88422" lon="5.34608">
        <ele>1629.1</ele>
        <time>2020-07-21T10:41:26.000Z</time>
      </trkpt>
      <trkpt lat="44.88412" lon="5.34605">
        <ele>1630.4</ele>
        <time>2020-07-21T10:41:35.000Z</time>
      </trkpt>
      <trkpt lat="44.88403" lon="5.34606">
        <ele>1631.7</ele>
        <time>2020-07-21T10:41:43.000Z</time>
      </trkpt>
      <trkpt lat="44.88394" lon="5.34609">
        <ele>1633.1</ele>
        <time>2020-07-21T10:41:52.000Z</time>
      </trkpt>
      <trkpt lat="44.88384" lon="5.34609">
        <ele>1634.6</ele>
        <time>2020-07-21T10:42:01.000Z</time>
      </trkpt>
      <trkpt lat="44.88375" lon="5.34614">
        <ele>1636.9</ele>
        <time>2020-07-21T10:42:10.000Z</time>
      </trkpt>
      <trkpt lat="44.88365" lon="5.34614">
        <ele>1639.2</ele>
        <time>2020-07-21T10:42:20.000Z</time>
      </trkpt>
      <trkpt lat="44.88356" lon="5.34614">
        <ele>1641.5</ele>
        <time>2020-07-21T10:42:32.000Z</time>
      </trkpt>
      <trkpt lat="44.88346" lon="5.34619">
        <ele>1643.4</ele>
        <time>2020-07-21T10:44:01.000Z</time>
      </trkpt>
      <trkpt lat="44.88337" lon="5.34615">
        <ele>1643.9</ele>
        <time>2020-07-21T10:44:09.000Z</time>
      </trkpt>
      <trkpt lat="44.88329" lon="5.34611">
        <ele>1644.3</ele>
        <time>2020-07-21T10:44:17.000Z</time>
      </trkpt>
      <trkpt lat="44.8832" lon="5.34612">
        <ele>1645</ele>
        <time>2020-07-21T10:44:25.000Z</time>
      </trkpt>
      <trkpt lat="44.8831" lon="5.34612">
        <ele>1646.4</ele>
        <time>2020-07-21T10:44:34.000Z</time>
      </trkpt>
      <trkpt lat="44.883" lon="5.34611">
        <ele>1648.1</ele>
        <time>2020-07-21T10:44:44.000Z</time>
      </trkpt>
      <trkpt lat="44.8829" lon="5.34611">
        <ele>1649.8</ele>
        <time>2020-07-21T10:44:54.000Z</time>
      </trkpt>
      <trkpt lat="44.88281" lon="5.34611">
        <ele>1651</ele>
        <time>2020-07-21T10:45:03.000Z</time>
      </trkpt>
      <trkpt lat="44.88272" lon="5.34604">
        <ele>1652.8</ele>
        <time>2020-07-21T10:45:14.000Z</time>
      </trkpt>
      <trkpt lat="44.88262" lon="5.34605">
        <ele>1654.6</ele>
        <time>2020-07-21T10:45:23.000Z</time>
      </trkpt>
      <trkpt lat="44.88254" lon="5.34598">
        <ele>1655.4</ele>
        <time>2020-07-21T10:45:32.000Z</time>
      </trkpt>
      <trkpt lat="44.88246" lon="5.34591">
        <ele>1656</ele>
        <time>2020-07-21T10:45:40.000Z</time>
      </trkpt>
      <trkpt lat="44.88236" lon="5.34586">
        <ele>1657</ele>
        <time>2020-07-21T10:45:49.000Z</time>
      </trkpt>
      <trkpt lat="44.88229" lon="5.34577">
        <ele>1657.6</ele>
        <time>2020-07-21T10:45:58.000Z</time>
      </trkpt>
      <trkpt lat="44.88223" lon="5.34567">
        <ele>1658.1</ele>
        <time>2020-07-21T10:46:07.000Z</time>
      </trkpt>
      <trkpt lat="44.88217" lon="5.34556">
        <ele>1658.2</ele>
        <time>2020-07-21T10:46:16.000Z</time>
      </trkpt>
      <trkpt lat="44.8821" lon="5.34547">
        <ele>1658.1</ele>
        <time>2020-07-21T10:46:24.000Z</time>
      </trkpt>
      <trkpt lat="44.882" lon="5.34544">
        <ele>1658.2</ele>
        <time>2020-07-21T10:46:33.000Z</time>
      </trkpt>
      <trkpt lat="44.88191" lon="5.34543">
        <ele>1658.6</ele>
        <time>2020-07-21T10:46:41.000Z</time>
      </trkpt>
      <trkpt lat="44.88181" lon="5.34543">
        <ele>1658.6</ele>
        <time>2020-07-21T10:46:49.000Z</time>
      </trkpt>
      <trkpt lat="44.88172" lon="5.34546">
        <ele>1658.3</ele>
        <time>2020-07-21T10:46:57.000Z</time>
      </trkpt>
      <trkpt lat="44.88163" lon="5.34542">
        <ele>1658.2</ele>
        <time>2020-07-21T10:47:06.000Z</time>
      </trkpt>
      <trkpt lat="44.88154" lon="5.34539">
        <ele>1658.2</ele>
        <time>2020-07-21T10:47:14.000Z</time>
      </trkpt>
      <trkpt lat="44.88145" lon="5.34541">
        <ele>1658</ele>
        <time>2020-07-21T10:47:21.000Z</time>
      </trkpt>
      <trkpt lat="44.88136" lon="5.34543">
        <ele>1657.3</ele>
        <time>2020-07-21T10:47:29.000Z</time>
      </trkpt>
      <trkpt lat="44.88127" lon="5.3455">
        <ele>1655.4</ele>
        <time>2020-07-21T10:47:39.000Z</time>
      </trkpt>
      <trkpt lat="44.88118" lon="5.3455">
        <ele>1653.5</ele>
        <time>2020-07-21T10:47:53.000Z</time>
      </trkpt>
      <trkpt lat="44.88108" lon="5.34553">
        <ele>1651.6</ele>
        <time>2020-07-21T10:48:05.000Z</time>
      </trkpt>
      <trkpt lat="44.88099" lon="5.34554">
        <ele>1650.4</ele>
        <time>2020-07-21T10:48:12.000Z</time>
      </trkpt>
      <trkpt lat="44.8809" lon="5.34551">
        <ele>1649.8</ele>
        <time>2020-07-21T10:48:19.000Z</time>
      </trkpt>
      <trkpt lat="44.88082" lon="5.34542">
        <ele>1650.2</ele>
        <time>2020-07-21T10:48:28.000Z</time>
      </trkpt>
      <trkpt lat="44.88075" lon="5.34535">
        <ele>1651.3</ele>
        <time>2020-07-21T10:48:36.000Z</time>
      </trkpt>
      <trkpt lat="44.88068" lon="5.34525">
        <ele>1652.2</ele>
        <time>2020-07-21T10:48:45.000Z</time>
      </trkpt>
      <trkpt lat="44.88061" lon="5.34516">
        <ele>1652.7</ele>
        <time>2020-07-21T10:48:53.000Z</time>
      </trkpt>
      <trkpt lat="44.88051" lon="5.34512">
        <ele>1653</ele>
        <time>2020-07-21T10:49:01.000Z</time>
      </trkpt>
      <trkpt lat="44.88042" lon="5.34509">
        <ele>1653.1</ele>
        <time>2020-07-21T10:49:09.000Z</time>
      </trkpt>
      <trkpt lat="44.88032" lon="5.34508">
        <ele>1653.3</ele>
        <time>2020-07-21T10:49:17.000Z</time>
      </trkpt>
      <trkpt lat="44.88022" lon="5.3451">
        <ele>1653.9</ele>
        <time>2020-07-21T10:49:26.000Z</time>
      </trkpt>
      <trkpt lat="44.88013" lon="5.34514">
        <ele>1655</ele>
        <time>2020-07-21T10:49:34.000Z</time>
      </trkpt>
      <trkpt lat="44.88004" lon="5.3451">
        <ele>1655.5</ele>
        <time>2020-07-21T10:49:43.000Z</time>
      </trkpt>
      <trkpt lat="44.87995" lon="5.34505">
        <ele>1655.6</ele>
        <time>2020-07-21T10:49:51.000Z</time>
      </trkpt>
      <trkpt lat="44.88003" lon="5.34512">
        <ele>1657.1</ele>
        <time>2020-07-21T10:52:36.000Z</time>
      </trkpt>
      <trkpt lat="44.88012" lon="5.34517">
        <ele>1656.9</ele>
        <time>2020-07-21T10:52:44.000Z</time>
      </trkpt>
      <trkpt lat="44.88021" lon="5.34515">
        <ele>1656.7</ele>
        <time>2020-07-21T10:52:52.000Z</time>
      </trkpt>
      <trkpt lat="44.8803" lon="5.34513">
        <ele>1656.4</ele>
        <time>2020-07-21T10:53:00.000Z</time>
      </trkpt>
      <trkpt lat="44.88039" lon="5.34514">
        <ele>1656</ele>
        <time>2020-07-21T10:53:07.000Z</time>
      </trkpt>
      <trkpt lat="44.88049" lon="5.34516">
        <ele>1654.9</ele>
        <time>2020-07-21T10:53:14.000Z</time>
      </trkpt>
      <trkpt lat="44.88058" lon="5.34519">
        <ele>1654.1</ele>
        <time>2020-07-21T10:53:22.000Z</time>
      </trkpt>
      <trkpt lat="44.88066" lon="5.34528">
        <ele>1653.7</ele>
        <time>2020-07-21T10:53:30.000Z</time>
      </trkpt>
      <trkpt lat="44.88073" lon="5.34538">
        <ele>1653.3</ele>
        <time>2020-07-21T10:53:39.000Z</time>
      </trkpt>
      <trkpt lat="44.88081" lon="5.34546">
        <ele>1653</ele>
        <time>2020-07-21T10:53:46.000Z</time>
      </trkpt>
      <trkpt lat="44.88089" lon="5.34554">
        <ele>1652</ele>
        <time>2020-07-21T10:53:58.000Z</time>
      </trkpt>
      <trkpt lat="44.88099" lon="5.34556">
        <ele>1651</ele>
        <time>2020-07-21T10:54:05.000Z</time>
      </trkpt>
      <trkpt lat="44.8811" lon="5.34558">
        <ele>1650.2</ele>
        <time>2020-07-21T10:54:11.000Z</time>
      </trkpt>
      <trkpt lat="44.88118" lon="5.34551">
        <ele>1650.8</ele>
        <time>2020-07-21T10:54:20.000Z</time>
      </trkpt>
      <trkpt lat="44.88127" lon="5.34549">
        <ele>1652.2</ele>
        <time>2020-07-21T10:54:28.000Z</time>
      </trkpt>
      <trkpt lat="44.88137" lon="5.34546">
        <ele>1654.3</ele>
        <time>2020-07-21T10:54:36.000Z</time>
      </trkpt>
      <trkpt lat="44.88146" lon="5.34544">
        <ele>1655.9</ele>
        <time>2020-07-21T10:54:43.000Z</time>
      </trkpt>
      <trkpt lat="44.88156" lon="5.34543">
        <ele>1657.2</ele>
        <time>2020-07-21T10:54:51.000Z</time>
      </trkpt>
      <trkpt lat="44.88165" lon="5.34546">
        <ele>1657.7</ele>
        <time>2020-07-21T10:54:58.000Z</time>
      </trkpt>
      <trkpt lat="44.88175" lon="5.34548">
        <ele>1658</ele>
        <time>2020-07-21T10:55:05.000Z</time>
      </trkpt>
      <trkpt lat="44.88184" lon="5.34545">
        <ele>1658.1</ele>
        <time>2020-07-21T10:55:12.000Z</time>
      </trkpt>
      <trkpt lat="44.88194" lon="5.34546">
        <ele>1658.1</ele>
        <time>2020-07-21T10:55:20.000Z</time>
      </trkpt>
      <trkpt lat="44.88203" lon="5.34549">
        <ele>1658.5</ele>
        <time>2020-07-21T10:55:28.000Z</time>
      </trkpt>
      <trkpt lat="44.88211" lon="5.34554">
        <ele>1658.8</ele>
        <time>2020-07-21T10:55:36.000Z</time>
      </trkpt>
      <trkpt lat="44.88218" lon="5.34563">
        <ele>1658.6</ele>
        <time>2020-07-21T10:55:44.000Z</time>
      </trkpt>
      <trkpt lat="44.88224" lon="5.34573">
        <ele>1657.9</ele>
        <time>2020-07-21T10:55:53.000Z</time>
      </trkpt>
      <trkpt lat="44.88231" lon="5.34582">
        <ele>1657.8</ele>
        <time>2020-07-21T10:56:02.000Z</time>
      </trkpt>
      <trkpt lat="44.88239" lon="5.3459">
        <ele>1657.9</ele>
        <time>2020-07-21T10:56:10.000Z</time>
      </trkpt>
      <trkpt lat="44.88248" lon="5.34596">
        <ele>1657.8</ele>
        <time>2020-07-21T10:56:18.000Z</time>
      </trkpt>
      <trkpt lat="44.88256" lon="5.34603">
        <ele>1657.2</ele>
        <time>2020-07-21T10:56:26.000Z</time>
      </trkpt>
      <trkpt lat="44.88265" lon="5.34607">
        <ele>1656.3</ele>
        <time>2020-07-21T10:56:33.000Z</time>
      </trkpt>
      <trkpt lat="44.88274" lon="5.3461">
        <ele>1655.5</ele>
        <time>2020-07-21T10:56:41.000Z</time>
      </trkpt>
      <trkpt lat="44.88283" lon="5.34615">
        <ele>1654.3</ele>
        <time>2020-07-21T10:56:52.000Z</time>
      </trkpt>
      <trkpt lat="44.88293" lon="5.34614">
        <ele>1652.7</ele>
        <time>2020-07-21T10:57:01.000Z</time>
      </trkpt>
      <trkpt lat="44.88302" lon="5.34611">
        <ele>1651.7</ele>
        <time>2020-07-21T10:57:08.000Z</time>
      </trkpt>
      <trkpt lat="44.88312" lon="5.34613">
        <ele>1651</ele>
        <time>2020-07-21T10:57:15.000Z</time>
      </trkpt>
      <trkpt lat="44.88322" lon="5.34609">
        <ele>1649.8</ele>
        <time>2020-07-21T10:57:23.000Z</time>
      </trkpt>
      <trkpt lat="44.88331" lon="5.34615">
        <ele>1648.1</ele>
        <time>2020-07-21T10:57:31.000Z</time>
      </trkpt>
      <trkpt lat="44.88341" lon="5.34619">
        <ele>1646.4</ele>
        <time>2020-07-21T10:57:39.000Z</time>
      </trkpt>
      <trkpt lat="44.8835" lon="5.3462">
        <ele>1645.5</ele>
        <time>2020-07-21T10:57:46.000Z</time>
      </trkpt>
      <trkpt lat="44.8836" lon="5.34619">
        <ele>1644.8</ele>
        <time>2020-07-21T10:57:54.000Z</time>
      </trkpt>
      <trkpt lat="44.88369" lon="5.34622">
        <ele>1643.8</ele>
        <time>2020-07-21T10:58:02.000Z</time>
      </trkpt>
      <trkpt lat="44.88374" lon="5.34611">
        <ele>1637.9</ele>
        <time>2020-07-21T11:00:33.000Z</time>
      </trkpt>
      <trkpt lat="44.88383" lon="5.34616">
        <ele>1637.9</ele>
        <time>2020-07-21T11:00:41.000Z</time>
      </trkpt>
      <trkpt lat="44.88392" lon="5.34613">
        <ele>1636.3</ele>
        <time>2020-07-21T11:00:51.000Z</time>
      </trkpt>
      <trkpt lat="44.88401" lon="5.34613">
        <ele>1634</ele>
        <time>2020-07-21T11:00:59.000Z</time>
      </trkpt>
      <trkpt lat="44.88411" lon="5.3461">
        <ele>1631.8</ele>
        <time>2020-07-21T11:01:08.000Z</time>
      </trkpt>
      <trkpt lat="44.8842" lon="5.34611">
        <ele>1630.1</ele>
        <time>2020-07-21T11:01:18.000Z</time>
      </trkpt>
      <trkpt lat="44.88429" lon="5.34614">
        <ele>1628.7</ele>
        <time>2020-07-21T11:01:28.000Z</time>
      </trkpt>
      <trkpt lat="44.88439" lon="5.34614">
        <ele>1627.2</ele>
        <time>2020-07-21T11:01:38.000Z</time>
      </trkpt>
      <trkpt lat="44.88449" lon="5.34612">
        <ele>1625.8</ele>
        <time>2020-07-21T11:01:46.000Z</time>
      </trkpt>
      <trkpt lat="44.88454" lon="5.34602">
        <ele>1624.5</ele>
        <time>2020-07-21T11:01:53.000Z</time>
      </trkpt>
      <trkpt lat="44.88461" lon="5.34592">
        <ele>1623.2</ele>
        <time>2020-07-21T11:02:03.000Z</time>
      </trkpt>
      <trkpt lat="44.88464" lon="5.3458">
        <ele>1622.6</ele>
        <time>2020-07-21T11:02:11.000Z</time>
      </trkpt>
      <trkpt lat="44.88469" lon="5.34568">
        <ele>1622.2</ele>
        <time>2020-07-21T11:02:18.000Z</time>
      </trkpt>
      <trkpt lat="44.88474" lon="5.34557">
        <ele>1621.3</ele>
        <time>2020-07-21T11:02:25.000Z</time>
      </trkpt>
      <trkpt lat="44.88481" lon="5.34546">
        <ele>1620.1</ele>
        <time>2020-07-21T11:02:33.000Z</time>
      </trkpt>
      <trkpt lat="44.88488" lon="5.34537">
        <ele>1618.8</ele>
        <time>2020-07-21T11:02:41.000Z</time>
      </trkpt>
      <trkpt lat="44.88496" lon="5.3453">
        <ele>1617.5</ele>
        <time>2020-07-21T11:02:48.000Z</time>
      </trkpt>
      <trkpt lat="44.88504" lon="5.34526">
        <ele>1616.2</ele>
        <time>2020-07-21T11:02:55.000Z</time>
      </trkpt>
      <trkpt lat="44.88513" lon="5.3452">
        <ele>1614.7</ele>
        <time>2020-07-21T11:03:03.000Z</time>
      </trkpt>
      <trkpt lat="44.88521" lon="5.34513">
        <ele>1612.8</ele>
        <time>2020-07-21T11:03:11.000Z</time>
      </trkpt>
      <trkpt lat="44.8853" lon="5.34507">
        <ele>1611.2</ele>
        <time>2020-07-21T11:03:18.000Z</time>
      </trkpt>
      <trkpt lat="44.88537" lon="5.34496">
        <ele>1609.5</ele>
        <time>2020-07-21T11:03:25.000Z</time>
      </trkpt>
      <trkpt lat="44.88543" lon="5.34485">
        <ele>1607.5</ele>
        <time>2020-07-21T11:03:32.000Z</time>
      </trkpt>
      <trkpt lat="44.88547" lon="5.34472">
        <ele>1605.6</ele>
        <time>2020-07-21T11:03:39.000Z</time>
      </trkpt>
      <trkpt lat="44.88548" lon="5.34459">
        <ele>1604.1</ele>
        <time>2020-07-21T11:03:47.000Z</time>
      </trkpt>
      <trkpt lat="44.88548" lon="5.34445">
        <ele>1603</ele>
        <time>2020-07-21T11:03:55.000Z</time>
      </trkpt>
      <trkpt lat="44.88551" lon="5.34432">
        <ele>1601.9</ele>
        <time>2020-07-21T11:04:04.000Z</time>
      </trkpt>
      <trkpt lat="44.88552" lon="5.34418">
        <ele>1600.7</ele>
        <time>2020-07-21T11:04:12.000Z</time>
      </trkpt>
      <trkpt lat="44.88551" lon="5.34404">
        <ele>1599.7</ele>
        <time>2020-07-21T11:04:19.000Z</time>
      </trkpt>
      <trkpt lat="44.88549" lon="5.34392">
        <ele>1599.1</ele>
        <time>2020-07-21T11:04:26.000Z</time>
      </trkpt>
      <trkpt lat="44.88545" lon="5.34379">
        <ele>1598.4</ele>
        <time>2020-07-21T11:04:34.000Z</time>
      </trkpt>
      <trkpt lat="44.88544" lon="5.34366">
        <ele>1598</ele>
        <time>2020-07-21T11:04:42.000Z</time>
      </trkpt>
      <trkpt lat="44.88547" lon="5.34353">
        <ele>1598.1</ele>
        <time>2020-07-21T11:04:51.000Z</time>
      </trkpt>
      <trkpt lat="44.88551" lon="5.34341">
        <ele>1598.6</ele>
        <time>2020-07-21T11:05:04.000Z</time>
      </trkpt>
      <trkpt lat="44.88549" lon="5.34329">
        <ele>1598.5</ele>
        <time>2020-07-21T11:05:17.000Z</time>
      </trkpt>
      <trkpt lat="44.88546" lon="5.34317">
        <ele>1597.4</ele>
        <time>2020-07-21T11:05:25.000Z</time>
      </trkpt>
      <trkpt lat="44.88544" lon="5.34303">
        <ele>1596.1</ele>
        <time>2020-07-21T11:05:35.000Z</time>
      </trkpt>
      <trkpt lat="44.88544" lon="5.34287">
        <ele>1595.1</ele>
        <time>2020-07-21T11:05:41.000Z</time>
      </trkpt>
      <trkpt lat="44.88546" lon="5.34273">
        <ele>1594.7</ele>
        <time>2020-07-21T11:05:45.000Z</time>
      </trkpt>
      <trkpt lat="44.88549" lon="5.3426">
        <ele>1594.5</ele>
        <time>2020-07-21T11:05:52.000Z</time>
      </trkpt>
      <trkpt lat="44.8855" lon="5.34246">
        <ele>1594.7</ele>
        <time>2020-07-21T11:06:01.000Z</time>
      </trkpt>
      <trkpt lat="44.88548" lon="5.34234">
        <ele>1595</ele>
        <time>2020-07-21T11:06:08.000Z</time>
      </trkpt>
      <trkpt lat="44.88545" lon="5.34219">
        <ele>1595.1</ele>
        <time>2020-07-21T11:06:16.000Z</time>
      </trkpt>
      <trkpt lat="44.88545" lon="5.34207">
        <ele>1595</ele>
        <time>2020-07-21T11:06:22.000Z</time>
      </trkpt>
      <trkpt lat="44.8854" lon="5.34196">
        <ele>1594.4</ele>
        <time>2020-07-21T11:06:31.000Z</time>
      </trkpt>
      <trkpt lat="44.88532" lon="5.34187">
        <ele>1594.1</ele>
        <time>2020-07-21T11:06:40.000Z</time>
      </trkpt>
      <trkpt lat="44.88526" lon="5.34177">
        <ele>1594.3</ele>
        <time>2020-07-21T11:06:48.000Z</time>
      </trkpt>
      <trkpt lat="44.8852" lon="5.34168">
        <ele>1594.2</ele>
        <time>2020-07-21T11:06:56.000Z</time>
      </trkpt>
      <trkpt lat="44.88512" lon="5.34159">
        <ele>1594.1</ele>
        <time>2020-07-21T11:07:04.000Z</time>
      </trkpt>
      <trkpt lat="44.88505" lon="5.34149">
        <ele>1593.8</ele>
        <time>2020-07-21T11:07:12.000Z</time>
      </trkpt>
      <trkpt lat="44.88499" lon="5.34139">
        <ele>1593.6</ele>
        <time>2020-07-21T11:07:20.000Z</time>
      </trkpt>
      <trkpt lat="44.88492" lon="5.34128">
        <ele>1593.5</ele>
        <time>2020-07-21T11:07:28.000Z</time>
      </trkpt>
      <trkpt lat="44.88483" lon="5.34122">
        <ele>1593.6</ele>
        <time>2020-07-21T11:07:36.000Z</time>
      </trkpt>
      <trkpt lat="44.88476" lon="5.34114">
        <ele>1593.5</ele>
        <time>2020-07-21T11:07:43.000Z</time>
      </trkpt>
      <trkpt lat="44.88468" lon="5.34107">
        <ele>1593</ele>
        <time>2020-07-21T11:07:51.000Z</time>
      </trkpt>
      <trkpt lat="44.88461" lon="5.34098">
        <ele>1592.7</ele>
        <time>2020-07-21T11:08:00.000Z</time>
      </trkpt>
      <trkpt lat="44.88451" lon="5.34094">
        <ele>1593</ele>
        <time>2020-07-21T11:08:09.000Z</time>
      </trkpt>
      <trkpt lat="44.88442" lon="5.34089">
        <ele>1593.2</ele>
        <time>2020-07-21T11:08:18.000Z</time>
      </trkpt>
      <trkpt lat="44.88433" lon="5.34086">
        <ele>1593.5</ele>
        <time>2020-07-21T11:08:25.000Z</time>
      </trkpt>
      <trkpt lat="44.88425" lon="5.3408">
        <ele>1593.6</ele>
        <time>2020-07-21T11:08:32.000Z</time>
      </trkpt>
      <trkpt lat="44.88416" lon="5.34073">
        <ele>1593.8</ele>
        <time>2020-07-21T11:08:37.000Z</time>
      </trkpt>
      <trkpt lat="44.88407" lon="5.34067">
        <ele>1593.9</ele>
        <time>2020-07-21T11:08:40.000Z</time>
      </trkpt>
      <trkpt lat="44.88401" lon="5.34057">
        <ele>1594.2</ele>
        <time>2020-07-21T11:08:43.000Z</time>
      </trkpt>
      <trkpt lat="44.88395" lon="5.34045">
        <ele>1594.4</ele>
        <time>2020-07-21T11:08:46.000Z</time>
      </trkpt>
      <trkpt lat="44.88389" lon="5.34032">
        <ele>1594.7</ele>
        <time>2020-07-21T11:08:49.000Z</time>
      </trkpt>
      <trkpt lat="44.88382" lon="5.34021">
        <ele>1595.2</ele>
        <time>2020-07-21T11:08:52.000Z</time>
      </trkpt>
      <trkpt lat="44.88376" lon="5.34009">
        <ele>1595.6</ele>
        <time>2020-07-21T11:08:55.000Z</time>
      </trkpt>
      <trkpt lat="44.8837" lon="5.33998">
        <ele>1596</ele>
        <time>2020-07-21T11:08:58.000Z</time>
      </trkpt>
      <trkpt lat="44.88363" lon="5.33984">
        <ele>1596.5</ele>
        <time>2020-07-21T11:09:02.000Z</time>
      </trkpt>
      <trkpt lat="44.88361" lon="5.3397">
        <ele>1597</ele>
        <time>2020-07-21T11:09:06.000Z</time>
      </trkpt>
      <trkpt lat="44.88358" lon="5.33956">
        <ele>1597.4</ele>
        <time>2020-07-21T11:09:10.000Z</time>
      </trkpt>
      <trkpt lat="44.88357" lon="5.33943">
        <ele>1597.5</ele>
        <time>2020-07-21T11:09:13.000Z</time>
      </trkpt>
      <trkpt lat="44.88355" lon="5.33929">
        <ele>1597.4</ele>
        <time>2020-07-21T11:09:16.000Z</time>
      </trkpt>
      <trkpt lat="44.88352" lon="5.33917">
        <ele>1597.3</ele>
        <time>2020-07-21T11:09:19.000Z</time>
      </trkpt>
      <trkpt lat="44.8835" lon="5.339">
        <ele>1596.9</ele>
        <time>2020-07-21T11:09:23.000Z</time>
      </trkpt>
      <trkpt lat="44.88347" lon="5.33885">
        <ele>1596.5</ele>
        <time>2020-07-21T11:09:27.000Z</time>
      </trkpt>
      <trkpt lat="44.88342" lon="5.33872">
        <ele>1596.1</ele>
        <time>2020-07-21T11:09:31.000Z</time>
      </trkpt>
      <trkpt lat="44.88341" lon="5.33858">
        <ele>1595.7</ele>
        <time>2020-07-21T11:09:36.000Z</time>
      </trkpt>
      <trkpt lat="44.88343" lon="5.33845">
        <ele>1595</ele>
        <time>2020-07-21T11:09:43.000Z</time>
      </trkpt>
      <trkpt lat="44.88346" lon="5.33831">
        <ele>1593.9</ele>
        <time>2020-07-21T11:09:51.000Z</time>
      </trkpt>
      <trkpt lat="44.88348" lon="5.33819">
        <ele>1593.4</ele>
        <time>2020-07-21T11:09:58.000Z</time>
      </trkpt>
      <trkpt lat="44.8835" lon="5.33806">
        <ele>1592.4</ele>
        <time>2020-07-21T11:10:06.000Z</time>
      </trkpt>
      <trkpt lat="44.88348" lon="5.33793">
        <ele>1591.6</ele>
        <time>2020-07-21T11:10:13.000Z</time>
      </trkpt>
      <trkpt lat="44.88344" lon="5.33782">
        <ele>1590.3</ele>
        <time>2020-07-21T11:10:20.000Z</time>
      </trkpt>
      <trkpt lat="44.88341" lon="5.3377">
        <ele>1589.7</ele>
        <time>2020-07-21T11:10:27.000Z</time>
      </trkpt>
      <trkpt lat="44.88337" lon="5.33758">
        <ele>1589.2</ele>
        <time>2020-07-21T11:10:34.000Z</time>
      </trkpt>
      <trkpt lat="44.88335" lon="5.33745">
        <ele>1588.7</ele>
        <time>2020-07-21T11:10:42.000Z</time>
      </trkpt>
      <trkpt lat="44.88333" lon="5.33732">
        <ele>1586</ele>
        <time>2020-07-21T11:11:01.000Z</time>
      </trkpt>
      <trkpt lat="44.88327" lon="5.3372">
        <ele>1584.9</ele>
        <time>2020-07-21T11:11:09.000Z</time>
      </trkpt>
      <trkpt lat="44.8832" lon="5.33711">
        <ele>1583.3</ele>
        <time>2020-07-21T11:11:16.000Z</time>
      </trkpt>
      <trkpt lat="44.88315" lon="5.33699">
        <ele>1577.2</ele>
        <time>2020-07-21T11:12:26.000Z</time>
      </trkpt>
      <trkpt lat="44.88308" lon="5.33692">
        <ele>1576.6</ele>
        <time>2020-07-21T11:12:35.000Z</time>
      </trkpt>
      <trkpt lat="44.88298" lon="5.3369">
        <ele>1575.4</ele>
        <time>2020-07-21T11:12:43.000Z</time>
      </trkpt>
      <trkpt lat="44.88289" lon="5.33693">
        <ele>1574.3</ele>
        <time>2020-07-21T11:12:51.000Z</time>
      </trkpt>
      <trkpt lat="44.88279" lon="5.33697">
        <ele>1573.5</ele>
        <time>2020-07-21T11:12:59.000Z</time>
      </trkpt>
      <trkpt lat="44.8827" lon="5.33695">
        <ele>1572.7</ele>
        <time>2020-07-21T11:13:06.000Z</time>
      </trkpt>
      <trkpt lat="44.88262" lon="5.33689">
        <ele>1571.1</ele>
        <time>2020-07-21T11:13:14.000Z</time>
      </trkpt>
      <trkpt lat="44.88253" lon="5.33683">
        <ele>1569.1</ele>
        <time>2020-07-21T11:13:22.000Z</time>
      </trkpt>
      <trkpt lat="44.88245" lon="5.33677">
        <ele>1567.4</ele>
        <time>2020-07-21T11:13:29.000Z</time>
      </trkpt>
      <trkpt lat="44.88236" lon="5.33672">
        <ele>1565.7</ele>
        <time>2020-07-21T11:13:36.000Z</time>
      </trkpt>
      <trkpt lat="44.88228" lon="5.33666">
        <ele>1564.3</ele>
        <time>2020-07-21T11:13:42.000Z</time>
      </trkpt>
      <trkpt lat="44.88219" lon="5.33663">
        <ele>1561.7</ele>
        <time>2020-07-21T11:14:02.000Z</time>
      </trkpt>
      <trkpt lat="44.88209" lon="5.33663">
        <ele>1560.4</ele>
        <time>2020-07-21T11:14:11.000Z</time>
      </trkpt>
      <trkpt lat="44.88202" lon="5.33655">
        <ele>1558.9</ele>
        <time>2020-07-21T11:14:19.000Z</time>
      </trkpt>
      <trkpt lat="44.88196" lon="5.33644">
        <ele>1557.4</ele>
        <time>2020-07-21T11:14:26.000Z</time>
      </trkpt>
      <trkpt lat="44.88187" lon="5.33639">
        <ele>1555.9</ele>
        <time>2020-07-21T11:14:33.000Z</time>
      </trkpt>
      <trkpt lat="44.88179" lon="5.33633">
        <ele>1555.2</ele>
        <time>2020-07-21T11:14:40.000Z</time>
      </trkpt>
      <trkpt lat="44.8817" lon="5.33625">
        <ele>1554.8</ele>
        <time>2020-07-21T11:14:48.000Z</time>
      </trkpt>
      <trkpt lat="44.88164" lon="5.33614">
        <ele>1554.6</ele>
        <time>2020-07-21T11:14:55.000Z</time>
      </trkpt>
      <trkpt lat="44.88158" lon="5.33604">
        <ele>1554.5</ele>
        <time>2020-07-21T11:15:02.000Z</time>
      </trkpt>
      <trkpt lat="44.88151" lon="5.33594">
        <ele>1554.5</ele>
        <time>2020-07-21T11:15:09.000Z</time>
      </trkpt>
      <trkpt lat="44.88147" lon="5.33583">
        <ele>1554.9</ele>
        <time>2020-07-21T11:15:16.000Z</time>
      </trkpt>
      <trkpt lat="44.88142" lon="5.33572">
        <ele>1554.8</ele>
        <time>2020-07-21T11:15:23.000Z</time>
      </trkpt>
      <trkpt lat="44.88136" lon="5.33561">
        <ele>1554.7</ele>
        <time>2020-07-21T11:15:30.000Z</time>
      </trkpt>
      <trkpt lat="44.88129" lon="5.33551">
        <ele>1554.8</ele>
        <time>2020-07-21T11:15:38.000Z</time>
      </trkpt>
      <trkpt lat="44.88122" lon="5.33543">
        <ele>1554.9</ele>
        <time>2020-07-21T11:15:45.000Z</time>
      </trkpt>
      <trkpt lat="44.88115" lon="5.33534">
        <ele>1554.6</ele>
        <time>2020-07-21T11:15:52.000Z</time>
      </trkpt>
      <trkpt lat="44.88115" lon="5.33521">
        <ele>1554.8</ele>
        <time>2020-07-21T11:16:00.000Z</time>
      </trkpt>
      <trkpt lat="44.88113" lon="5.33508">
        <ele>1555.4</ele>
        <time>2020-07-21T11:16:08.000Z</time>
      </trkpt>
      <trkpt lat="44.8811" lon="5.33495">
        <ele>1555.3</ele>
        <time>2020-07-21T11:16:15.000Z</time>
      </trkpt>
      <trkpt lat="44.88111" lon="5.33482">
        <ele>1554.9</ele>
        <time>2020-07-21T11:16:22.000Z</time>
      </trkpt>
      <trkpt lat="44.88117" lon="5.33472">
        <ele>1554.5</ele>
        <time>2020-07-21T11:16:29.000Z</time>
      </trkpt>
      <trkpt lat="44.88123" lon="5.33464">
        <ele>1553.8</ele>
        <time>2020-07-21T11:16:36.000Z</time>
      </trkpt>
      <trkpt lat="44.88131" lon="5.33454">
        <ele>1552.4</ele>
        <time>2020-07-21T11:16:44.000Z</time>
      </trkpt>
      <trkpt lat="44.88137" lon="5.33443">
        <ele>1552.1</ele>
        <time>2020-07-21T11:16:52.000Z</time>
      </trkpt>
      <trkpt lat="44.88144" lon="5.33435">
        <ele>1551.7</ele>
        <time>2020-07-21T11:16:59.000Z</time>
      </trkpt>
      <trkpt lat="44.88151" lon="5.33425">
        <ele>1551</ele>
        <time>2020-07-21T11:17:07.000Z</time>
      </trkpt>
      <trkpt lat="44.88159" lon="5.33416">
        <ele>1550.6</ele>
        <time>2020-07-21T11:17:15.000Z</time>
      </trkpt>
      <trkpt lat="44.88166" lon="5.33407">
        <ele>1550.8</ele>
        <time>2020-07-21T11:17:23.000Z</time>
      </trkpt>
      <trkpt lat="44.8817" lon="5.33395">
        <ele>1550.8</ele>
        <time>2020-07-21T11:17:29.000Z</time>
      </trkpt>
      <trkpt lat="44.88167" lon="5.33383">
        <ele>1551.8</ele>
        <time>2020-07-21T11:17:37.000Z</time>
      </trkpt>
      <trkpt lat="44.88167" lon="5.3337">
        <ele>1553.1</ele>
        <time>2020-07-21T11:17:46.000Z</time>
      </trkpt>
      <trkpt lat="44.88172" lon="5.33357">
        <ele>1554.1</ele>
        <time>2020-07-21T11:17:55.000Z</time>
      </trkpt>
      <trkpt lat="44.88168" lon="5.33344">
        <ele>1552.5</ele>
        <time>2020-07-21T11:19:19.000Z</time>
      </trkpt>
      <trkpt lat="44.88165" lon="5.33331">
        <ele>1552.9</ele>
        <time>2020-07-21T11:19:28.000Z</time>
      </trkpt>
      <trkpt lat="44.88162" lon="5.33317">
        <ele>1554</ele>
        <time>2020-07-21T11:19:37.000Z</time>
      </trkpt>
      <trkpt lat="44.88155" lon="5.33309">
        <ele>1554.4</ele>
        <time>2020-07-21T11:19:44.000Z</time>
      </trkpt>
      <trkpt lat="44.88147" lon="5.333">
        <ele>1554.8</ele>
        <time>2020-07-21T11:19:53.000Z</time>
      </trkpt>
      <trkpt lat="44.88142" lon="5.33288">
        <ele>1554.9</ele>
        <time>2020-07-21T11:20:01.000Z</time>
      </trkpt>
      <trkpt lat="44.88137" lon="5.33277">
        <ele>1555.6</ele>
        <time>2020-07-21T11:20:09.000Z</time>
      </trkpt>
      <trkpt lat="44.88137" lon="5.33264">
        <ele>1552.8</ele>
        <time>2020-07-21T11:21:14.000Z</time>
      </trkpt>
      <trkpt lat="44.88145" lon="5.3327">
        <ele>1548.4</ele>
        <time>2020-07-21T11:23:02.000Z</time>
      </trkpt>
      <trkpt lat="44.88153" lon="5.3328">
        <ele>1547.9</ele>
        <time>2020-07-21T11:23:11.000Z</time>
      </trkpt>
      <trkpt lat="44.88162" lon="5.33285">
        <ele>1548.1</ele>
        <time>2020-07-21T11:23:19.000Z</time>
      </trkpt>
      <trkpt lat="44.88171" lon="5.3329">
        <ele>1548</ele>
        <time>2020-07-21T11:23:27.000Z</time>
      </trkpt>
      <trkpt lat="44.8818" lon="5.33295">
        <ele>1547.8</ele>
        <time>2020-07-21T11:23:35.000Z</time>
      </trkpt>
      <trkpt lat="44.8819" lon="5.33295">
        <ele>1547.5</ele>
        <time>2020-07-21T11:23:48.000Z</time>
      </trkpt>
      <trkpt lat="44.88199" lon="5.3329">
        <ele>1547.4</ele>
        <time>2020-07-21T11:23:56.000Z</time>
      </trkpt>
      <trkpt lat="44.88208" lon="5.33285">
        <ele>1547.2</ele>
        <time>2020-07-21T11:24:04.000Z</time>
      </trkpt>
      <trkpt lat="44.88218" lon="5.33279">
        <ele>1546.9</ele>
        <time>2020-07-21T11:24:10.000Z</time>
      </trkpt>
      <trkpt lat="44.88228" lon="5.33273">
        <ele>1546.6</ele>
        <time>2020-07-21T11:24:14.000Z</time>
      </trkpt>
      <trkpt lat="44.88237" lon="5.33265">
        <ele>1546.3</ele>
        <time>2020-07-21T11:24:18.000Z</time>
      </trkpt>
      <trkpt lat="44.88244" lon="5.33256">
        <ele>1546</ele>
        <time>2020-07-21T11:24:21.000Z</time>
      </trkpt>
      <trkpt lat="44.88252" lon="5.33245">
        <ele>1545.8</ele>
        <time>2020-07-21T11:24:24.000Z</time>
      </trkpt>
      <trkpt lat="44.88258" lon="5.33233">
        <ele>1545.6</ele>
        <time>2020-07-21T11:24:27.000Z</time>
      </trkpt>
      <trkpt lat="44.88266" lon="5.33225">
        <ele>1545.5</ele>
        <time>2020-07-21T11:24:30.000Z</time>
      </trkpt>
      <trkpt lat="44.88278" lon="5.33221">
        <ele>1545.4</ele>
        <time>2020-07-21T11:24:33.000Z</time>
      </trkpt>
      <trkpt lat="44.88287" lon="5.33212">
        <ele>1545.1</ele>
        <time>2020-07-21T11:24:36.000Z</time>
      </trkpt>
      <trkpt lat="44.88294" lon="5.33204">
        <ele>1544.8</ele>
        <time>2020-07-21T11:24:41.000Z</time>
      </trkpt>
      <trkpt lat="44.88297" lon="5.33191">
        <ele>1544.8</ele>
        <time>2020-07-21T11:24:48.000Z</time>
      </trkpt>
      <trkpt lat="44.88294" lon="5.33179">
        <ele>1545</ele>
        <time>2020-07-21T11:24:54.000Z</time>
      </trkpt>
      <trkpt lat="44.88288" lon="5.33169">
        <ele>1545.4</ele>
        <time>2020-07-21T11:25:01.000Z</time>
      </trkpt>
      <trkpt lat="44.88281" lon="5.33161">
        <ele>1545.7</ele>
        <time>2020-07-21T11:25:08.000Z</time>
      </trkpt>
      <trkpt lat="44.88273" lon="5.33152">
        <ele>1546</ele>
        <time>2020-07-21T11:25:16.000Z</time>
      </trkpt>
      <trkpt lat="44.88266" lon="5.33139">
        <ele>1545.7</ele>
        <time>2020-07-21T11:25:20.000Z</time>
      </trkpt>
      <trkpt lat="44.88259" lon="5.33126">
        <ele>1545.4</ele>
        <time>2020-07-21T11:25:23.000Z</time>
      </trkpt>
      <trkpt lat="44.88253" lon="5.33113">
        <ele>1545.2</ele>
        <time>2020-07-21T11:25:26.000Z</time>
      </trkpt>
      <trkpt lat="44.88247" lon="5.33103">
        <ele>1545</ele>
        <time>2020-07-21T11:25:29.000Z</time>
      </trkpt>
      <trkpt lat="44.8824" lon="5.33094">
        <ele>1544.8</ele>
        <time>2020-07-21T11:25:35.000Z</time>
      </trkpt>
      <trkpt lat="44.88236" lon="5.33081">
        <ele>1544.6</ele>
        <time>2020-07-21T11:25:55.000Z</time>
      </trkpt>
      <trkpt lat="44.8823" lon="5.33072">
        <ele>1544.6</ele>
        <time>2020-07-21T11:26:02.000Z</time>
      </trkpt>
      <trkpt lat="44.88226" lon="5.3306">
        <ele>1544.6</ele>
        <time>2020-07-21T11:26:09.000Z</time>
      </trkpt>
      <trkpt lat="44.88221" lon="5.33049">
        <ele>1544.4</ele>
        <time>2020-07-21T11:26:16.000Z</time>
      </trkpt>
      <trkpt lat="44.88219" lon="5.33036">
        <ele>1544.3</ele>
        <time>2020-07-21T11:26:24.000Z</time>
      </trkpt>
      <trkpt lat="44.88221" lon="5.33023">
        <ele>1544.1</ele>
        <time>2020-07-21T11:26:32.000Z</time>
      </trkpt>
      <trkpt lat="44.88229" lon="5.33015">
        <ele>1544</ele>
        <time>2020-07-21T11:26:39.000Z</time>
      </trkpt>
      <trkpt lat="44.88236" lon="5.33006">
        <ele>1543.1</ele>
        <time>2020-07-21T11:26:47.000Z</time>
      </trkpt>
      <trkpt lat="44.88233" lon="5.32993">
        <ele>1541.9</ele>
        <time>2020-07-21T11:26:55.000Z</time>
      </trkpt>
      <trkpt lat="44.88236" lon="5.3298">
        <ele>1539.5</ele>
        <time>2020-07-21T11:27:04.000Z</time>
      </trkpt>
      <trkpt lat="44.88239" lon="5.32968">
        <ele>1536.8</ele>
        <time>2020-07-21T11:27:12.000Z</time>
      </trkpt>
      <trkpt lat="44.88239" lon="5.32954">
        <ele>1533.4</ele>
        <time>2020-07-21T11:27:23.000Z</time>
      </trkpt>
      <trkpt lat="44.88239" lon="5.32941">
        <ele>1530.2</ele>
        <time>2020-07-21T11:27:34.000Z</time>
      </trkpt>
      <trkpt lat="44.88238" lon="5.32929">
        <ele>1527.7</ele>
        <time>2020-07-21T11:27:42.000Z</time>
      </trkpt>
      <trkpt lat="44.88244" lon="5.3292">
        <ele>1526.8</ele>
        <time>2020-07-21T11:27:48.000Z</time>
      </trkpt>
      <trkpt lat="44.88243" lon="5.32907">
        <ele>1527.1</ele>
        <time>2020-07-21T11:27:57.000Z</time>
      </trkpt>
      <trkpt lat="44.88234" lon="5.32903">
        <ele>1528.1</ele>
        <time>2020-07-21T11:28:05.000Z</time>
      </trkpt>
      <trkpt lat="44.88225" lon="5.32898">
        <ele>1528.9</ele>
        <time>2020-07-21T11:28:14.000Z</time>
      </trkpt>
      <trkpt lat="44.88216" lon="5.32893">
        <ele>1529.5</ele>
        <time>2020-07-21T11:28:22.000Z</time>
      </trkpt>
      <trkpt lat="44.88207" lon="5.32889">
        <ele>1529.8</ele>
        <time>2020-07-21T11:28:31.000Z</time>
      </trkpt>
      <trkpt lat="44.88199" lon="5.32883">
        <ele>1530.5</ele>
        <time>2020-07-21T11:28:39.000Z</time>
      </trkpt>
      <trkpt lat="44.88192" lon="5.32875">
        <ele>1531.4</ele>
        <time>2020-07-21T11:28:47.000Z</time>
      </trkpt>
      <trkpt lat="44.88184" lon="5.32869">
        <ele>1532.1</ele>
        <time>2020-07-21T11:28:55.000Z</time>
      </trkpt>
      <trkpt lat="44.88177" lon="5.32861">
        <ele>1533</ele>
        <time>2020-07-21T11:29:03.000Z</time>
      </trkpt>
      <trkpt lat="44.88168" lon="5.32856">
        <ele>1533.7</ele>
        <time>2020-07-21T11:29:12.000Z</time>
      </trkpt>
      <trkpt lat="44.88159" lon="5.32851">
        <ele>1534</ele>
        <time>2020-07-21T11:30:26.000Z</time>
      </trkpt>
      <trkpt lat="44.88154" lon="5.32839">
        <ele>1535.8</ele>
        <time>2020-07-21T11:30:36.000Z</time>
      </trkpt>
      <trkpt lat="44.88147" lon="5.32832">
        <ele>1537.1</ele>
        <time>2020-07-21T11:30:44.000Z</time>
      </trkpt>
      <trkpt lat="44.88138" lon="5.32828">
        <ele>1537.5</ele>
        <time>2020-07-21T11:30:52.000Z</time>
      </trkpt>
      <trkpt lat="44.88129" lon="5.32821">
        <ele>1537.8</ele>
        <time>2020-07-21T11:31:00.000Z</time>
      </trkpt>
      <trkpt lat="44.88121" lon="5.32815">
        <ele>1538.3</ele>
        <time>2020-07-21T11:31:08.000Z</time>
      </trkpt>
      <trkpt lat="44.88113" lon="5.32807">
        <ele>1538.3</ele>
        <time>2020-07-21T11:31:17.000Z</time>
      </trkpt>
      <trkpt lat="44.88105" lon="5.32798">
        <ele>1538.2</ele>
        <time>2020-07-21T11:31:25.000Z</time>
      </trkpt>
      <trkpt lat="44.88098" lon="5.32789">
        <ele>1538.2</ele>
        <time>2020-07-21T11:31:32.000Z</time>
      </trkpt>
      <trkpt lat="44.8809" lon="5.32781">
        <ele>1538.3</ele>
        <time>2020-07-21T11:31:40.000Z</time>
      </trkpt>
      <trkpt lat="44.88082" lon="5.32772">
        <ele>1538.5</ele>
        <time>2020-07-21T11:31:48.000Z</time>
      </trkpt>
      <trkpt lat="44.88076" lon="5.32764">
        <ele>1538.8</ele>
        <time>2020-07-21T11:31:55.000Z</time>
      </trkpt>
      <trkpt lat="44.88068" lon="5.32756">
        <ele>1539.5</ele>
        <time>2020-07-21T11:32:03.000Z</time>
      </trkpt>
      <trkpt lat="44.88062" lon="5.32745">
        <ele>1540.5</ele>
        <time>2020-07-21T11:32:12.000Z</time>
      </trkpt>
      <trkpt lat="44.88057" lon="5.32734">
        <ele>1540.9</ele>
        <time>2020-07-21T11:32:20.000Z</time>
      </trkpt>
      <trkpt lat="44.88052" lon="5.32723">
        <ele>1541.3</ele>
        <time>2020-07-21T11:32:28.000Z</time>
      </trkpt>
      <trkpt lat="44.88048" lon="5.3271">
        <ele>1541.6</ele>
        <time>2020-07-21T11:32:36.000Z</time>
      </trkpt>
      <trkpt lat="44.88045" lon="5.32697">
        <ele>1541.5</ele>
        <time>2020-07-21T11:32:44.000Z</time>
      </trkpt>
      <trkpt lat="44.88039" lon="5.32687">
        <ele>1541.5</ele>
        <time>2020-07-21T11:32:51.000Z</time>
      </trkpt>
      <trkpt lat="44.88033" lon="5.32676">
        <ele>1541.6</ele>
        <time>2020-07-21T11:32:58.000Z</time>
      </trkpt>
      <trkpt lat="44.88026" lon="5.32665">
        <ele>1541.7</ele>
        <time>2020-07-21T11:33:06.000Z</time>
      </trkpt>
      <trkpt lat="44.8802" lon="5.32656">
        <ele>1541.6</ele>
        <time>2020-07-21T11:33:14.000Z</time>
      </trkpt>
      <trkpt lat="44.88012" lon="5.32649">
        <ele>1541.8</ele>
        <time>2020-07-21T11:33:22.000Z</time>
      </trkpt>
      <trkpt lat="44.88004" lon="5.3264">
        <ele>1542.2</ele>
        <time>2020-07-21T11:33:31.000Z</time>
      </trkpt>
      <trkpt lat="44.87998" lon="5.32629">
        <ele>1542.7</ele>
        <time>2020-07-21T11:33:39.000Z</time>
      </trkpt>
      <trkpt lat="44.87998" lon="5.32615">
        <ele>1543.5</ele>
        <time>2020-07-21T11:33:48.000Z</time>
      </trkpt>
      <trkpt lat="44.87998" lon="5.32603">
        <ele>1544.5</ele>
        <time>2020-07-21T11:36:27.000Z</time>
      </trkpt>
      <trkpt lat="44.88002" lon="5.3259">
        <ele>1544.7</ele>
        <time>2020-07-21T11:36:49.000Z</time>
      </trkpt>
      <trkpt lat="44.88005" lon="5.32577">
        <ele>1544.6</ele>
        <time>2020-07-21T11:36:53.000Z</time>
      </trkpt>
      <trkpt lat="44.88011" lon="5.32566">
        <ele>1544.4</ele>
        <time>2020-07-21T11:36:57.000Z</time>
      </trkpt>
      <trkpt lat="44.88019" lon="5.3256">
        <ele>1544.3</ele>
        <time>2020-07-21T11:37:01.000Z</time>
      </trkpt>
      <trkpt lat="44.8803" lon="5.32555">
        <ele>1544.3</ele>
        <time>2020-07-21T11:37:05.000Z</time>
      </trkpt>
      <trkpt lat="44.88041" lon="5.3255">
        <ele>1544</ele>
        <time>2020-07-21T11:37:08.000Z</time>
      </trkpt>
      <trkpt lat="44.88051" lon="5.32547">
        <ele>1543.7</ele>
        <time>2020-07-21T11:37:10.000Z</time>
      </trkpt>
      <trkpt lat="44.88061" lon="5.32543">
        <ele>1543.6</ele>
        <time>2020-07-21T11:37:12.000Z</time>
      </trkpt>
      <trkpt lat="44.88071" lon="5.32539">
        <ele>1543.6</ele>
        <time>2020-07-21T11:37:14.000Z</time>
      </trkpt>
      <trkpt lat="44.8808" lon="5.32535">
        <ele>1543.5</ele>
        <time>2020-07-21T11:37:16.000Z</time>
      </trkpt>
      <trkpt lat="44.8809" lon="5.32531">
        <ele>1543.3</ele>
        <time>2020-07-21T11:37:18.000Z</time>
      </trkpt>
      <trkpt lat="44.881" lon="5.32528">
        <ele>1542.9</ele>
        <time>2020-07-21T11:37:20.000Z</time>
      </trkpt>
      <trkpt lat="44.8811" lon="5.32526">
        <ele>1542.6</ele>
        <time>2020-07-21T11:37:22.000Z</time>
      </trkpt>
      <trkpt lat="44.8812" lon="5.32524">
        <ele>1542.5</ele>
        <time>2020-07-21T11:37:24.000Z</time>
      </trkpt>
      <trkpt lat="44.88131" lon="5.32522">
        <ele>1542.2</ele>
        <time>2020-07-21T11:37:26.000Z</time>
      </trkpt>
      <trkpt lat="44.88141" lon="5.32519">
        <ele>1541.9</ele>
        <time>2020-07-21T11:37:28.000Z</time>
      </trkpt>
      <trkpt lat="44.88153" lon="5.32517">
        <ele>1541.7</ele>
        <time>2020-07-21T11:37:30.000Z</time>
      </trkpt>
      <trkpt lat="44.88164" lon="5.32515">
        <ele>1542</ele>
        <time>2020-07-21T11:37:32.000Z</time>
      </trkpt>
      <trkpt lat="44.88175" lon="5.32513">
        <ele>1542.4</ele>
        <time>2020-07-21T11:37:34.000Z</time>
      </trkpt>
      <trkpt lat="44.88186" lon="5.32513">
        <ele>1542.7</ele>
        <time>2020-07-21T11:37:36.000Z</time>
      </trkpt>
      <trkpt lat="44.88197" lon="5.32512">
        <ele>1542.9</ele>
        <time>2020-07-21T11:37:38.000Z</time>
      </trkpt>
      <trkpt lat="44.88209" lon="5.32512">
        <ele>1543</ele>
        <time>2020-07-21T11:37:40.000Z</time>
      </trkpt>
      <trkpt lat="44.88219" lon="5.32513">
        <ele>1543.1</ele>
        <time>2020-07-21T11:37:42.000Z</time>
      </trkpt>
      <trkpt lat="44.88229" lon="5.32515">
        <ele>1543.2</ele>
        <time>2020-07-21T11:37:44.000Z</time>
      </trkpt>
      <trkpt lat="44.88238" lon="5.32516">
        <ele>1543.3</ele>
        <time>2020-07-21T11:37:46.000Z</time>
      </trkpt>
      <trkpt lat="44.88248" lon="5.32516">
        <ele>1543.3</ele>
        <time>2020-07-21T11:37:48.000Z</time>
      </trkpt>
      <trkpt lat="44.88258" lon="5.32517">
        <ele>1543.4</ele>
        <time>2020-07-21T11:37:50.000Z</time>
      </trkpt>
      <trkpt lat="44.88269" lon="5.32517">
        <ele>1543.7</ele>
        <time>2020-07-21T11:37:52.000Z</time>
      </trkpt>
      <trkpt lat="44.88279" lon="5.32517">
        <ele>1544.1</ele>
        <time>2020-07-21T11:37:54.000Z</time>
      </trkpt>
      <trkpt lat="44.8829" lon="5.32517">
        <ele>1544.6</ele>
        <time>2020-07-21T11:37:56.000Z</time>
      </trkpt>
      <trkpt lat="44.883" lon="5.32517">
        <ele>1545.1</ele>
        <time>2020-07-21T11:37:58.000Z</time>
      </trkpt>
      <trkpt lat="44.8831" lon="5.32517">
        <ele>1545.5</ele>
        <time>2020-07-21T11:38:00.000Z</time>
      </trkpt>
      <trkpt lat="44.88319" lon="5.32515">
        <ele>1545.9</ele>
        <time>2020-07-21T11:38:02.000Z</time>
      </trkpt>
      <trkpt lat="44.88329" lon="5.32514">
        <ele>1546.2</ele>
        <time>2020-07-21T11:38:04.000Z</time>
      </trkpt>
      <trkpt lat="44.88338" lon="5.32513">
        <ele>1546.6</ele>
        <time>2020-07-21T11:38:06.000Z</time>
      </trkpt>
      <trkpt lat="44.88347" lon="5.3251">
        <ele>1546.8</ele>
        <time>2020-07-21T11:38:08.000Z</time>
      </trkpt>
      <trkpt lat="44.88359" lon="5.32502">
        <ele>1547.3</ele>
        <time>2020-07-21T11:38:11.000Z</time>
      </trkpt>
      <trkpt lat="44.88367" lon="5.32496">
        <ele>1548.1</ele>
        <time>2020-07-21T11:38:14.000Z</time>
      </trkpt>
      <trkpt lat="44.88376" lon="5.32496">
        <ele>1548.8</ele>
        <time>2020-07-21T11:38:21.000Z</time>
      </trkpt>
      <trkpt lat="44.88385" lon="5.32496">
        <ele>1549</ele>
        <time>2020-07-21T11:38:28.000Z</time>
      </trkpt>
      <trkpt lat="44.88394" lon="5.32497">
        <ele>1548.8</ele>
        <time>2020-07-21T11:38:35.000Z</time>
      </trkpt>
      <trkpt lat="44.88404" lon="5.32499">
        <ele>1548.6</ele>
        <time>2020-07-21T11:38:43.000Z</time>
      </trkpt>
      <trkpt lat="44.88411" lon="5.32509">
        <ele>1548.7</ele>
        <time>2020-07-21T11:38:52.000Z</time>
      </trkpt>
      <trkpt lat="44.88419" lon="5.32517">
        <ele>1549</ele>
        <time>2020-07-21T11:39:00.000Z</time>
      </trkpt>
      <trkpt lat="44.88417" lon="5.32504">
        <ele>1548.6</ele>
        <time>2020-07-21T11:40:44.000Z</time>
      </trkpt>
      <trkpt lat="44.88411" lon="5.32494">
        <ele>1549</ele>
        <time>2020-07-21T11:40:53.000Z</time>
      </trkpt>
      <trkpt lat="44.88401" lon="5.32488">
        <ele>1549.1</ele>
        <time>2020-07-21T11:40:59.000Z</time>
      </trkpt>
      <trkpt lat="44.88393" lon="5.3248">
        <ele>1548.7</ele>
        <time>2020-07-21T11:41:06.000Z</time>
      </trkpt>
      <trkpt lat="44.88386" lon="5.3247">
        <ele>1547.9</ele>
        <time>2020-07-21T11:41:31.000Z</time>
      </trkpt>
      <trkpt lat="44.88381" lon="5.3246">
        <ele>1547.1</ele>
        <time>2020-07-21T11:42:04.000Z</time>
      </trkpt>
      <trkpt lat="44.8838" lon="5.32446">
        <ele>1546.7</ele>
        <time>2020-07-21T11:42:13.000Z</time>
      </trkpt>
      <trkpt lat="44.88385" lon="5.32435">
        <ele>1546.2</ele>
        <time>2020-07-21T11:42:21.000Z</time>
      </trkpt>
      <trkpt lat="44.88389" lon="5.32421">
        <ele>1545.4</ele>
        <time>2020-07-21T11:42:29.000Z</time>
      </trkpt>
      <trkpt lat="44.88389" lon="5.32407">
        <ele>1544.8</ele>
        <time>2020-07-21T11:42:37.000Z</time>
      </trkpt>
      <trkpt lat="44.88388" lon="5.32394">
        <ele>1544.4</ele>
        <time>2020-07-21T11:42:45.000Z</time>
      </trkpt>
      <trkpt lat="44.88388" lon="5.32382">
        <ele>1544.3</ele>
        <time>2020-07-21T11:42:53.000Z</time>
      </trkpt>
      <trkpt lat="44.8839" lon="5.32369">
        <ele>1544.3</ele>
        <time>2020-07-21T11:43:01.000Z</time>
      </trkpt>
      <trkpt lat="44.88394" lon="5.32356">
        <ele>1544.5</ele>
        <time>2020-07-21T11:43:09.000Z</time>
      </trkpt>
      <trkpt lat="44.88398" lon="5.32344">
        <ele>1544.1</ele>
        <time>2020-07-21T11:43:16.000Z</time>
      </trkpt>
      <trkpt lat="44.88403" lon="5.32331">
        <ele>1543.6</ele>
        <time>2020-07-21T11:43:24.000Z</time>
      </trkpt>
      <trkpt lat="44.88413" lon="5.32332">
        <ele>1543.2</ele>
        <time>2020-07-21T11:43:40.000Z</time>
      </trkpt>
      <trkpt lat="44.88423" lon="5.32331">
        <ele>1545.2</ele>
        <time>2020-07-21T11:43:52.000Z</time>
      </trkpt>
      <trkpt lat="44.8843" lon="5.32322">
        <ele>1548.7</ele>
        <time>2020-07-21T11:44:02.000Z</time>
      </trkpt>
      <trkpt lat="44.88439" lon="5.32318">
        <ele>1551.3</ele>
        <time>2020-07-21T11:44:14.000Z</time>
      </trkpt>
      <trkpt lat="44.88448" lon="5.32314">
        <ele>1553.3</ele>
        <time>2020-07-21T11:44:35.000Z</time>
      </trkpt>
      <trkpt lat="44.88458" lon="5.32312">
        <ele>1552.8</ele>
        <time>2020-07-21T11:44:44.000Z</time>
      </trkpt>
      <trkpt lat="44.88465" lon="5.323">
        <ele>1552.3</ele>
        <time>2020-07-21T11:44:51.000Z</time>
      </trkpt>
      <trkpt lat="44.88469" lon="5.32288">
        <ele>1552.2</ele>
        <time>2020-07-21T11:44:58.000Z</time>
      </trkpt>
      <trkpt lat="44.88474" lon="5.32278">
        <ele>1552.2</ele>
        <time>2020-07-21T11:45:05.000Z</time>
      </trkpt>
      <trkpt lat="44.88481" lon="5.32268">
        <ele>1553.3</ele>
        <time>2020-07-21T11:46:48.000Z</time>
      </trkpt>
      <trkpt lat="44.8849" lon="5.32266">
        <ele>1552.2</ele>
        <time>2020-07-21T11:46:57.000Z</time>
      </trkpt>
      <trkpt lat="44.88498" lon="5.32259">
        <ele>1552.1</ele>
        <time>2020-07-21T11:47:02.000Z</time>
      </trkpt>
      <trkpt lat="44.88506" lon="5.32251">
        <ele>1551.8</ele>
        <time>2020-07-21T11:47:09.000Z</time>
      </trkpt>
      <trkpt lat="44.88513" lon="5.32242">
        <ele>1551.4</ele>
        <time>2020-07-21T11:47:17.000Z</time>
      </trkpt>
      <trkpt lat="44.88521" lon="5.32235">
        <ele>1550.9</ele>
        <time>2020-07-21T11:47:24.000Z</time>
      </trkpt>
      <trkpt lat="44.88529" lon="5.32228">
        <ele>1549.9</ele>
        <time>2020-07-21T11:47:32.000Z</time>
      </trkpt>
      <trkpt lat="44.88538" lon="5.32223">
        <ele>1549.2</ele>
        <time>2020-07-21T11:47:39.000Z</time>
      </trkpt>
      <trkpt lat="44.88545" lon="5.32215">
        <ele>1548.1</ele>
        <time>2020-07-21T11:47:46.000Z</time>
      </trkpt>
      <trkpt lat="44.88553" lon="5.32209">
        <ele>1547.6</ele>
        <time>2020-07-21T11:47:53.000Z</time>
      </trkpt>
      <trkpt lat="44.88562" lon="5.32201">
        <ele>1546.9</ele>
        <time>2020-07-21T11:48:00.000Z</time>
      </trkpt>
      <trkpt lat="44.88571" lon="5.32193">
        <ele>1547</ele>
        <time>2020-07-21T11:48:03.000Z</time>
      </trkpt>
      <trkpt lat="44.8858" lon="5.32183">
        <ele>1546.7</ele>
        <time>2020-07-21T11:48:06.000Z</time>
      </trkpt>
      <trkpt lat="44.88589" lon="5.32174">
        <ele>1546.6</ele>
        <time>2020-07-21T11:48:09.000Z</time>
      </trkpt>
      <trkpt lat="44.88597" lon="5.32165">
        <ele>1546.3</ele>
        <time>2020-07-21T11:48:12.000Z</time>
      </trkpt>
      <trkpt lat="44.88606" lon="5.32159">
        <ele>1546.3</ele>
        <time>2020-07-21T11:48:15.000Z</time>
      </trkpt>
      <trkpt lat="44.88615" lon="5.32153">
        <ele>1546.4</ele>
        <time>2020-07-21T11:48:18.000Z</time>
      </trkpt>
      <trkpt lat="44.88627" lon="5.32152">
        <ele>1546.7</ele>
        <time>2020-07-21T11:48:22.000Z</time>
      </trkpt>
      <trkpt lat="44.88637" lon="5.32151">
        <ele>1547</ele>
        <time>2020-07-21T11:48:25.000Z</time>
      </trkpt>
      <trkpt lat="44.88645" lon="5.32147">
        <ele>1546.9</ele>
        <time>2020-07-21T11:48:28.000Z</time>
      </trkpt>
      <trkpt lat="44.88654" lon="5.32144">
        <ele>1547</ele>
        <time>2020-07-21T11:48:32.000Z</time>
      </trkpt>
      <trkpt lat="44.88664" lon="5.32142">
        <ele>1546.8</ele>
        <time>2020-07-21T11:48:36.000Z</time>
      </trkpt>
      <trkpt lat="44.88675" lon="5.32141">
        <ele>1546.6</ele>
        <time>2020-07-21T11:48:39.000Z</time>
      </trkpt>
      <trkpt lat="44.88686" lon="5.32144">
        <ele>1546.3</ele>
        <time>2020-07-21T11:48:42.000Z</time>
      </trkpt>
      <trkpt lat="44.88698" lon="5.32145">
        <ele>1545.9</ele>
        <time>2020-07-21T11:48:46.000Z</time>
      </trkpt>
      <trkpt lat="44.88709" lon="5.32147">
        <ele>1545.7</ele>
        <time>2020-07-21T11:48:50.000Z</time>
      </trkpt>
      <trkpt lat="44.88721" lon="5.32146">
        <ele>1545.3</ele>
        <time>2020-07-21T11:48:54.000Z</time>
      </trkpt>
      <trkpt lat="44.8873" lon="5.32143">
        <ele>1544.9</ele>
        <time>2020-07-21T11:49:04.000Z</time>
      </trkpt>
      <trkpt lat="44.88739" lon="5.32145">
        <ele>1544.3</ele>
        <time>2020-07-21T11:49:11.000Z</time>
      </trkpt>
      <trkpt lat="44.88744" lon="5.32135">
        <ele>1541.6</ele>
        <time>2020-07-21T11:50:38.000Z</time>
      </trkpt>
      <trkpt lat="44.88754" lon="5.32133">
        <ele>1541</ele>
        <time>2020-07-21T11:50:50.000Z</time>
      </trkpt>
      <trkpt lat="44.8876" lon="5.32144">
        <ele>1540.7</ele>
        <time>2020-07-21T11:50:59.000Z</time>
      </trkpt>
      <trkpt lat="44.88768" lon="5.32151">
        <ele>1540.1</ele>
        <time>2020-07-21T11:51:07.000Z</time>
      </trkpt>
      <trkpt lat="44.88777" lon="5.32156">
        <ele>1539</ele>
        <time>2020-07-21T11:51:16.000Z</time>
      </trkpt>
      <trkpt lat="44.88786" lon="5.32159">
        <ele>1537.7</ele>
        <time>2020-07-21T11:51:23.000Z</time>
      </trkpt>
      <trkpt lat="44.88795" lon="5.32163">
        <ele>1536</ele>
        <time>2020-07-21T11:51:50.000Z</time>
      </trkpt>
      <trkpt lat="44.88803" lon="5.32156">
        <ele>1535.6</ele>
        <time>2020-07-21T11:51:59.000Z</time>
      </trkpt>
      <trkpt lat="44.8881" lon="5.32147">
        <ele>1535</ele>
        <time>2020-07-21T11:52:08.000Z</time>
      </trkpt>
      <trkpt lat="44.8882" lon="5.32149">
        <ele>1534</ele>
        <time>2020-07-21T11:52:17.000Z</time>
      </trkpt>
      <trkpt lat="44.88829" lon="5.32146">
        <ele>1533</ele>
        <time>2020-07-21T11:52:26.000Z</time>
      </trkpt>
      <trkpt lat="44.88839" lon="5.32145">
        <ele>1532.1</ele>
        <time>2020-07-21T11:52:34.000Z</time>
      </trkpt>
      <trkpt lat="44.88848" lon="5.32149">
        <ele>1531.5</ele>
        <time>2020-07-21T11:52:42.000Z</time>
      </trkpt>
      <trkpt lat="44.88855" lon="5.32159">
        <ele>1531</ele>
        <time>2020-07-21T11:52:50.000Z</time>
      </trkpt>
      <trkpt lat="44.88856" lon="5.32173">
        <ele>1530.6</ele>
        <time>2020-07-21T11:53:01.000Z</time>
      </trkpt>
      <trkpt lat="44.88854" lon="5.32186">
        <ele>1530.2</ele>
        <time>2020-07-21T11:53:10.000Z</time>
      </trkpt>
      <trkpt lat="44.88856" lon="5.322">
        <ele>1529.4</ele>
        <time>2020-07-21T11:53:18.000Z</time>
      </trkpt>
      <trkpt lat="44.88865" lon="5.32204">
        <ele>1528.2</ele>
        <time>2020-07-21T11:53:25.000Z</time>
      </trkpt>
      <trkpt lat="44.88875" lon="5.32204">
        <ele>1527.1</ele>
        <time>2020-07-21T11:53:32.000Z</time>
      </trkpt>
      <trkpt lat="44.88884" lon="5.32203">
        <ele>1526.3</ele>
        <time>2020-07-21T11:53:39.000Z</time>
      </trkpt>
      <trkpt lat="44.88892" lon="5.322">
        <ele>1525.6</ele>
        <time>2020-07-21T11:53:46.000Z</time>
      </trkpt>
      <trkpt lat="44.88903" lon="5.32199">
        <ele>1525</ele>
        <time>2020-07-21T11:53:54.000Z</time>
      </trkpt>
      <trkpt lat="44.88913" lon="5.32198">
        <ele>1524.3</ele>
        <time>2020-07-21T11:54:02.000Z</time>
      </trkpt>
      <trkpt lat="44.88922" lon="5.322">
        <ele>1523.8</ele>
        <time>2020-07-21T11:54:10.000Z</time>
      </trkpt>
      <trkpt lat="44.88932" lon="5.32202">
        <ele>1523.5</ele>
        <time>2020-07-21T11:54:17.000Z</time>
      </trkpt>
      <trkpt lat="44.88941" lon="5.32206">
        <ele>1522.9</ele>
        <time>2020-07-21T11:54:25.000Z</time>
      </trkpt>
      <trkpt lat="44.88951" lon="5.32211">
        <ele>1522.6</ele>
        <time>2020-07-21T11:54:33.000Z</time>
      </trkpt>
      <trkpt lat="44.8896" lon="5.32209">
        <ele>1521.8</ele>
        <time>2020-07-21T11:54:44.000Z</time>
      </trkpt>
      <trkpt lat="44.8897" lon="5.32206">
        <ele>1520.9</ele>
        <time>2020-07-21T11:54:52.000Z</time>
      </trkpt>
      <trkpt lat="44.88979" lon="5.32206">
        <ele>1520.1</ele>
        <time>2020-07-21T11:55:00.000Z</time>
      </trkpt>
      <trkpt lat="44.88989" lon="5.32209">
        <ele>1519.5</ele>
        <time>2020-07-21T11:55:08.000Z</time>
      </trkpt>
      <trkpt lat="44.88999" lon="5.3221">
        <ele>1518.7</ele>
        <time>2020-07-21T11:55:16.000Z</time>
      </trkpt>
      <trkpt lat="44.89008" lon="5.32213">
        <ele>1517.9</ele>
        <time>2020-07-21T11:55:23.000Z</time>
      </trkpt>
      <trkpt lat="44.89017" lon="5.32219">
        <ele>1517.2</ele>
        <time>2020-07-21T11:55:30.000Z</time>
      </trkpt>
      <trkpt lat="44.89025" lon="5.32225">
        <ele>1516.7</ele>
        <time>2020-07-21T11:55:37.000Z</time>
      </trkpt>
      <trkpt lat="44.89034" lon="5.32229">
        <ele>1516.1</ele>
        <time>2020-07-21T11:55:44.000Z</time>
      </trkpt>
      <trkpt lat="44.89042" lon="5.32236">
        <ele>1515.7</ele>
        <time>2020-07-21T11:55:51.000Z</time>
      </trkpt>
      <trkpt lat="44.89051" lon="5.32242">
        <ele>1515.5</ele>
        <time>2020-07-21T11:55:58.000Z</time>
      </trkpt>
      <trkpt lat="44.89059" lon="5.32248">
        <ele>1515.1</ele>
        <time>2020-07-21T11:56:05.000Z</time>
      </trkpt>
      <trkpt lat="44.89068" lon="5.3225">
        <ele>1514.7</ele>
        <time>2020-07-21T11:56:12.000Z</time>
      </trkpt>
      <trkpt lat="44.89076" lon="5.32258">
        <ele>1514.2</ele>
        <time>2020-07-21T11:56:20.000Z</time>
      </trkpt>
      <trkpt lat="44.89084" lon="5.32266">
        <ele>1513.8</ele>
        <time>2020-07-21T11:56:27.000Z</time>
      </trkpt>
      <trkpt lat="44.89092" lon="5.32273">
        <ele>1513.3</ele>
        <time>2020-07-21T11:56:34.000Z</time>
      </trkpt>
      <trkpt lat="44.89099" lon="5.32283">
        <ele>1512.8</ele>
        <time>2020-07-21T11:56:41.000Z</time>
      </trkpt>
      <trkpt lat="44.89107" lon="5.32289">
        <ele>1512.1</ele>
        <time>2020-07-21T11:56:48.000Z</time>
      </trkpt>
      <trkpt lat="44.89116" lon="5.32295">
        <ele>1511.4</ele>
        <time>2020-07-21T11:56:55.000Z</time>
      </trkpt>
      <trkpt lat="44.89125" lon="5.32301">
        <ele>1510.6</ele>
        <time>2020-07-21T11:57:03.000Z</time>
      </trkpt>
      <trkpt lat="44.89133" lon="5.3231">
        <ele>1510</ele>
        <time>2020-07-21T11:57:11.000Z</time>
      </trkpt>
      <trkpt lat="44.89141" lon="5.32316">
        <ele>1509.4</ele>
        <time>2020-07-21T11:57:18.000Z</time>
      </trkpt>
      <trkpt lat="44.89151" lon="5.32317">
        <ele>1509</ele>
        <time>2020-07-21T11:57:26.000Z</time>
      </trkpt>
      <trkpt lat="44.89161" lon="5.32316">
        <ele>1508.5</ele>
        <time>2020-07-21T11:57:34.000Z</time>
      </trkpt>
      <trkpt lat="44.89171" lon="5.32312">
        <ele>1508</ele>
        <time>2020-07-21T11:57:42.000Z</time>
      </trkpt>
      <trkpt lat="44.8918" lon="5.32309">
        <ele>1507.2</ele>
        <time>2020-07-21T11:57:49.000Z</time>
      </trkpt>
      <trkpt lat="44.89189" lon="5.32304">
        <ele>1506.5</ele>
        <time>2020-07-21T11:57:56.000Z</time>
      </trkpt>
      <trkpt lat="44.89197" lon="5.32299">
        <ele>1506</ele>
        <time>2020-07-21T11:58:03.000Z</time>
      </trkpt>
      <trkpt lat="44.89203" lon="5.3229">
        <ele>1505.3</ele>
        <time>2020-07-21T11:58:11.000Z</time>
      </trkpt>
      <trkpt lat="44.8921" lon="5.32279">
        <ele>1505</ele>
        <time>2020-07-21T11:58:19.000Z</time>
      </trkpt>
      <trkpt lat="44.89215" lon="5.32269">
        <ele>1504.7</ele>
        <time>2020-07-21T11:58:26.000Z</time>
      </trkpt>
      <trkpt lat="44.89218" lon="5.32256">
        <ele>1504.1</ele>
        <time>2020-07-21T11:58:34.000Z</time>
      </trkpt>
      <trkpt lat="44.89223" lon="5.32244">
        <ele>1503.1</ele>
        <time>2020-07-21T11:58:43.000Z</time>
      </trkpt>
      <trkpt lat="44.89226" lon="5.32232">
        <ele>1502.1</ele>
        <time>2020-07-21T11:58:51.000Z</time>
      </trkpt>
      <trkpt lat="44.89233" lon="5.32222">
        <ele>1501.3</ele>
        <time>2020-07-21T11:58:59.000Z</time>
      </trkpt>
      <trkpt lat="44.89241" lon="5.32212">
        <ele>1500.3</ele>
        <time>2020-07-21T11:59:07.000Z</time>
      </trkpt>
      <trkpt lat="44.89248" lon="5.32203">
        <ele>1498.9</ele>
        <time>2020-07-21T11:59:16.000Z</time>
      </trkpt>
      <trkpt lat="44.89257" lon="5.32202">
        <ele>1498.2</ele>
        <time>2020-07-21T12:00:03.000Z</time>
      </trkpt>
      <trkpt lat="44.89265" lon="5.32193">
        <ele>1498.3</ele>
        <time>2020-07-21T12:00:12.000Z</time>
      </trkpt>
      <trkpt lat="44.89274" lon="5.32189">
        <ele>1497.5</ele>
        <time>2020-07-21T12:00:19.000Z</time>
      </trkpt>
      <trkpt lat="44.89281" lon="5.32181">
        <ele>1496.7</ele>
        <time>2020-07-21T12:00:26.000Z</time>
      </trkpt>
      <trkpt lat="44.89291" lon="5.32175">
        <ele>1495</ele>
        <time>2020-07-21T12:01:46.000Z</time>
      </trkpt>
      <trkpt lat="44.893" lon="5.32171">
        <ele>1495</ele>
        <time>2020-07-21T12:01:55.000Z</time>
      </trkpt>
      <trkpt lat="44.89304" lon="5.32158">
        <ele>1495.6</ele>
        <time>2020-07-21T12:02:15.000Z</time>
      </trkpt>
      <trkpt lat="44.89313" lon="5.32159">
        <ele>1496.1</ele>
        <time>2020-07-21T12:02:24.000Z</time>
      </trkpt>
      <trkpt lat="44.89323" lon="5.32165">
        <ele>1496.7</ele>
        <time>2020-07-21T12:02:33.000Z</time>
      </trkpt>
      <trkpt lat="44.89331" lon="5.32169">
        <ele>1497.1</ele>
        <time>2020-07-21T12:02:41.000Z</time>
      </trkpt>
      <trkpt lat="44.8934" lon="5.32175">
        <ele>1497</ele>
        <time>2020-07-21T12:02:48.000Z</time>
      </trkpt>
      <trkpt lat="44.89348" lon="5.32183">
        <ele>1497</ele>
        <time>2020-07-21T12:02:56.000Z</time>
      </trkpt>
      <trkpt lat="44.89356" lon="5.32188">
        <ele>1497</ele>
        <time>2020-07-21T12:03:04.000Z</time>
      </trkpt>
      <trkpt lat="44.89365" lon="5.32192">
        <ele>1497.2</ele>
        <time>2020-07-21T12:03:13.000Z</time>
      </trkpt>
      <trkpt lat="44.89374" lon="5.32198">
        <ele>1497.5</ele>
        <time>2020-07-21T12:03:22.000Z</time>
      </trkpt>
      <trkpt lat="44.89383" lon="5.32204">
        <ele>1496.9</ele>
        <time>2020-07-21T12:03:30.000Z</time>
      </trkpt>
      <trkpt lat="44.89392" lon="5.3221">
        <ele>1496</ele>
        <time>2020-07-21T12:03:38.000Z</time>
      </trkpt>
      <trkpt lat="44.89401" lon="5.32216">
        <ele>1495.8</ele>
        <time>2020-07-21T12:03:47.000Z</time>
      </trkpt>
      <trkpt lat="44.89411" lon="5.32218">
        <ele>1495.7</ele>
        <time>2020-07-21T12:03:55.000Z</time>
      </trkpt>
      <trkpt lat="44.8942" lon="5.32217">
        <ele>1495.3</ele>
        <time>2020-07-21T12:04:02.000Z</time>
      </trkpt>
      <trkpt lat="44.89429" lon="5.32215">
        <ele>1494.8</ele>
        <time>2020-07-21T12:04:10.000Z</time>
      </trkpt>
      <trkpt lat="44.89439" lon="5.32215">
        <ele>1494.1</ele>
        <time>2020-07-21T12:04:19.000Z</time>
      </trkpt>
      <trkpt lat="44.89447" lon="5.32222">
        <ele>1493.1</ele>
        <time>2020-07-21T12:04:29.000Z</time>
      </trkpt>
      <trkpt lat="44.89451" lon="5.3221">
        <ele>1492</ele>
        <time>2020-07-21T12:04:44.000Z</time>
      </trkpt>
      <trkpt lat="44.89451" lon="5.32196">
        <ele>1492</ele>
        <time>2020-07-21T12:05:13.000Z</time>
      </trkpt>
      <trkpt lat="44.89457" lon="5.32186">
        <ele>1491</ele>
        <time>2020-07-21T12:05:26.000Z</time>
      </trkpt>
      <trkpt lat="44.89464" lon="5.32177">
        <ele>1489.8</ele>
        <time>2020-07-21T12:06:00.000Z</time>
      </trkpt>
      <trkpt lat="44.89472" lon="5.3217">
        <ele>1489.3</ele>
        <time>2020-07-21T12:06:13.000Z</time>
      </trkpt>
      <trkpt lat="44.89481" lon="5.32171">
        <ele>1486.1</ele>
        <time>2020-07-21T12:07:12.000Z</time>
      </trkpt>
      <trkpt lat="44.89485" lon="5.3216">
        <ele>1486.1</ele>
        <time>2020-07-21T12:07:37.000Z</time>
      </trkpt>
      <trkpt lat="44.89482" lon="5.32147">
        <ele>1486.5</ele>
        <time>2020-07-21T12:07:49.000Z</time>
      </trkpt>
      <trkpt lat="44.89487" lon="5.32135">
        <ele>1487.4</ele>
        <time>2020-07-21T12:08:01.000Z</time>
      </trkpt>
      <trkpt lat="44.89493" lon="5.32125">
        <ele>1487.1</ele>
        <time>2020-07-21T12:08:12.000Z</time>
      </trkpt>
      <trkpt lat="44.89499" lon="5.32115">
        <ele>1485.7</ele>
        <time>2020-07-21T12:08:23.000Z</time>
      </trkpt>
      <trkpt lat="44.89505" lon="5.32105">
        <ele>1484.8</ele>
        <time>2020-07-21T12:08:32.000Z</time>
      </trkpt>
      <trkpt lat="44.89503" lon="5.32091">
        <ele>1484.2</ele>
        <time>2020-07-21T12:08:41.000Z</time>
      </trkpt>
      <trkpt lat="44.89506" lon="5.32078">
        <ele>1482.3</ele>
        <time>2020-07-21T12:08:53.000Z</time>
      </trkpt>
      <trkpt lat="44.89515" lon="5.32075">
        <ele>1476.8</ele>
        <time>2020-07-21T12:09:25.000Z</time>
      </trkpt>
      <trkpt lat="44.89523" lon="5.32066">
        <ele>1476.5</ele>
        <time>2020-07-21T12:09:34.000Z</time>
      </trkpt>
      <trkpt lat="44.89532" lon="5.32062">
        <ele>1475.5</ele>
        <time>2020-07-21T12:09:43.000Z</time>
      </trkpt>
      <trkpt lat="44.8954" lon="5.32055">
        <ele>1472.4</ele>
        <time>2020-07-21T12:10:27.000Z</time>
      </trkpt>
      <trkpt lat="44.89543" lon="5.32042">
        <ele>1472.2</ele>
        <time>2020-07-21T12:10:36.000Z</time>
      </trkpt>
      <trkpt lat="44.8954" lon="5.32029">
        <ele>1471.5</ele>
        <time>2020-07-21T12:10:44.000Z</time>
      </trkpt>
      <trkpt lat="44.89542" lon="5.32016">
        <ele>1470.8</ele>
        <time>2020-07-21T12:10:52.000Z</time>
      </trkpt>
      <trkpt lat="44.89542" lon="5.32002">
        <ele>1469.6</ele>
        <time>2020-07-21T12:11:00.000Z</time>
      </trkpt>
      <trkpt lat="44.89542" lon="5.31989">
        <ele>1468.8</ele>
        <time>2020-07-21T12:11:08.000Z</time>
      </trkpt>
      <trkpt lat="44.89547" lon="5.31978">
        <ele>1468.9</ele>
        <time>2020-07-21T12:11:20.000Z</time>
      </trkpt>
      <trkpt lat="44.89556" lon="5.31974">
        <ele>1468.9</ele>
        <time>2020-07-21T12:11:29.000Z</time>
      </trkpt>
      <trkpt lat="44.89566" lon="5.31971">
        <ele>1468.5</ele>
        <time>2020-07-21T12:11:38.000Z</time>
      </trkpt>
      <trkpt lat="44.89575" lon="5.31966">
        <ele>1467.9</ele>
        <time>2020-07-21T12:11:46.000Z</time>
      </trkpt>
      <trkpt lat="44.89585" lon="5.31961">
        <ele>1467.3</ele>
        <time>2020-07-21T12:11:55.000Z</time>
      </trkpt>
      <trkpt lat="44.89595" lon="5.31959">
        <ele>1466.3</ele>
        <time>2020-07-21T12:12:03.000Z</time>
      </trkpt>
      <trkpt lat="44.89605" lon="5.31959">
        <ele>1465.4</ele>
        <time>2020-07-21T12:12:11.000Z</time>
      </trkpt>
      <trkpt lat="44.89615" lon="5.3196">
        <ele>1464.7</ele>
        <time>2020-07-21T12:12:19.000Z</time>
      </trkpt>
      <trkpt lat="44.89625" lon="5.31962">
        <ele>1464.3</ele>
        <time>2020-07-21T12:12:27.000Z</time>
      </trkpt>
      <trkpt lat="44.89634" lon="5.31962">
        <ele>1463.7</ele>
        <time>2020-07-21T12:12:35.000Z</time>
      </trkpt>
      <trkpt lat="44.89643" lon="5.31962">
        <ele>1463</ele>
        <time>2020-07-21T12:12:43.000Z</time>
      </trkpt>
      <trkpt lat="44.89653" lon="5.31962">
        <ele>1462.5</ele>
        <time>2020-07-21T12:12:52.000Z</time>
      </trkpt>
      <trkpt lat="44.89662" lon="5.31966">
        <ele>1462</ele>
        <time>2020-07-21T12:13:00.000Z</time>
      </trkpt>
      <trkpt lat="44.89671" lon="5.31967">
        <ele>1461.5</ele>
        <time>2020-07-21T12:13:08.000Z</time>
      </trkpt>
      <trkpt lat="44.89682" lon="5.31967">
        <ele>1460.8</ele>
        <time>2020-07-21T12:13:16.000Z</time>
      </trkpt>
      <trkpt lat="44.89691" lon="5.31967">
        <ele>1460.4</ele>
        <time>2020-07-21T12:13:23.000Z</time>
      </trkpt>
      <trkpt lat="44.89701" lon="5.31969">
        <ele>1459.9</ele>
        <time>2020-07-21T12:13:31.000Z</time>
      </trkpt>
      <trkpt lat="44.8971" lon="5.31969">
        <ele>1459.5</ele>
        <time>2020-07-21T12:13:38.000Z</time>
      </trkpt>
      <trkpt lat="44.89719" lon="5.31971">
        <ele>1458.9</ele>
        <time>2020-07-21T12:13:45.000Z</time>
      </trkpt>
      <trkpt lat="44.89728" lon="5.31974">
        <ele>1458.5</ele>
        <time>2020-07-21T12:13:52.000Z</time>
      </trkpt>
      <trkpt lat="44.89737" lon="5.31975">
        <ele>1457.1</ele>
        <time>2020-07-21T12:14:27.000Z</time>
      </trkpt>
      <trkpt lat="44.89747" lon="5.3198">
        <ele>1457.1</ele>
        <time>2020-07-21T12:14:35.000Z</time>
      </trkpt>
      <trkpt lat="44.89754" lon="5.31989">
        <ele>1457</ele>
        <time>2020-07-21T12:14:42.000Z</time>
      </trkpt>
      <trkpt lat="44.89759" lon="5.32">
        <ele>1457</ele>
        <time>2020-07-21T12:14:50.000Z</time>
      </trkpt>
      <trkpt lat="44.89764" lon="5.32011">
        <ele>1456.4</ele>
        <time>2020-07-21T12:14:58.000Z</time>
      </trkpt>
      <trkpt lat="44.89771" lon="5.32019">
        <ele>1456.1</ele>
        <time>2020-07-21T12:15:06.000Z</time>
      </trkpt>
      <trkpt lat="44.89779" lon="5.32026">
        <ele>1455.8</ele>
        <time>2020-07-21T12:15:14.000Z</time>
      </trkpt>
      <trkpt lat="44.89786" lon="5.32035">
        <ele>1455.2</ele>
        <time>2020-07-21T12:15:22.000Z</time>
      </trkpt>
      <trkpt lat="44.89794" lon="5.32045">
        <ele>1454.9</ele>
        <time>2020-07-21T12:15:29.000Z</time>
      </trkpt>
      <trkpt lat="44.89802" lon="5.32052">
        <ele>1454.5</ele>
        <time>2020-07-21T12:15:37.000Z</time>
      </trkpt>
      <trkpt lat="44.8981" lon="5.3206">
        <ele>1454.4</ele>
        <time>2020-07-21T12:15:45.000Z</time>
      </trkpt>
      <trkpt lat="44.89817" lon="5.3207">
        <ele>1454.1</ele>
        <time>2020-07-21T12:15:53.000Z</time>
      </trkpt>
      <trkpt lat="44.89823" lon="5.3208">
        <ele>1453.4</ele>
        <time>2020-07-21T12:16:00.000Z</time>
      </trkpt>
      <trkpt lat="44.89829" lon="5.32092">
        <ele>1452.8</ele>
        <time>2020-07-21T12:16:08.000Z</time>
      </trkpt>
      <trkpt lat="44.89835" lon="5.32103">
        <ele>1452.3</ele>
        <time>2020-07-21T12:16:16.000Z</time>
      </trkpt>
      <trkpt lat="44.89844" lon="5.32105">
        <ele>1451.5</ele>
        <time>2020-07-21T12:21:50.000Z</time>
      </trkpt>
      <trkpt lat="44.89854" lon="5.32104">
        <ele>1451.5</ele>
        <time>2020-07-21T12:21:59.000Z</time>
      </trkpt>
      <trkpt lat="44.89863" lon="5.32101">
        <ele>1451.7</ele>
        <time>2020-07-21T12:22:08.000Z</time>
      </trkpt>
      <trkpt lat="44.89873" lon="5.32099">
        <ele>1452</ele>
        <time>2020-07-21T12:22:17.000Z</time>
      </trkpt>
      <trkpt lat="44.89882" lon="5.32094">
        <ele>1452.1</ele>
        <time>2020-07-21T12:23:04.000Z</time>
      </trkpt>
      <trkpt lat="44.89885" lon="5.32107">
        <ele>1450.8</ele>
        <time>2020-07-21T12:23:52.000Z</time>
      </trkpt>
      <trkpt lat="44.89887" lon="5.32121">
        <ele>1450.4</ele>
        <time>2020-07-21T12:24:00.000Z</time>
      </trkpt>
      <trkpt lat="44.89889" lon="5.32134">
        <ele>1449.9</ele>
        <time>2020-07-21T12:24:08.000Z</time>
      </trkpt>
      <trkpt lat="44.89892" lon="5.32147">
        <ele>1449.4</ele>
        <time>2020-07-21T12:24:16.000Z</time>
      </trkpt>
      <trkpt lat="44.899" lon="5.32155">
        <ele>1449.3</ele>
        <time>2020-07-21T12:24:25.000Z</time>
      </trkpt>
      <trkpt lat="44.89909" lon="5.32159">
        <ele>1449.2</ele>
        <time>2020-07-21T12:24:33.000Z</time>
      </trkpt>
      <trkpt lat="44.89919" lon="5.32162">
        <ele>1448.8</ele>
        <time>2020-07-21T12:24:41.000Z</time>
      </trkpt>
      <trkpt lat="44.89929" lon="5.32163">
        <ele>1448.3</ele>
        <time>2020-07-21T12:24:49.000Z</time>
      </trkpt>
      <trkpt lat="44.89932" lon="5.32177">
        <ele>1448.2</ele>
        <time>2020-07-21T12:25:00.000Z</time>
      </trkpt>
      <trkpt lat="44.89933" lon="5.3219">
        <ele>1448.1</ele>
        <time>2020-07-21T12:25:09.000Z</time>
      </trkpt>
      <trkpt lat="44.89939" lon="5.32201">
        <ele>1447.8</ele>
        <time>2020-07-21T12:25:42.000Z</time>
      </trkpt>
      <trkpt lat="44.89947" lon="5.32209">
        <ele>1447.8</ele>
        <time>2020-07-21T12:25:50.000Z</time>
      </trkpt>
      <trkpt lat="44.89956" lon="5.32215">
        <ele>1447.7</ele>
        <time>2020-07-21T12:25:58.000Z</time>
      </trkpt>
      <trkpt lat="44.89964" lon="5.32221">
        <ele>1447.6</ele>
        <time>2020-07-21T12:26:05.000Z</time>
      </trkpt>
      <trkpt lat="44.89973" lon="5.32227">
        <ele>1447.4</ele>
        <time>2020-07-21T12:26:13.000Z</time>
      </trkpt>
      <trkpt lat="44.89981" lon="5.32231">
        <ele>1447.3</ele>
        <time>2020-07-21T12:26:22.000Z</time>
      </trkpt>
      <trkpt lat="44.89989" lon="5.32239">
        <ele>1447.2</ele>
        <time>2020-07-21T12:26:30.000Z</time>
      </trkpt>
      <trkpt lat="44.89997" lon="5.32248">
        <ele>1447.1</ele>
        <time>2020-07-21T12:26:38.000Z</time>
      </trkpt>
      <trkpt lat="44.90003" lon="5.32257">
        <ele>1446.9</ele>
        <time>2020-07-21T12:26:45.000Z</time>
      </trkpt>
      <trkpt lat="44.90011" lon="5.32263">
        <ele>1447.1</ele>
        <time>2020-07-21T12:26:52.000Z</time>
      </trkpt>
      <trkpt lat="44.90019" lon="5.32272">
        <ele>1447.4</ele>
        <time>2020-07-21T12:27:00.000Z</time>
      </trkpt>
      <trkpt lat="44.90026" lon="5.32281">
        <ele>1448.1</ele>
        <time>2020-07-21T12:27:08.000Z</time>
      </trkpt>
      <trkpt lat="44.90034" lon="5.3229">
        <ele>1448.9</ele>
        <time>2020-07-21T12:27:16.000Z</time>
      </trkpt>
      <trkpt lat="44.90041" lon="5.32297">
        <ele>1449.4</ele>
        <time>2020-07-21T12:27:23.000Z</time>
      </trkpt>
      <trkpt lat="44.90049" lon="5.32306">
        <ele>1449.6</ele>
        <time>2020-07-21T12:27:30.000Z</time>
      </trkpt>
      <trkpt lat="44.90056" lon="5.32315">
        <ele>1449.4</ele>
        <time>2020-07-21T12:27:38.000Z</time>
      </trkpt>
      <trkpt lat="44.90063" lon="5.32324">
        <ele>1449.7</ele>
        <time>2020-07-21T12:27:46.000Z</time>
      </trkpt>
      <trkpt lat="44.9007" lon="5.32333">
        <ele>1452.4</ele>
        <time>2020-07-21T12:28:18.000Z</time>
      </trkpt>
      <trkpt lat="44.90077" lon="5.3234">
        <ele>1452.9</ele>
        <time>2020-07-21T12:28:28.000Z</time>
      </trkpt>
      <trkpt lat="44.90084" lon="5.32349">
        <ele>1454.4</ele>
        <time>2020-07-21T12:28:37.000Z</time>
      </trkpt>
      <trkpt lat="44.90092" lon="5.32357">
        <ele>1456.2</ele>
        <time>2020-07-21T12:28:46.000Z</time>
      </trkpt>
      <trkpt lat="44.90099" lon="5.32365">
        <ele>1457.9</ele>
        <time>2020-07-21T12:28:55.000Z</time>
      </trkpt>
      <trkpt lat="44.90107" lon="5.32373">
        <ele>1459.3</ele>
        <time>2020-07-21T12:29:04.000Z</time>
      </trkpt>
      <trkpt lat="44.90114" lon="5.32382">
        <ele>1460.3</ele>
        <time>2020-07-21T12:29:12.000Z</time>
      </trkpt>
      <trkpt lat="44.90121" lon="5.3239">
        <ele>1460.8</ele>
        <time>2020-07-21T12:29:20.000Z</time>
      </trkpt>
      <trkpt lat="44.90128" lon="5.32399">
        <ele>1460.9</ele>
        <time>2020-07-21T12:29:28.000Z</time>
      </trkpt>
      <trkpt lat="44.90135" lon="5.32407">
        <ele>1461</ele>
        <time>2020-07-21T12:29:37.000Z</time>
      </trkpt>
      <trkpt lat="44.90144" lon="5.32412">
        <ele>1460.6</ele>
        <time>2020-07-21T12:29:45.000Z</time>
      </trkpt>
      <trkpt lat="44.90152" lon="5.3242">
        <ele>1460.3</ele>
        <time>2020-07-21T12:29:53.000Z</time>
      </trkpt>
      <trkpt lat="44.9016" lon="5.32426">
        <ele>1459.7</ele>
        <time>2020-07-21T12:30:02.000Z</time>
      </trkpt>
      <trkpt lat="44.90167" lon="5.32436">
        <ele>1458.8</ele>
        <time>2020-07-21T12:30:11.000Z</time>
      </trkpt>
      <trkpt lat="44.90168" lon="5.32449">
        <ele>1457.8</ele>
        <time>2020-07-21T12:30:21.000Z</time>
      </trkpt>
      <trkpt lat="44.90166" lon="5.32463">
        <ele>1455.8</ele>
        <time>2020-07-21T12:30:34.000Z</time>
      </trkpt>
      <trkpt lat="44.90165" lon="5.32476">
        <ele>1454.1</ele>
        <time>2020-07-21T12:30:44.000Z</time>
      </trkpt>
      <trkpt lat="44.90166" lon="5.3249">
        <ele>1452.4</ele>
        <time>2020-07-21T12:30:52.000Z</time>
      </trkpt>
      <trkpt lat="44.90165" lon="5.32503">
        <ele>1450.8</ele>
        <time>2020-07-21T12:31:01.000Z</time>
      </trkpt>
      <trkpt lat="44.90165" lon="5.32518">
        <ele>1449.6</ele>
        <time>2020-07-21T12:31:09.000Z</time>
      </trkpt>
      <trkpt lat="44.90164" lon="5.32531">
        <ele>1448.5</ele>
        <time>2020-07-21T12:31:18.000Z</time>
      </trkpt>
      <trkpt lat="44.90169" lon="5.32543">
        <ele>1446.5</ele>
        <time>2020-07-21T12:32:19.000Z</time>
      </trkpt>
      <trkpt lat="44.90177" lon="5.32548">
        <ele>1446.2</ele>
        <time>2020-07-21T12:32:28.000Z</time>
      </trkpt>
      <trkpt lat="44.90186" lon="5.32552">
        <ele>1444.1</ele>
        <time>2020-07-21T12:32:57.000Z</time>
      </trkpt>
      <trkpt lat="44.90195" lon="5.32554">
        <ele>1443.9</ele>
        <time>2020-07-21T12:33:05.000Z</time>
      </trkpt>
      <trkpt lat="44.90204" lon="5.32558">
        <ele>1443.2</ele>
        <time>2020-07-21T12:33:14.000Z</time>
      </trkpt>
      <trkpt lat="44.90213" lon="5.32563">
        <ele>1442.2</ele>
        <time>2020-07-21T12:33:23.000Z</time>
      </trkpt>
      <trkpt lat="44.90222" lon="5.32568">
        <ele>1441.1</ele>
        <time>2020-07-21T12:33:31.000Z</time>
      </trkpt>
      <trkpt lat="44.90232" lon="5.32572">
        <ele>1440</ele>
        <time>2020-07-21T12:33:39.000Z</time>
      </trkpt>
      <trkpt lat="44.9024" lon="5.32578">
        <ele>1439.2</ele>
        <time>2020-07-21T12:33:47.000Z</time>
      </trkpt>
      <trkpt lat="44.9025" lon="5.3258">
        <ele>1438.1</ele>
        <time>2020-07-21T12:34:43.000Z</time>
      </trkpt>
      <trkpt lat="44.90259" lon="5.32579">
        <ele>1437.7</ele>
        <time>2020-07-21T12:34:53.000Z</time>
      </trkpt>
      <trkpt lat="44.9027" lon="5.32583">
        <ele>1436.8</ele>
        <time>2020-07-21T12:35:01.000Z</time>
      </trkpt>
      <trkpt lat="44.90279" lon="5.32587">
        <ele>1436.2</ele>
        <time>2020-07-21T12:35:06.000Z</time>
      </trkpt>
      <trkpt lat="44.90288" lon="5.3259">
        <ele>1435.2</ele>
        <time>2020-07-21T12:35:13.000Z</time>
      </trkpt>
      <trkpt lat="44.90298" lon="5.32593">
        <ele>1434.2</ele>
        <time>2020-07-21T12:35:20.000Z</time>
      </trkpt>
      <trkpt lat="44.90307" lon="5.32596">
        <ele>1433.4</ele>
        <time>2020-07-21T12:35:28.000Z</time>
      </trkpt>
      <trkpt lat="44.90316" lon="5.326">
        <ele>1432.6</ele>
        <time>2020-07-21T12:35:35.000Z</time>
      </trkpt>
      <trkpt lat="44.90326" lon="5.32602">
        <ele>1431.5</ele>
        <time>2020-07-21T12:35:43.000Z</time>
      </trkpt>
      <trkpt lat="44.90335" lon="5.326">
        <ele>1430.4</ele>
        <time>2020-07-21T12:35:50.000Z</time>
      </trkpt>
      <trkpt lat="44.90345" lon="5.32603">
        <ele>1429.1</ele>
        <time>2020-07-21T12:35:57.000Z</time>
      </trkpt>
      <trkpt lat="44.90357" lon="5.32602">
        <ele>1428.2</ele>
        <time>2020-07-21T12:36:03.000Z</time>
      </trkpt>
      <trkpt lat="44.90367" lon="5.32607">
        <ele>1427.3</ele>
        <time>2020-07-21T12:36:08.000Z</time>
      </trkpt>
      <trkpt lat="44.90375" lon="5.32612">
        <ele>1426.4</ele>
        <time>2020-07-21T12:36:15.000Z</time>
      </trkpt>
      <trkpt lat="44.90383" lon="5.3262">
        <ele>1425.7</ele>
        <time>2020-07-21T12:36:22.000Z</time>
      </trkpt>
      <trkpt lat="44.9039" lon="5.32629">
        <ele>1425</ele>
        <time>2020-07-21T12:36:29.000Z</time>
      </trkpt>
      <trkpt lat="44.90398" lon="5.32636">
        <ele>1424.2</ele>
        <time>2020-07-21T12:36:36.000Z</time>
      </trkpt>
      <trkpt lat="44.90405" lon="5.32645">
        <ele>1423.5</ele>
        <time>2020-07-21T12:36:43.000Z</time>
      </trkpt>
      <trkpt lat="44.90412" lon="5.32654">
        <ele>1422.7</ele>
        <time>2020-07-21T12:36:50.000Z</time>
      </trkpt>
      <trkpt lat="44.9042" lon="5.32661">
        <ele>1422.1</ele>
        <time>2020-07-21T12:36:57.000Z</time>
      </trkpt>
      <trkpt lat="44.90429" lon="5.32669">
        <ele>1421.7</ele>
        <time>2020-07-21T12:37:01.000Z</time>
      </trkpt>
      <trkpt lat="44.90438" lon="5.32678">
        <ele>1421.3</ele>
        <time>2020-07-21T12:37:04.000Z</time>
      </trkpt>
      <trkpt lat="44.90447" lon="5.32686">
        <ele>1420.6</ele>
        <time>2020-07-21T12:37:07.000Z</time>
      </trkpt>
      <trkpt lat="44.90457" lon="5.32695">
        <ele>1420.1</ele>
        <time>2020-07-21T12:37:10.000Z</time>
      </trkpt>
      <trkpt lat="44.90467" lon="5.32706">
        <ele>1419.4</ele>
        <time>2020-07-21T12:37:13.000Z</time>
      </trkpt>
      <trkpt lat="44.90476" lon="5.32716">
        <ele>1418.7</ele>
        <time>2020-07-21T12:37:16.000Z</time>
      </trkpt>
      <trkpt lat="44.90484" lon="5.32726">
        <ele>1418</ele>
        <time>2020-07-21T12:37:20.000Z</time>
      </trkpt>
      <trkpt lat="44.90491" lon="5.32736">
        <ele>1417.4</ele>
        <time>2020-07-21T12:37:23.000Z</time>
      </trkpt>
      <trkpt lat="44.905" lon="5.32748">
        <ele>1416.7</ele>
        <time>2020-07-21T12:37:26.000Z</time>
      </trkpt>
      <trkpt lat="44.90511" lon="5.32759">
        <ele>1416</ele>
        <time>2020-07-21T12:37:29.000Z</time>
      </trkpt>
      <trkpt lat="44.90518" lon="5.32767">
        <ele>1415.6</ele>
        <time>2020-07-21T12:37:31.000Z</time>
      </trkpt>
      <trkpt lat="44.90529" lon="5.32777">
        <ele>1415</ele>
        <time>2020-07-21T12:37:34.000Z</time>
      </trkpt>
      <trkpt lat="44.90541" lon="5.32782">
        <ele>1414.4</ele>
        <time>2020-07-21T12:37:37.000Z</time>
      </trkpt>
      <trkpt lat="44.90552" lon="5.32781">
        <ele>1413.8</ele>
        <time>2020-07-21T12:37:40.000Z</time>
      </trkpt>
      <trkpt lat="44.90562" lon="5.32778">
        <ele>1413.3</ele>
        <time>2020-07-21T12:37:44.000Z</time>
      </trkpt>
      <trkpt lat="44.90571" lon="5.32782">
        <ele>1412</ele>
        <time>2020-07-21T12:37:52.000Z</time>
      </trkpt>
      <trkpt lat="44.9058" lon="5.32785">
        <ele>1410.1</ele>
        <time>2020-07-21T12:38:01.000Z</time>
      </trkpt>
      <trkpt lat="44.90589" lon="5.32782">
        <ele>1408.7</ele>
        <time>2020-07-21T12:38:08.000Z</time>
      </trkpt>
      <trkpt lat="44.90598" lon="5.32784">
        <ele>1407.7</ele>
        <time>2020-07-21T12:38:15.000Z</time>
      </trkpt>
      <trkpt lat="44.90607" lon="5.32788">
        <ele>1407</ele>
        <time>2020-07-21T12:38:22.000Z</time>
      </trkpt>
      <trkpt lat="44.90616" lon="5.32787">
        <ele>1406.3</ele>
        <time>2020-07-21T12:38:30.000Z</time>
      </trkpt>
      <trkpt lat="44.90626" lon="5.32786">
        <ele>1405.5</ele>
        <time>2020-07-21T12:38:38.000Z</time>
      </trkpt>
      <trkpt lat="44.90635" lon="5.32782">
        <ele>1404.6</ele>
        <time>2020-07-21T12:38:46.000Z</time>
      </trkpt>
      <trkpt lat="44.90644" lon="5.32777">
        <ele>1404.1</ele>
        <time>2020-07-21T12:38:53.000Z</time>
      </trkpt>
      <trkpt lat="44.90652" lon="5.3277">
        <ele>1403.5</ele>
        <time>2020-07-21T12:39:00.000Z</time>
      </trkpt>
      <trkpt lat="44.90661" lon="5.32763">
        <ele>1403.1</ele>
        <time>2020-07-21T12:39:07.000Z</time>
      </trkpt>
      <trkpt lat="44.90669" lon="5.32756">
        <ele>1402.8</ele>
        <time>2020-07-21T12:39:14.000Z</time>
      </trkpt>
      <trkpt lat="44.90677" lon="5.3275">
        <ele>1402.6</ele>
        <time>2020-07-21T12:39:21.000Z</time>
      </trkpt>
      <trkpt lat="44.90686" lon="5.32746">
        <ele>1402.1</ele>
        <time>2020-07-21T12:39:45.000Z</time>
      </trkpt>
      <trkpt lat="44.90695" lon="5.32738">
        <ele>1401.6</ele>
        <time>2020-07-21T12:39:53.000Z</time>
      </trkpt>
      <trkpt lat="44.90703" lon="5.32736">
        <ele>1400.9</ele>
        <time>2020-07-21T12:40:00.000Z</time>
      </trkpt>
      <trkpt lat="44.90712" lon="5.3273">
        <ele>1400.4</ele>
        <time>2020-07-21T12:40:07.000Z</time>
      </trkpt>
      <trkpt lat="44.90722" lon="5.32725">
        <ele>1400</ele>
        <time>2020-07-21T12:40:14.000Z</time>
      </trkpt>
      <trkpt lat="44.90732" lon="5.32725">
        <ele>1399.3</ele>
        <time>2020-07-21T12:40:22.000Z</time>
      </trkpt>
      <trkpt lat="44.90742" lon="5.32725">
        <ele>1399</ele>
        <time>2020-07-21T12:40:30.000Z</time>
      </trkpt>
      <trkpt lat="44.90751" lon="5.32731">
        <ele>1398.5</ele>
        <time>2020-07-21T12:40:38.000Z</time>
      </trkpt>
      <trkpt lat="44.9076" lon="5.32734">
        <ele>1398</ele>
        <time>2020-07-21T12:40:46.000Z</time>
      </trkpt>
      <trkpt lat="44.90769" lon="5.32734">
        <ele>1397.6</ele>
        <time>2020-07-21T12:40:51.000Z</time>
      </trkpt>
      <trkpt lat="44.90779" lon="5.32734">
        <ele>1397.2</ele>
        <time>2020-07-21T12:40:57.000Z</time>
      </trkpt>
      <trkpt lat="44.90789" lon="5.32735">
        <ele>1396.7</ele>
        <time>2020-07-21T12:41:04.000Z</time>
      </trkpt>
      <trkpt lat="44.90798" lon="5.32735">
        <ele>1396.5</ele>
        <time>2020-07-21T12:41:11.000Z</time>
      </trkpt>
      <trkpt lat="44.90807" lon="5.32739">
        <ele>1396.1</ele>
        <time>2020-07-21T12:41:18.000Z</time>
      </trkpt>
      <trkpt lat="44.90817" lon="5.32745">
        <ele>1395.6</ele>
        <time>2020-07-21T12:41:25.000Z</time>
      </trkpt>
      <trkpt lat="44.90825" lon="5.32752">
        <ele>1395.3</ele>
        <time>2020-07-21T12:41:31.000Z</time>
      </trkpt>
      <trkpt lat="44.90833" lon="5.32761">
        <ele>1395.1</ele>
        <time>2020-07-21T12:41:38.000Z</time>
      </trkpt>
      <trkpt lat="44.90841" lon="5.3277">
        <ele>1395</ele>
        <time>2020-07-21T12:41:45.000Z</time>
      </trkpt>
      <trkpt lat="44.90849" lon="5.32778">
        <ele>1395.1</ele>
        <time>2020-07-21T12:41:52.000Z</time>
      </trkpt>
      <trkpt lat="44.90853" lon="5.3279">
        <ele>1395.6</ele>
        <time>2020-07-21T12:42:00.000Z</time>
      </trkpt>
      <trkpt lat="44.90861" lon="5.32799">
        <ele>1396.1</ele>
        <time>2020-07-21T12:42:07.000Z</time>
      </trkpt>
      <trkpt lat="44.90864" lon="5.32811">
        <ele>1396.5</ele>
        <time>2020-07-21T12:42:13.000Z</time>
      </trkpt>
      <trkpt lat="44.90868" lon="5.32824">
        <ele>1397</ele>
        <time>2020-07-21T12:42:20.000Z</time>
      </trkpt>
      <trkpt lat="44.90871" lon="5.32837">
        <ele>1397.6</ele>
        <time>2020-07-21T12:42:27.000Z</time>
      </trkpt>
      <trkpt lat="44.90875" lon="5.32848">
        <ele>1398.2</ele>
        <time>2020-07-21T12:42:34.000Z</time>
      </trkpt>
      <trkpt lat="44.90881" lon="5.32858">
        <ele>1398.7</ele>
        <time>2020-07-21T12:42:41.000Z</time>
      </trkpt>
      <trkpt lat="44.90888" lon="5.32868">
        <ele>1398.9</ele>
        <time>2020-07-21T12:42:48.000Z</time>
      </trkpt>
      <trkpt lat="44.90897" lon="5.32874">
        <ele>1399.1</ele>
        <time>2020-07-21T12:42:55.000Z</time>
      </trkpt>
      <trkpt lat="44.90907" lon="5.32875">
        <ele>1399.3</ele>
        <time>2020-07-21T12:43:03.000Z</time>
      </trkpt>
      <trkpt lat="44.90916" lon="5.32872">
        <ele>1399.6</ele>
        <time>2020-07-21T12:43:10.000Z</time>
      </trkpt>
      <trkpt lat="44.90925" lon="5.3287">
        <ele>1399.8</ele>
        <time>2020-07-21T12:43:17.000Z</time>
      </trkpt>
      <trkpt lat="44.90934" lon="5.32866">
        <ele>1399.8</ele>
        <time>2020-07-21T12:43:24.000Z</time>
      </trkpt>
      <trkpt lat="44.90943" lon="5.32862">
        <ele>1399.9</ele>
        <time>2020-07-21T12:43:31.000Z</time>
      </trkpt>
      <trkpt lat="44.90952" lon="5.32859">
        <ele>1400</ele>
        <time>2020-07-21T12:43:39.000Z</time>
      </trkpt>
      <trkpt lat="44.90962" lon="5.32858">
        <ele>1400.1</ele>
        <time>2020-07-21T12:43:46.000Z</time>
      </trkpt>
      <trkpt lat="44.9097" lon="5.32867">
        <ele>1400.4</ele>
        <time>2020-07-21T12:43:56.000Z</time>
      </trkpt>
      <trkpt lat="44.90977" lon="5.32876">
        <ele>1400.4</ele>
        <time>2020-07-21T12:44:04.000Z</time>
      </trkpt>
      <trkpt lat="44.90983" lon="5.32887">
        <ele>1400.5</ele>
        <time>2020-07-21T12:44:10.000Z</time>
      </trkpt>
      <trkpt lat="44.9099" lon="5.32898">
        <ele>1400.6</ele>
        <time>2020-07-21T12:44:14.000Z</time>
      </trkpt>
      <trkpt lat="44.90997" lon="5.32909">
        <ele>1401.2</ele>
        <time>2020-07-21T12:44:20.000Z</time>
      </trkpt>
      <trkpt lat="44.91002" lon="5.3292">
        <ele>1401.7</ele>
        <time>2020-07-21T12:44:27.000Z</time>
      </trkpt>
      <trkpt lat="44.91008" lon="5.32932">
        <ele>1402.8</ele>
        <time>2020-07-21T12:44:34.000Z</time>
      </trkpt>
      <trkpt lat="44.91014" lon="5.32946">
        <ele>1403.5</ele>
        <time>2020-07-21T12:44:39.000Z</time>
      </trkpt>
      <trkpt lat="44.9102" lon="5.32957">
        <ele>1404.1</ele>
        <time>2020-07-21T12:44:44.000Z</time>
      </trkpt>
      <trkpt lat="44.91026" lon="5.32966">
        <ele>1404.8</ele>
        <time>2020-07-21T12:44:50.000Z</time>
      </trkpt>
      <trkpt lat="44.91034" lon="5.32976">
        <ele>1405.7</ele>
        <time>2020-07-21T12:44:56.000Z</time>
      </trkpt>
      <trkpt lat="44.9104" lon="5.32986">
        <ele>1407.3</ele>
        <time>2020-07-21T12:45:05.000Z</time>
      </trkpt>
      <trkpt lat="44.91046" lon="5.32997">
        <ele>1408.5</ele>
        <time>2020-07-21T12:45:16.000Z</time>
      </trkpt>
      <trkpt lat="44.91052" lon="5.33007">
        <ele>1409.3</ele>
        <time>2020-07-21T12:45:26.000Z</time>
      </trkpt>
      <trkpt lat="44.91058" lon="5.33018">
        <ele>1410.5</ele>
        <time>2020-07-21T12:45:36.000Z</time>
      </trkpt>
      <trkpt lat="44.91066" lon="5.33026">
        <ele>1411.4</ele>
        <time>2020-07-21T12:45:45.000Z</time>
      </trkpt>
      <trkpt lat="44.91073" lon="5.33034">
        <ele>1411.6</ele>
        <time>2020-07-21T12:45:49.000Z</time>
      </trkpt>
      <trkpt lat="44.91082" lon="5.3304">
        <ele>1412</ele>
        <time>2020-07-21T12:45:54.000Z</time>
      </trkpt>
      <trkpt lat="44.91088" lon="5.33051">
        <ele>1412.7</ele>
        <time>2020-07-21T12:46:01.000Z</time>
      </trkpt>
      <trkpt lat="44.91087" lon="5.33064">
        <ele>1413.4</ele>
        <time>2020-07-21T12:46:09.000Z</time>
      </trkpt>
      <trkpt lat="44.91085" lon="5.33077">
        <ele>1413.8</ele>
        <time>2020-07-21T12:46:17.000Z</time>
      </trkpt>
      <trkpt lat="44.91082" lon="5.3309">
        <ele>1414.3</ele>
        <time>2020-07-21T12:46:26.000Z</time>
      </trkpt>
      <trkpt lat="44.91078" lon="5.33104">
        <ele>1414.7</ele>
        <time>2020-07-21T12:46:35.000Z</time>
      </trkpt>
      <trkpt lat="44.91076" lon="5.33118">
        <ele>1415.1</ele>
        <time>2020-07-21T12:46:43.000Z</time>
      </trkpt>
      <trkpt lat="44.91083" lon="5.3313">
        <ele>1415.4</ele>
        <time>2020-07-21T12:46:48.000Z</time>
      </trkpt>
      <trkpt lat="44.91085" lon="5.33144">
        <ele>1415.6</ele>
        <time>2020-07-21T12:46:53.000Z</time>
      </trkpt>
      <trkpt lat="44.91085" lon="5.33157">
        <ele>1416.1</ele>
        <time>2020-07-21T12:47:01.000Z</time>
      </trkpt>
      <trkpt lat="44.9108" lon="5.33169">
        <ele>1416.5</ele>
        <time>2020-07-21T12:47:10.000Z</time>
      </trkpt>
      <trkpt lat="44.91076" lon="5.33182">
        <ele>1416.9</ele>
        <time>2020-07-21T12:47:18.000Z</time>
      </trkpt>
      <trkpt lat="44.91072" lon="5.33194">
        <ele>1417.1</ele>
        <time>2020-07-21T12:47:26.000Z</time>
      </trkpt>
      <trkpt lat="44.91069" lon="5.33206">
        <ele>1416.9</ele>
        <time>2020-07-21T12:47:33.000Z</time>
      </trkpt>
      <trkpt lat="44.91063" lon="5.33217">
        <ele>1416.2</ele>
        <time>2020-07-21T12:47:41.000Z</time>
      </trkpt>
      <trkpt lat="44.91057" lon="5.33227">
        <ele>1415.6</ele>
        <time>2020-07-21T12:47:48.000Z</time>
      </trkpt>
      <trkpt lat="44.91058" lon="5.33242">
        <ele>1415.1</ele>
        <time>2020-07-21T12:47:54.000Z</time>
      </trkpt>
      <trkpt lat="44.91059" lon="5.33255">
        <ele>1414.8</ele>
        <time>2020-07-21T12:48:01.000Z</time>
      </trkpt>
      <trkpt lat="44.91058" lon="5.3327">
        <ele>1414.5</ele>
        <time>2020-07-21T12:48:08.000Z</time>
      </trkpt>
      <trkpt lat="44.91058" lon="5.33283">
        <ele>1414.3</ele>
        <time>2020-07-21T12:48:15.000Z</time>
      </trkpt>
      <trkpt lat="44.9106" lon="5.33297">
        <ele>1414.2</ele>
        <time>2020-07-21T12:48:23.000Z</time>
      </trkpt>
      <trkpt lat="44.91063" lon="5.33312">
        <ele>1414.2</ele>
        <time>2020-07-21T12:48:31.000Z</time>
      </trkpt>
      <trkpt lat="44.9106" lon="5.33325">
        <ele>1414.3</ele>
        <time>2020-07-21T12:48:40.000Z</time>
      </trkpt>
      <trkpt lat="44.91057" lon="5.33338">
        <ele>1414.4</ele>
        <time>2020-07-21T12:48:48.000Z</time>
      </trkpt>
      <trkpt lat="44.91054" lon="5.3335">
        <ele>1414.1</ele>
        <time>2020-07-21T12:48:56.000Z</time>
      </trkpt>
      <trkpt lat="44.91052" lon="5.33363">
        <ele>1413.3</ele>
        <time>2020-07-21T12:49:05.000Z</time>
      </trkpt>
      <trkpt lat="44.91052" lon="5.33378">
        <ele>1412.5</ele>
        <time>2020-07-21T12:49:12.000Z</time>
      </trkpt>
      <trkpt lat="44.91053" lon="5.33391">
        <ele>1411.9</ele>
        <time>2020-07-21T12:49:19.000Z</time>
      </trkpt>
      <trkpt lat="44.91056" lon="5.33404">
        <ele>1411.7</ele>
        <time>2020-07-21T12:49:26.000Z</time>
      </trkpt>
      <trkpt lat="44.91062" lon="5.33417">
        <ele>1411.9</ele>
        <time>2020-07-21T12:49:33.000Z</time>
      </trkpt>
      <trkpt lat="44.91068" lon="5.33427">
        <ele>1411.7</ele>
        <time>2020-07-21T12:49:39.000Z</time>
      </trkpt>
      <trkpt lat="44.91076" lon="5.33435">
        <ele>1411.7</ele>
        <time>2020-07-21T12:49:46.000Z</time>
      </trkpt>
      <trkpt lat="44.91084" lon="5.33442">
        <ele>1412</ele>
        <time>2020-07-21T12:49:53.000Z</time>
      </trkpt>
      <trkpt lat="44.91093" lon="5.33447">
        <ele>1412.2</ele>
        <time>2020-07-21T12:50:00.000Z</time>
      </trkpt>
      <trkpt lat="44.91101" lon="5.33451">
        <ele>1412.2</ele>
        <time>2020-07-21T12:50:07.000Z</time>
      </trkpt>
      <trkpt lat="44.91111" lon="5.33454">
        <ele>1412.5</ele>
        <time>2020-07-21T12:50:15.000Z</time>
      </trkpt>
      <trkpt lat="44.91121" lon="5.33456">
        <ele>1413</ele>
        <time>2020-07-21T12:50:23.000Z</time>
      </trkpt>
      <trkpt lat="44.9113" lon="5.3346">
        <ele>1413.1</ele>
        <time>2020-07-21T12:50:30.000Z</time>
      </trkpt>
      <trkpt lat="44.91139" lon="5.33462">
        <ele>1412.9</ele>
        <time>2020-07-21T12:50:37.000Z</time>
      </trkpt>
      <trkpt lat="44.9115" lon="5.33463">
        <ele>1412.4</ele>
        <time>2020-07-21T12:50:45.000Z</time>
      </trkpt>
      <trkpt lat="44.91158" lon="5.33467">
        <ele>1412.1</ele>
        <time>2020-07-21T12:50:52.000Z</time>
      </trkpt>
      <trkpt lat="44.91168" lon="5.33471">
        <ele>1411.8</ele>
        <time>2020-07-21T12:50:59.000Z</time>
      </trkpt>
      <trkpt lat="44.91177" lon="5.33474">
        <ele>1411.6</ele>
        <time>2020-07-21T12:51:06.000Z</time>
      </trkpt>
      <trkpt lat="44.91185" lon="5.3348">
        <ele>1411.5</ele>
        <time>2020-07-21T12:51:13.000Z</time>
      </trkpt>
      <trkpt lat="44.91195" lon="5.33483">
        <ele>1411.5</ele>
        <time>2020-07-21T12:51:20.000Z</time>
      </trkpt>
      <trkpt lat="44.91204" lon="5.33489">
        <ele>1411.5</ele>
        <time>2020-07-21T12:51:28.000Z</time>
      </trkpt>
      <trkpt lat="44.91214" lon="5.33491">
        <ele>1411.6</ele>
        <time>2020-07-21T12:51:36.000Z</time>
      </trkpt>
      <trkpt lat="44.91223" lon="5.33493">
        <ele>1411.5</ele>
        <time>2020-07-21T12:51:45.000Z</time>
      </trkpt>
      <trkpt lat="44.91233" lon="5.33494">
        <ele>1411.3</ele>
        <time>2020-07-21T12:51:52.000Z</time>
      </trkpt>
      <trkpt lat="44.91242" lon="5.33493">
        <ele>1411.1</ele>
        <time>2020-07-21T12:51:59.000Z</time>
      </trkpt>
      <trkpt lat="44.91251" lon="5.33494">
        <ele>1410.8</ele>
        <time>2020-07-21T12:52:06.000Z</time>
      </trkpt>
      <trkpt lat="44.91261" lon="5.33494">
        <ele>1410.4</ele>
        <time>2020-07-21T12:52:13.000Z</time>
      </trkpt>
      <trkpt lat="44.9127" lon="5.33489">
        <ele>1410.2</ele>
        <time>2020-07-21T12:52:21.000Z</time>
      </trkpt>
      <trkpt lat="44.91279" lon="5.33486">
        <ele>1410</ele>
        <time>2020-07-21T12:52:28.000Z</time>
      </trkpt>
      <trkpt lat="44.91289" lon="5.33481">
        <ele>1409.9</ele>
        <time>2020-07-21T12:52:36.000Z</time>
      </trkpt>
      <trkpt lat="44.91298" lon="5.33477">
        <ele>1410</ele>
        <time>2020-07-21T12:52:55.000Z</time>
      </trkpt>
      <trkpt lat="44.91307" lon="5.33473">
        <ele>1409.9</ele>
        <time>2020-07-21T12:53:02.000Z</time>
      </trkpt>
      <trkpt lat="44.91316" lon="5.33468">
        <ele>1409.7</ele>
        <time>2020-07-21T12:53:11.000Z</time>
      </trkpt>
      <trkpt lat="44.91325" lon="5.33466">
        <ele>1409</ele>
        <time>2020-07-21T12:53:20.000Z</time>
      </trkpt>
      <trkpt lat="44.91335" lon="5.33465">
        <ele>1408.4</ele>
        <time>2020-07-21T12:53:28.000Z</time>
      </trkpt>
      <trkpt lat="44.91345" lon="5.33465">
        <ele>1407.7</ele>
        <time>2020-07-21T12:53:36.000Z</time>
      </trkpt>
      <trkpt lat="44.91355" lon="5.33465">
        <ele>1406.9</ele>
        <time>2020-07-21T12:53:45.000Z</time>
      </trkpt>
      <trkpt lat="44.91364" lon="5.33467">
        <ele>1406.3</ele>
        <time>2020-07-21T12:53:52.000Z</time>
      </trkpt>
      <trkpt lat="44.91373" lon="5.33469">
        <ele>1406.1</ele>
        <time>2020-07-21T12:53:59.000Z</time>
      </trkpt>
      <trkpt lat="44.91382" lon="5.33474">
        <ele>1406.2</ele>
        <time>2020-07-21T12:54:06.000Z</time>
      </trkpt>
      <trkpt lat="44.91392" lon="5.33478">
        <ele>1406.5</ele>
        <time>2020-07-21T12:54:14.000Z</time>
      </trkpt>
      <trkpt lat="44.914" lon="5.33487">
        <ele>1406.7</ele>
        <time>2020-07-21T12:54:22.000Z</time>
      </trkpt>
      <trkpt lat="44.91408" lon="5.33493">
        <ele>1406.5</ele>
        <time>2020-07-21T12:54:29.000Z</time>
      </trkpt>
      <trkpt lat="44.91417" lon="5.33499">
        <ele>1406.3</ele>
        <time>2020-07-21T12:54:38.000Z</time>
      </trkpt>
      <trkpt lat="44.91425" lon="5.33505">
        <ele>1406.5</ele>
        <time>2020-07-21T12:54:45.000Z</time>
      </trkpt>
      <trkpt lat="44.91433" lon="5.33513">
        <ele>1407</ele>
        <time>2020-07-21T12:54:53.000Z</time>
      </trkpt>
      <trkpt lat="44.91442" lon="5.33519">
        <ele>1407.9</ele>
        <time>2020-07-21T12:55:02.000Z</time>
      </trkpt>
      <trkpt lat="44.9145" lon="5.33527">
        <ele>1408.3</ele>
        <time>2020-07-21T12:55:10.000Z</time>
      </trkpt>
      <trkpt lat="44.91459" lon="5.33533">
        <ele>1408.3</ele>
        <time>2020-07-21T12:55:18.000Z</time>
      </trkpt>
      <trkpt lat="44.91468" lon="5.3354">
        <ele>1408.2</ele>
        <time>2020-07-21T12:55:26.000Z</time>
      </trkpt>
      <trkpt lat="44.91475" lon="5.33547">
        <ele>1407.8</ele>
        <time>2020-07-21T12:55:33.000Z</time>
      </trkpt>
      <trkpt lat="44.91483" lon="5.33557">
        <ele>1407.3</ele>
        <time>2020-07-21T12:55:41.000Z</time>
      </trkpt>
      <trkpt lat="44.9149" lon="5.33568">
        <ele>1406.6</ele>
        <time>2020-07-21T12:55:49.000Z</time>
      </trkpt>
      <trkpt lat="44.91497" lon="5.33578">
        <ele>1406</ele>
        <time>2020-07-21T12:55:57.000Z</time>
      </trkpt>
      <trkpt lat="44.91504" lon="5.33588">
        <ele>1405.7</ele>
        <time>2020-07-21T12:56:05.000Z</time>
      </trkpt>
      <trkpt lat="44.91509" lon="5.33599">
        <ele>1405.6</ele>
        <time>2020-07-21T12:56:12.000Z</time>
      </trkpt>
      <trkpt lat="44.91512" lon="5.33613">
        <ele>1405.6</ele>
        <time>2020-07-21T12:56:20.000Z</time>
      </trkpt>
      <trkpt lat="44.91513" lon="5.33626">
        <ele>1405.7</ele>
        <time>2020-07-21T12:56:28.000Z</time>
      </trkpt>
      <trkpt lat="44.91515" lon="5.33639">
        <ele>1405.9</ele>
        <time>2020-07-21T12:56:35.000Z</time>
      </trkpt>
      <trkpt lat="44.91516" lon="5.33652">
        <ele>1405.9</ele>
        <time>2020-07-21T12:56:51.000Z</time>
      </trkpt>
      <trkpt lat="44.91519" lon="5.33664">
        <ele>1406</ele>
        <time>2020-07-21T12:57:35.000Z</time>
      </trkpt>
      <trkpt lat="44.91522" lon="5.33677">
        <ele>1406.5</ele>
        <time>2020-07-21T12:57:44.000Z</time>
      </trkpt>
      <trkpt lat="44.91527" lon="5.33688">
        <ele>1407.2</ele>
        <time>2020-07-21T12:57:53.000Z</time>
      </trkpt>
      <trkpt lat="44.91534" lon="5.33697">
        <ele>1408.6</ele>
        <time>2020-07-21T12:58:01.000Z</time>
      </trkpt>
      <trkpt lat="44.91542" lon="5.33704">
        <ele>1410.2</ele>
        <time>2020-07-21T12:58:10.000Z</time>
      </trkpt>
      <trkpt lat="44.9155" lon="5.33709">
        <ele>1411.3</ele>
        <time>2020-07-21T12:58:20.000Z</time>
      </trkpt>
      <trkpt lat="44.9156" lon="5.33714">
        <ele>1412</ele>
        <time>2020-07-21T12:58:28.000Z</time>
      </trkpt>
      <trkpt lat="44.9157" lon="5.33717">
        <ele>1412.8</ele>
        <time>2020-07-21T12:58:36.000Z</time>
      </trkpt>
      <trkpt lat="44.91579" lon="5.33719">
        <ele>1414.1</ele>
        <time>2020-07-21T12:58:44.000Z</time>
      </trkpt>
      <trkpt lat="44.91589" lon="5.33724">
        <ele>1415.4</ele>
        <time>2020-07-21T12:58:51.000Z</time>
      </trkpt>
      <trkpt lat="44.91598" lon="5.33728">
        <ele>1416.1</ele>
        <time>2020-07-21T12:58:55.000Z</time>
      </trkpt>
      <trkpt lat="44.91609" lon="5.33733">
        <ele>1416.9</ele>
        <time>2020-07-21T12:59:00.000Z</time>
      </trkpt>
      <trkpt lat="44.91618" lon="5.33739">
        <ele>1417.4</ele>
        <time>2020-07-21T12:59:03.000Z</time>
      </trkpt>
      <trkpt lat="44.91627" lon="5.33744">
        <ele>1418</ele>
        <time>2020-07-21T12:59:07.000Z</time>
      </trkpt>
      <trkpt lat="44.91636" lon="5.33748">
        <ele>1419</ele>
        <time>2020-07-21T12:59:11.000Z</time>
      </trkpt>
      <trkpt lat="44.91647" lon="5.33748">
        <ele>1420.4</ele>
        <time>2020-07-21T12:59:15.000Z</time>
      </trkpt>
      <trkpt lat="44.91657" lon="5.33752">
        <ele>1422.4</ele>
        <time>2020-07-21T12:59:21.000Z</time>
      </trkpt>
      <trkpt lat="44.91666" lon="5.33754">
        <ele>1424.6</ele>
        <time>2020-07-21T12:59:29.000Z</time>
      </trkpt>
      <trkpt lat="44.91674" lon="5.33748">
        <ele>1427.6</ele>
        <time>2020-07-21T12:59:59.000Z</time>
      </trkpt>
      <trkpt lat="44.91679" lon="5.33736">
        <ele>1427.4</ele>
        <time>2020-07-21T13:00:05.000Z</time>
      </trkpt>
      <trkpt lat="44.91687" lon="5.3373">
        <ele>1427.2</ele>
        <time>2020-07-21T13:00:12.000Z</time>
      </trkpt>
      <trkpt lat="44.91695" lon="5.33725">
        <ele>1426.6</ele>
        <time>2020-07-21T13:00:21.000Z</time>
      </trkpt>
      <trkpt lat="44.91705" lon="5.33729">
        <ele>1426</ele>
        <time>2020-07-21T13:00:31.000Z</time>
      </trkpt>
      <trkpt lat="44.91714" lon="5.33737">
        <ele>1425.7</ele>
        <time>2020-07-21T13:00:38.000Z</time>
      </trkpt>
      <trkpt lat="44.91723" lon="5.33741">
        <ele>1425.1</ele>
        <time>2020-07-21T13:00:45.000Z</time>
      </trkpt>
      <trkpt lat="44.9173" lon="5.33749">
        <ele>1424.5</ele>
        <time>2020-07-21T13:00:53.000Z</time>
      </trkpt>
      <trkpt lat="44.91738" lon="5.33757">
        <ele>1423.9</ele>
        <time>2020-07-21T13:01:02.000Z</time>
      </trkpt>
      <trkpt lat="44.91746" lon="5.33764">
        <ele>1422.2</ele>
        <time>2020-07-21T13:01:13.000Z</time>
      </trkpt>
      <trkpt lat="44.91755" lon="5.33769">
        <ele>1421</ele>
        <time>2020-07-21T13:01:20.000Z</time>
      </trkpt>
      <trkpt lat="44.91763" lon="5.33775">
        <ele>1419.4</ele>
        <time>2020-07-21T13:01:30.000Z</time>
      </trkpt>
      <trkpt lat="44.91771" lon="5.33782">
        <ele>1418.2</ele>
        <time>2020-07-21T13:01:40.000Z</time>
      </trkpt>
      <trkpt lat="44.91781" lon="5.33784">
        <ele>1417.2</ele>
        <time>2020-07-21T13:01:48.000Z</time>
      </trkpt>
      <trkpt lat="44.9179" lon="5.33788">
        <ele>1416.5</ele>
        <time>2020-07-21T13:01:55.000Z</time>
      </trkpt>
      <trkpt lat="44.918" lon="5.33789">
        <ele>1415.8</ele>
        <time>2020-07-21T13:02:02.000Z</time>
      </trkpt>
      <trkpt lat="44.91809" lon="5.33787">
        <ele>1415.5</ele>
        <time>2020-07-21T13:02:14.000Z</time>
      </trkpt>
      <trkpt lat="44.91818" lon="5.33784">
        <ele>1413.6</ele>
        <time>2020-07-21T13:02:21.000Z</time>
      </trkpt>
      <trkpt lat="44.91827" lon="5.33778">
        <ele>1410.9</ele>
        <time>2020-07-21T13:02:25.000Z</time>
      </trkpt>
      <trkpt lat="44.91836" lon="5.33775">
        <ele>1412</ele>
        <time>2020-07-21T13:02:32.000Z</time>
      </trkpt>
      <trkpt lat="44.91844" lon="5.33768">
        <ele>1414</ele>
        <time>2020-07-21T13:02:39.000Z</time>
      </trkpt>
      <trkpt lat="44.91853" lon="5.33763">
        <ele>1407.3</ele>
        <time>2020-07-21T13:03:29.000Z</time>
      </trkpt>
      <trkpt lat="44.91862" lon="5.33765">
        <ele>1406.7</ele>
        <time>2020-07-21T13:03:39.000Z</time>
      </trkpt>
      <trkpt lat="44.91872" lon="5.33762">
        <ele>1405.7</ele>
        <time>2020-07-21T13:03:51.000Z</time>
      </trkpt>
      <trkpt lat="44.91882" lon="5.33765">
        <ele>1405.9</ele>
        <time>2020-07-21T13:04:04.000Z</time>
      </trkpt>
      <trkpt lat="44.91891" lon="5.33767">
        <ele>1405.9</ele>
        <time>2020-07-21T13:04:11.000Z</time>
      </trkpt>
      <trkpt lat="44.91899" lon="5.33774">
        <ele>1399.2</ele>
        <time>2020-07-21T13:04:19.000Z</time>
      </trkpt>
      <trkpt lat="44.91906" lon="5.33782">
        <ele>1403.9</ele>
        <time>2020-07-21T13:04:30.000Z</time>
      </trkpt>
      <trkpt lat="44.91913" lon="5.33791">
        <ele>1405</ele>
        <time>2020-07-21T13:04:41.000Z</time>
      </trkpt>
      <trkpt lat="44.91918" lon="5.33802">
        <ele>1401.5</ele>
        <time>2020-07-21T13:04:54.000Z</time>
      </trkpt>
      <trkpt lat="44.91926" lon="5.33811">
        <ele>1398.2</ele>
        <time>2020-07-21T13:05:07.000Z</time>
      </trkpt>
      <trkpt lat="44.91934" lon="5.33814">
        <ele>1396.2</ele>
        <time>2020-07-21T13:05:18.000Z</time>
      </trkpt>
      <trkpt lat="44.91944" lon="5.33818">
        <ele>1394.6</ele>
        <time>2020-07-21T13:05:26.000Z</time>
      </trkpt>
      <trkpt lat="44.91954" lon="5.33819">
        <ele>1392.7</ele>
        <time>2020-07-21T13:05:36.000Z</time>
      </trkpt>
      <trkpt lat="44.91963" lon="5.33819">
        <ele>1391</ele>
        <time>2020-07-21T13:05:45.000Z</time>
      </trkpt>
      <trkpt lat="44.91972" lon="5.3382">
        <ele>1389.1</ele>
        <time>2020-07-21T13:05:55.000Z</time>
      </trkpt>
      <trkpt lat="44.91983" lon="5.33818">
        <ele>1388</ele>
        <time>2020-07-21T13:06:01.000Z</time>
      </trkpt>
      <trkpt lat="44.91993" lon="5.33816">
        <ele>1386.5</ele>
        <time>2020-07-21T13:06:10.000Z</time>
      </trkpt>
      <trkpt lat="44.92003" lon="5.33812">
        <ele>1385.3</ele>
        <time>2020-07-21T13:06:19.000Z</time>
      </trkpt>
      <trkpt lat="44.92012" lon="5.33806">
        <ele>1384.4</ele>
        <time>2020-07-21T13:06:27.000Z</time>
      </trkpt>
      <trkpt lat="44.92021" lon="5.33803">
        <ele>1383.6</ele>
        <time>2020-07-21T13:06:34.000Z</time>
      </trkpt>
      <trkpt lat="44.9203" lon="5.33797">
        <ele>1382.7</ele>
        <time>2020-07-21T13:06:42.000Z</time>
      </trkpt>
      <trkpt lat="44.92039" lon="5.3379">
        <ele>1381.8</ele>
        <time>2020-07-21T13:06:51.000Z</time>
      </trkpt>
      <trkpt lat="44.92049" lon="5.33792">
        <ele>1381</ele>
        <time>2020-07-21T13:07:03.000Z</time>
      </trkpt>
      <trkpt lat="44.92058" lon="5.33795">
        <ele>1379.5</ele>
        <time>2020-07-21T13:07:14.000Z</time>
      </trkpt>
      <trkpt lat="44.92066" lon="5.338">
        <ele>1377.8</ele>
        <time>2020-07-21T13:07:24.000Z</time>
      </trkpt>
      <trkpt lat="44.92077" lon="5.33799">
        <ele>1376.6</ele>
        <time>2020-07-21T13:07:31.000Z</time>
      </trkpt>
      <trkpt lat="44.92085" lon="5.33806">
        <ele>1373.4</ele>
        <time>2020-07-21T13:07:48.000Z</time>
      </trkpt>
      <trkpt lat="44.92094" lon="5.33812">
        <ele>1371.6</ele>
        <time>2020-07-21T13:08:23.000Z</time>
      </trkpt>
      <trkpt lat="44.92103" lon="5.33815">
        <ele>1370.3</ele>
        <time>2020-07-21T13:08:34.000Z</time>
      </trkpt>
      <trkpt lat="44.92112" lon="5.33821">
        <ele>1368.5</ele>
        <time>2020-07-21T13:08:44.000Z</time>
      </trkpt>
      <trkpt lat="44.92121" lon="5.33827">
        <ele>1367.2</ele>
        <time>2020-07-21T13:08:51.000Z</time>
      </trkpt>
      <trkpt lat="44.92132" lon="5.33829">
        <ele>1365.5</ele>
        <time>2020-07-21T13:09:00.000Z</time>
      </trkpt>
      <trkpt lat="44.92141" lon="5.33832">
        <ele>1364.3</ele>
        <time>2020-07-21T13:09:06.000Z</time>
      </trkpt>
      <trkpt lat="44.9215" lon="5.33832">
        <ele>1362.9</ele>
        <time>2020-07-21T13:09:14.000Z</time>
      </trkpt>
      <trkpt lat="44.92155" lon="5.33822">
        <ele>1360.3</ele>
        <time>2020-07-21T13:12:32.000Z</time>
      </trkpt>
      <trkpt lat="44.92159" lon="5.33833">
        <ele>1360</ele>
        <time>2020-07-21T13:16:22.000Z</time>
      </trkpt>
      <trkpt lat="44.92152" lon="5.33825">
        <ele>1360.3</ele>
        <time>2020-07-21T13:25:30.000Z</time>
      </trkpt>
      <trkpt lat="44.92158" lon="5.33835">
        <ele>1360.5</ele>
        <time>2020-07-21T13:29:05.000Z</time>
      </trkpt>
      <trkpt lat="44.92154" lon="5.33823">
        <ele>1359.1</ele>
        <time>2020-07-21T13:30:50.000Z</time>
      </trkpt>
      <trkpt lat="44.9215" lon="5.33834">
        <ele>1361.5</ele>
        <time>2020-07-21T13:38:21.000Z</time>
      </trkpt>
      <trkpt lat="44.92153" lon="5.33821">
        <ele>1362.3</ele>
        <time>2020-07-21T13:39:36.000Z</time>
      </trkpt>
      <trkpt lat="44.92159" lon="5.33831">
        <ele>1359.1</ele>
        <time>2020-07-21T13:40:23.000Z</time>
      </trkpt>
      <trkpt lat="44.92168" lon="5.33836">
        <ele>1359.3</ele>
        <time>2020-07-21T13:40:37.000Z</time>
      </trkpt>
      <trkpt lat="44.92176" lon="5.33841">
        <ele>1360</ele>
        <time>2020-07-21T13:40:45.000Z</time>
      </trkpt>
      <trkpt lat="44.92186" lon="5.33844">
        <ele>1359.6</ele>
        <time>2020-07-21T13:40:53.000Z</time>
      </trkpt>
      <trkpt lat="44.92195" lon="5.3385">
        <ele>1359</ele>
        <time>2020-07-21T13:41:01.000Z</time>
      </trkpt>
      <trkpt lat="44.92204" lon="5.33854">
        <ele>1358.5</ele>
        <time>2020-07-21T13:41:09.000Z</time>
      </trkpt>
      <trkpt lat="44.92214" lon="5.33859">
        <ele>1358.1</ele>
        <time>2020-07-21T13:41:17.000Z</time>
      </trkpt>
      <trkpt lat="44.92223" lon="5.33863">
        <ele>1357.7</ele>
        <time>2020-07-21T13:41:25.000Z</time>
      </trkpt>
      <trkpt lat="44.92232" lon="5.33867">
        <ele>1357.3</ele>
        <time>2020-07-21T13:41:33.000Z</time>
      </trkpt>
      <trkpt lat="44.92242" lon="5.3387">
        <ele>1357</ele>
        <time>2020-07-21T13:41:41.000Z</time>
      </trkpt>
      <trkpt lat="44.92251" lon="5.33873">
        <ele>1356.9</ele>
        <time>2020-07-21T13:41:49.000Z</time>
      </trkpt>
      <trkpt lat="44.9226" lon="5.33876">
        <ele>1356.7</ele>
        <time>2020-07-21T13:41:57.000Z</time>
      </trkpt>
      <trkpt lat="44.92269" lon="5.33875">
        <ele>1356.7</ele>
        <time>2020-07-21T13:42:05.000Z</time>
      </trkpt>
      <trkpt lat="44.92278" lon="5.33879">
        <ele>1356.4</ele>
        <time>2020-07-21T13:42:13.000Z</time>
      </trkpt>
      <trkpt lat="44.92288" lon="5.33883">
        <ele>1356.4</ele>
        <time>2020-07-21T13:42:21.000Z</time>
      </trkpt>
      <trkpt lat="44.92297" lon="5.33887">
        <ele>1356.4</ele>
        <time>2020-07-21T13:42:28.000Z</time>
      </trkpt>
      <trkpt lat="44.92305" lon="5.33891">
        <ele>1356.5</ele>
        <time>2020-07-21T13:42:35.000Z</time>
      </trkpt>
      <trkpt lat="44.92315" lon="5.33896">
        <ele>1356.3</ele>
        <time>2020-07-21T13:42:43.000Z</time>
      </trkpt>
      <trkpt lat="44.92324" lon="5.339">
        <ele>1356.4</ele>
        <time>2020-07-21T13:42:50.000Z</time>
      </trkpt>
      <trkpt lat="44.92333" lon="5.33905">
        <ele>1356.1</ele>
        <time>2020-07-21T13:42:58.000Z</time>
      </trkpt>
      <trkpt lat="44.92343" lon="5.3391">
        <ele>1356.2</ele>
        <time>2020-07-21T13:43:05.000Z</time>
      </trkpt>
      <trkpt lat="44.92352" lon="5.33914">
        <ele>1356.1</ele>
        <time>2020-07-21T13:43:12.000Z</time>
      </trkpt>
      <trkpt lat="44.92361" lon="5.33918">
        <ele>1355.9</ele>
        <time>2020-07-21T13:43:19.000Z</time>
      </trkpt>
      <trkpt lat="44.9237" lon="5.33922">
        <ele>1355.7</ele>
        <time>2020-07-21T13:43:26.000Z</time>
      </trkpt>
      <trkpt lat="44.92379" lon="5.33926">
        <ele>1355.5</ele>
        <time>2020-07-21T13:43:33.000Z</time>
      </trkpt>
      <trkpt lat="44.92388" lon="5.3393">
        <ele>1355.3</ele>
        <time>2020-07-21T13:43:40.000Z</time>
      </trkpt>
      <trkpt lat="44.92397" lon="5.33934">
        <ele>1355</ele>
        <time>2020-07-21T13:43:47.000Z</time>
      </trkpt>
      <trkpt lat="44.92405" lon="5.33938">
        <ele>1354.9</ele>
        <time>2020-07-21T13:43:54.000Z</time>
      </trkpt>
      <trkpt lat="44.92415" lon="5.33942">
        <ele>1354.4</ele>
        <time>2020-07-21T13:44:01.000Z</time>
      </trkpt>
      <trkpt lat="44.92424" lon="5.33947">
        <ele>1354.4</ele>
        <time>2020-07-21T13:44:09.000Z</time>
      </trkpt>
      <trkpt lat="44.92434" lon="5.33951">
        <ele>1354.6</ele>
        <time>2020-07-21T13:44:17.000Z</time>
      </trkpt>
      <trkpt lat="44.92443" lon="5.33957">
        <ele>1354.7</ele>
        <time>2020-07-21T13:44:25.000Z</time>
      </trkpt>
      <trkpt lat="44.92452" lon="5.33961">
        <ele>1355</ele>
        <time>2020-07-21T13:44:33.000Z</time>
      </trkpt>
      <trkpt lat="44.92461" lon="5.33969">
        <ele>1355.5</ele>
        <time>2020-07-21T13:44:41.000Z</time>
      </trkpt>
      <trkpt lat="44.9247" lon="5.33973">
        <ele>1355.7</ele>
        <time>2020-07-21T13:44:49.000Z</time>
      </trkpt>
      <trkpt lat="44.92478" lon="5.33979">
        <ele>1356</ele>
        <time>2020-07-21T13:44:57.000Z</time>
      </trkpt>
      <trkpt lat="44.92486" lon="5.33986">
        <ele>1356.2</ele>
        <time>2020-07-21T13:45:05.000Z</time>
      </trkpt>
      <trkpt lat="44.92495" lon="5.33993">
        <ele>1357.1</ele>
        <time>2020-07-21T13:45:24.000Z</time>
      </trkpt>
      <trkpt lat="44.92503" lon="5.33998">
        <ele>1357</ele>
        <time>2020-07-21T13:45:32.000Z</time>
      </trkpt>
      <trkpt lat="44.92512" lon="5.34001">
        <ele>1357.1</ele>
        <time>2020-07-21T13:45:40.000Z</time>
      </trkpt>
      <trkpt lat="44.92522" lon="5.34005">
        <ele>1357.4</ele>
        <time>2020-07-21T13:45:47.000Z</time>
      </trkpt>
      <trkpt lat="44.92531" lon="5.34007">
        <ele>1357.9</ele>
        <time>2020-07-21T13:45:55.000Z</time>
      </trkpt>
      <trkpt lat="44.92541" lon="5.34006">
        <ele>1358.4</ele>
        <time>2020-07-21T13:46:04.000Z</time>
      </trkpt>
      <trkpt lat="44.92551" lon="5.34008">
        <ele>1358.8</ele>
        <time>2020-07-21T13:46:12.000Z</time>
      </trkpt>
      <trkpt lat="44.92561" lon="5.3401">
        <ele>1359.3</ele>
        <time>2020-07-21T13:46:20.000Z</time>
      </trkpt>
      <trkpt lat="44.92571" lon="5.34009">
        <ele>1359.7</ele>
        <time>2020-07-21T13:46:28.000Z</time>
      </trkpt>
      <trkpt lat="44.92581" lon="5.34009">
        <ele>1360.2</ele>
        <time>2020-07-21T13:46:36.000Z</time>
      </trkpt>
      <trkpt lat="44.9259" lon="5.3401">
        <ele>1361</ele>
        <time>2020-07-21T13:46:44.000Z</time>
      </trkpt>
      <trkpt lat="44.926" lon="5.34011">
        <ele>1361.7</ele>
        <time>2020-07-21T13:46:52.000Z</time>
      </trkpt>
      <trkpt lat="44.9261" lon="5.34012">
        <ele>1362.3</ele>
        <time>2020-07-21T13:47:01.000Z</time>
      </trkpt>
      <trkpt lat="44.92619" lon="5.34013">
        <ele>1362.5</ele>
        <time>2020-07-21T13:47:09.000Z</time>
      </trkpt>
      <trkpt lat="44.92629" lon="5.34014">
        <ele>1362.4</ele>
        <time>2020-07-21T13:47:17.000Z</time>
      </trkpt>
      <trkpt lat="44.92639" lon="5.34016">
        <ele>1362.2</ele>
        <time>2020-07-21T13:47:25.000Z</time>
      </trkpt>
      <trkpt lat="44.92648" lon="5.34016">
        <ele>1362</ele>
        <time>2020-07-21T13:47:33.000Z</time>
      </trkpt>
      <trkpt lat="44.92657" lon="5.34021">
        <ele>1361.5</ele>
        <time>2020-07-21T13:47:41.000Z</time>
      </trkpt>
      <trkpt lat="44.92667" lon="5.34022">
        <ele>1361</ele>
        <time>2020-07-21T13:47:48.000Z</time>
      </trkpt>
      <trkpt lat="44.92676" lon="5.34022">
        <ele>1360.4</ele>
        <time>2020-07-21T13:47:56.000Z</time>
      </trkpt>
      <trkpt lat="44.92686" lon="5.34025">
        <ele>1359.2</ele>
        <time>2020-07-21T13:48:04.000Z</time>
      </trkpt>
      <trkpt lat="44.92696" lon="5.34025">
        <ele>1357.6</ele>
        <time>2020-07-21T13:48:12.000Z</time>
      </trkpt>
      <trkpt lat="44.92706" lon="5.34023">
        <ele>1356.9</ele>
        <time>2020-07-21T13:48:19.000Z</time>
      </trkpt>
      <trkpt lat="44.92718" lon="5.34021">
        <ele>1355.8</ele>
        <time>2020-07-21T13:48:23.000Z</time>
      </trkpt>
      <trkpt lat="44.92727" lon="5.34018">
        <ele>1355.1</ele>
        <time>2020-07-21T13:48:26.000Z</time>
      </trkpt>
      <trkpt lat="44.92737" lon="5.34017">
        <ele>1354.5</ele>
        <time>2020-07-21T13:48:29.000Z</time>
      </trkpt>
      <trkpt lat="44.92747" lon="5.34018">
        <ele>1354.7</ele>
        <time>2020-07-21T13:48:33.000Z</time>
      </trkpt>
      <trkpt lat="44.92759" lon="5.3402">
        <ele>1353.9</ele>
        <time>2020-07-21T13:48:37.000Z</time>
      </trkpt>
      <trkpt lat="44.92768" lon="5.3402">
        <ele>1353.2</ele>
        <time>2020-07-21T13:48:40.000Z</time>
      </trkpt>
      <trkpt lat="44.9278" lon="5.34021">
        <ele>1352.9</ele>
        <time>2020-07-21T13:48:44.000Z</time>
      </trkpt>
      <trkpt lat="44.92789" lon="5.34023">
        <ele>1352.3</ele>
        <time>2020-07-21T13:48:48.000Z</time>
      </trkpt>
      <trkpt lat="44.92798" lon="5.34026">
        <ele>1351.9</ele>
        <time>2020-07-21T13:48:55.000Z</time>
      </trkpt>
      <trkpt lat="44.92806" lon="5.34032">
        <ele>1351.2</ele>
        <time>2020-07-21T13:49:02.000Z</time>
      </trkpt>
      <trkpt lat="44.92815" lon="5.34036">
        <ele>1350.5</ele>
        <time>2020-07-21T13:49:09.000Z</time>
      </trkpt>
      <trkpt lat="44.92824" lon="5.34042">
        <ele>1349.9</ele>
        <time>2020-07-21T13:49:17.000Z</time>
      </trkpt>
      <trkpt lat="44.92832" lon="5.34048">
        <ele>1349.2</ele>
        <time>2020-07-21T13:49:25.000Z</time>
      </trkpt>
      <trkpt lat="44.92841" lon="5.34054">
        <ele>1348.4</ele>
        <time>2020-07-21T13:49:33.000Z</time>
      </trkpt>
      <trkpt lat="44.9285" lon="5.3406">
        <ele>1347.7</ele>
        <time>2020-07-21T13:49:40.000Z</time>
      </trkpt>
      <trkpt lat="44.92859" lon="5.34063">
        <ele>1346.8</ele>
        <time>2020-07-21T13:49:48.000Z</time>
      </trkpt>
      <trkpt lat="44.92867" lon="5.34071">
        <ele>1346.1</ele>
        <time>2020-07-21T13:49:55.000Z</time>
      </trkpt>
      <trkpt lat="44.92876" lon="5.34074">
        <ele>1345.5</ele>
        <time>2020-07-21T13:50:02.000Z</time>
      </trkpt>
      <trkpt lat="44.92885" lon="5.34069">
        <ele>1344.8</ele>
        <time>2020-07-21T13:50:10.000Z</time>
      </trkpt>
      <trkpt lat="44.92895" lon="5.34071">
        <ele>1344.3</ele>
        <time>2020-07-21T13:50:18.000Z</time>
      </trkpt>
      <trkpt lat="44.92904" lon="5.34077">
        <ele>1344</ele>
        <time>2020-07-21T13:50:26.000Z</time>
      </trkpt>
      <trkpt lat="44.92912" lon="5.34083">
        <ele>1343.6</ele>
        <time>2020-07-21T13:50:33.000Z</time>
      </trkpt>
      <trkpt lat="44.92921" lon="5.34086">
        <ele>1343.3</ele>
        <time>2020-07-21T13:50:40.000Z</time>
      </trkpt>
      <trkpt lat="44.9293" lon="5.3409">
        <ele>1342.9</ele>
        <time>2020-07-21T13:50:47.000Z</time>
      </trkpt>
      <trkpt lat="44.9294" lon="5.34095">
        <ele>1342.8</ele>
        <time>2020-07-21T13:50:55.000Z</time>
      </trkpt>
      <trkpt lat="44.92948" lon="5.341">
        <ele>1342.6</ele>
        <time>2020-07-21T13:51:02.000Z</time>
      </trkpt>
      <trkpt lat="44.92957" lon="5.34106">
        <ele>1342.5</ele>
        <time>2020-07-21T13:51:10.000Z</time>
      </trkpt>
      <trkpt lat="44.92964" lon="5.34115">
        <ele>1342.2</ele>
        <time>2020-07-21T13:51:18.000Z</time>
      </trkpt>
      <trkpt lat="44.9297" lon="5.34125">
        <ele>1342.1</ele>
        <time>2020-07-21T13:51:26.000Z</time>
      </trkpt>
      <trkpt lat="44.92979" lon="5.34131">
        <ele>1342.2</ele>
        <time>2020-07-21T13:51:34.000Z</time>
      </trkpt>
      <trkpt lat="44.92988" lon="5.34137">
        <ele>1342.3</ele>
        <time>2020-07-21T13:51:42.000Z</time>
      </trkpt>
      <trkpt lat="44.92998" lon="5.34143">
        <ele>1342.6</ele>
        <time>2020-07-21T13:51:50.000Z</time>
      </trkpt>
      <trkpt lat="44.93007" lon="5.34147">
        <ele>1342.8</ele>
        <time>2020-07-21T13:51:57.000Z</time>
      </trkpt>
      <trkpt lat="44.93016" lon="5.34152">
        <ele>1342.7</ele>
        <time>2020-07-21T13:52:05.000Z</time>
      </trkpt>
      <trkpt lat="44.93024" lon="5.34158">
        <ele>1342.7</ele>
        <time>2020-07-21T13:52:12.000Z</time>
      </trkpt>
      <trkpt lat="44.93033" lon="5.34163">
        <ele>1342.5</ele>
        <time>2020-07-21T13:52:19.000Z</time>
      </trkpt>
      <trkpt lat="44.93041" lon="5.34169">
        <ele>1342.2</ele>
        <time>2020-07-21T13:52:26.000Z</time>
      </trkpt>
      <trkpt lat="44.9305" lon="5.34173">
        <ele>1341.6</ele>
        <time>2020-07-21T13:52:33.000Z</time>
      </trkpt>
      <trkpt lat="44.93059" lon="5.34178">
        <ele>1341</ele>
        <time>2020-07-21T13:52:40.000Z</time>
      </trkpt>
      <trkpt lat="44.93068" lon="5.34179">
        <ele>1340.7</ele>
        <time>2020-07-21T13:52:47.000Z</time>
      </trkpt>
      <trkpt lat="44.93077" lon="5.3418">
        <ele>1340.6</ele>
        <time>2020-07-21T13:52:55.000Z</time>
      </trkpt>
      <trkpt lat="44.93087" lon="5.3418">
        <ele>1340.7</ele>
        <time>2020-07-21T13:53:03.000Z</time>
      </trkpt>
      <trkpt lat="44.93096" lon="5.34173">
        <ele>1341</ele>
        <time>2020-07-21T13:53:11.000Z</time>
      </trkpt>
      <trkpt lat="44.93104" lon="5.34165">
        <ele>1341.6</ele>
        <time>2020-07-21T13:53:19.000Z</time>
      </trkpt>
      <trkpt lat="44.93112" lon="5.34157">
        <ele>1342</ele>
        <time>2020-07-21T13:53:27.000Z</time>
      </trkpt>
      <trkpt lat="44.93119" lon="5.34147">
        <ele>1342.5</ele>
        <time>2020-07-21T13:53:35.000Z</time>
      </trkpt>
      <trkpt lat="44.93127" lon="5.34139">
        <ele>1343.1</ele>
        <time>2020-07-21T13:53:43.000Z</time>
      </trkpt>
      <trkpt lat="44.93136" lon="5.34133">
        <ele>1343.8</ele>
        <time>2020-07-21T13:53:51.000Z</time>
      </trkpt>
      <trkpt lat="44.93144" lon="5.34125">
        <ele>1344.4</ele>
        <time>2020-07-21T13:53:59.000Z</time>
      </trkpt>
      <trkpt lat="44.93152" lon="5.34118">
        <ele>1345</ele>
        <time>2020-07-21T13:54:07.000Z</time>
      </trkpt>
      <trkpt lat="44.9316" lon="5.3411">
        <ele>1345.9</ele>
        <time>2020-07-21T13:54:15.000Z</time>
      </trkpt>
      <trkpt lat="44.9317" lon="5.34109">
        <ele>1346.9</ele>
        <time>2020-07-21T13:54:24.000Z</time>
      </trkpt>
      <trkpt lat="44.9318" lon="5.34112">
        <ele>1347.6</ele>
        <time>2020-07-21T13:54:33.000Z</time>
      </trkpt>
      <trkpt lat="44.93189" lon="5.34116">
        <ele>1348.1</ele>
        <time>2020-07-21T13:54:42.000Z</time>
      </trkpt>
      <trkpt lat="44.93199" lon="5.34115">
        <ele>1348.4</ele>
        <time>2020-07-21T13:54:50.000Z</time>
      </trkpt>
      <trkpt lat="44.93208" lon="5.34115">
        <ele>1348.5</ele>
        <time>2020-07-21T13:54:58.000Z</time>
      </trkpt>
      <trkpt lat="44.93217" lon="5.34112">
        <ele>1348.7</ele>
        <time>2020-07-21T13:55:06.000Z</time>
      </trkpt>
      <trkpt lat="44.93226" lon="5.34107">
        <ele>1349</ele>
        <time>2020-07-21T13:55:15.000Z</time>
      </trkpt>
      <trkpt lat="44.93236" lon="5.3411">
        <ele>1349.1</ele>
        <time>2020-07-21T13:55:23.000Z</time>
      </trkpt>
      <trkpt lat="44.93246" lon="5.34107">
        <ele>1349.1</ele>
        <time>2020-07-21T13:55:31.000Z</time>
      </trkpt>
      <trkpt lat="44.93253" lon="5.34099">
        <ele>1349.2</ele>
        <time>2020-07-21T13:55:39.000Z</time>
      </trkpt>
      <trkpt lat="44.93261" lon="5.34094">
        <ele>1349.2</ele>
        <time>2020-07-21T13:55:47.000Z</time>
      </trkpt>
      <trkpt lat="44.9327" lon="5.34094">
        <ele>1349.1</ele>
        <time>2020-07-21T13:55:55.000Z</time>
      </trkpt>
      <trkpt lat="44.9328" lon="5.34092">
        <ele>1348.7</ele>
        <time>2020-07-21T13:56:03.000Z</time>
      </trkpt>
      <trkpt lat="44.93289" lon="5.34087">
        <ele>1348.2</ele>
        <time>2020-07-21T13:56:11.000Z</time>
      </trkpt>
      <trkpt lat="44.93298" lon="5.34084">
        <ele>1348</ele>
        <time>2020-07-21T13:56:19.000Z</time>
      </trkpt>
      <trkpt lat="44.93308" lon="5.34086">
        <ele>1348</ele>
        <time>2020-07-21T13:56:27.000Z</time>
      </trkpt>
      <trkpt lat="44.93317" lon="5.34091">
        <ele>1347.8</ele>
        <time>2020-07-21T13:56:35.000Z</time>
      </trkpt>
      <trkpt lat="44.93327" lon="5.34095">
        <ele>1347.6</ele>
        <time>2020-07-21T13:56:43.000Z</time>
      </trkpt>
      <trkpt lat="44.93337" lon="5.34099">
        <ele>1347.4</ele>
        <time>2020-07-21T13:56:51.000Z</time>
      </trkpt>
      <trkpt lat="44.93346" lon="5.34105">
        <ele>1347.2</ele>
        <time>2020-07-21T13:56:59.000Z</time>
      </trkpt>
      <trkpt lat="44.93355" lon="5.34111">
        <ele>1347.4</ele>
        <time>2020-07-21T13:57:07.000Z</time>
      </trkpt>
      <trkpt lat="44.93363" lon="5.34118">
        <ele>1347.4</ele>
        <time>2020-07-21T13:57:15.000Z</time>
      </trkpt>
      <trkpt lat="44.93371" lon="5.34125">
        <ele>1347.3</ele>
        <time>2020-07-21T13:57:22.000Z</time>
      </trkpt>
      <trkpt lat="44.93377" lon="5.34136">
        <ele>1347.3</ele>
        <time>2020-07-21T13:57:31.000Z</time>
      </trkpt>
      <trkpt lat="44.93383" lon="5.34147">
        <ele>1347.6</ele>
        <time>2020-07-21T13:57:39.000Z</time>
      </trkpt>
      <trkpt lat="44.93388" lon="5.34158">
        <ele>1348.2</ele>
        <time>2020-07-21T13:57:47.000Z</time>
      </trkpt>
      <trkpt lat="44.93392" lon="5.34171">
        <ele>1348.7</ele>
        <time>2020-07-21T13:57:55.000Z</time>
      </trkpt>
      <trkpt lat="44.93398" lon="5.34182">
        <ele>1349.7</ele>
        <time>2020-07-21T13:58:03.000Z</time>
      </trkpt>
      <trkpt lat="44.93402" lon="5.34194">
        <ele>1350.9</ele>
        <time>2020-07-21T13:58:11.000Z</time>
      </trkpt>
      <trkpt lat="44.93406" lon="5.34206">
        <ele>1352.9</ele>
        <time>2020-07-21T13:58:20.000Z</time>
      </trkpt>
      <trkpt lat="44.93412" lon="5.34217">
        <ele>1354.8</ele>
        <time>2020-07-21T13:58:29.000Z</time>
      </trkpt>
      <trkpt lat="44.93418" lon="5.34228">
        <ele>1356.1</ele>
        <time>2020-07-21T13:58:38.000Z</time>
      </trkpt>
      <trkpt lat="44.93422" lon="5.3424">
        <ele>1357.4</ele>
        <time>2020-07-21T13:58:47.000Z</time>
      </trkpt>
      <trkpt lat="44.9343" lon="5.34249">
        <ele>1358.6</ele>
        <time>2020-07-21T13:58:56.000Z</time>
      </trkpt>
      <trkpt lat="44.93435" lon="5.3426">
        <ele>1359.9</ele>
        <time>2020-07-21T13:59:05.000Z</time>
      </trkpt>
      <trkpt lat="44.93442" lon="5.3427">
        <ele>1361.2</ele>
        <time>2020-07-21T13:59:16.000Z</time>
      </trkpt>
      <trkpt lat="44.93448" lon="5.3428">
        <ele>1362.4</ele>
        <time>2020-07-21T13:59:27.000Z</time>
      </trkpt>
      <trkpt lat="44.93452" lon="5.34294">
        <ele>1363.6</ele>
        <time>2020-07-21T13:59:35.000Z</time>
      </trkpt>
      <trkpt lat="44.93455" lon="5.34306">
        <ele>1365.5</ele>
        <time>2020-07-21T13:59:43.000Z</time>
      </trkpt>
      <trkpt lat="44.93457" lon="5.34318">
        <ele>1368.3</ele>
        <time>2020-07-21T13:59:51.000Z</time>
      </trkpt>
      <trkpt lat="44.93458" lon="5.34331">
        <ele>1369.2</ele>
        <time>2020-07-21T14:00:43.000Z</time>
      </trkpt>
      <trkpt lat="44.93457" lon="5.34345">
        <ele>1375.1</ele>
        <time>2020-07-21T14:02:04.000Z</time>
      </trkpt>
      <trkpt lat="44.93455" lon="5.34358">
        <ele>1378.5</ele>
        <time>2020-07-21T14:02:15.000Z</time>
      </trkpt>
      <trkpt lat="44.93456" lon="5.34371">
        <ele>1381</ele>
        <time>2020-07-21T14:02:24.000Z</time>
      </trkpt>
      <trkpt lat="44.9346" lon="5.34383">
        <ele>1383.1</ele>
        <time>2020-07-21T14:02:35.000Z</time>
      </trkpt>
      <trkpt lat="44.93467" lon="5.34392">
        <ele>1385.4</ele>
        <time>2020-07-21T14:02:50.000Z</time>
      </trkpt>
      <trkpt lat="44.93475" lon="5.34398">
        <ele>1387.4</ele>
        <time>2020-07-21T14:03:02.000Z</time>
      </trkpt>
      <trkpt lat="44.93483" lon="5.34405">
        <ele>1388.9</ele>
        <time>2020-07-21T14:03:12.000Z</time>
      </trkpt>
      <trkpt lat="44.93492" lon="5.34413">
        <ele>1389.6</ele>
        <time>2020-07-21T14:03:19.000Z</time>
      </trkpt>
      <trkpt lat="44.935" lon="5.34421">
        <ele>1390.9</ele>
        <time>2020-07-21T14:03:31.000Z</time>
      </trkpt>
      <trkpt lat="44.93507" lon="5.34428">
        <ele>1391.9</ele>
        <time>2020-07-21T14:03:40.000Z</time>
      </trkpt>
      <trkpt lat="44.93515" lon="5.34436">
        <ele>1392.8</ele>
        <time>2020-07-21T14:03:49.000Z</time>
      </trkpt>
      <trkpt lat="44.93521" lon="5.34446">
        <ele>1393.6</ele>
        <time>2020-07-21T14:03:57.000Z</time>
      </trkpt>
      <trkpt lat="44.93525" lon="5.34459">
        <ele>1394.3</ele>
        <time>2020-07-21T14:04:05.000Z</time>
      </trkpt>
      <trkpt lat="44.9353" lon="5.3447">
        <ele>1395.2</ele>
        <time>2020-07-21T14:04:15.000Z</time>
      </trkpt>
      <trkpt lat="44.93536" lon="5.34482">
        <ele>1396</ele>
        <time>2020-07-21T14:04:24.000Z</time>
      </trkpt>
      <trkpt lat="44.93538" lon="5.34494">
        <ele>1397.2</ele>
        <time>2020-07-21T14:04:34.000Z</time>
      </trkpt>
      <trkpt lat="44.93539" lon="5.34507">
        <ele>1397.8</ele>
        <time>2020-07-21T14:04:41.000Z</time>
      </trkpt>
      <trkpt lat="44.93542" lon="5.3452">
        <ele>1398.6</ele>
        <time>2020-07-21T14:04:49.000Z</time>
      </trkpt>
      <trkpt lat="44.93545" lon="5.34532">
        <ele>1399.7</ele>
        <time>2020-07-21T14:04:59.000Z</time>
      </trkpt>
      <trkpt lat="44.93548" lon="5.34545">
        <ele>1400.4</ele>
        <time>2020-07-21T14:05:06.000Z</time>
      </trkpt>
      <trkpt lat="44.93551" lon="5.34558">
        <ele>1401.7</ele>
        <time>2020-07-21T14:05:16.000Z</time>
      </trkpt>
      <trkpt lat="44.93554" lon="5.3457">
        <ele>1403.1</ele>
        <time>2020-07-21T14:05:26.000Z</time>
      </trkpt>
      <trkpt lat="44.93553" lon="5.34583">
        <ele>1404.2</ele>
        <time>2020-07-21T14:05:36.000Z</time>
      </trkpt>
      <trkpt lat="44.93554" lon="5.34596">
        <ele>1405.3</ele>
        <time>2020-07-21T14:05:46.000Z</time>
      </trkpt>
      <trkpt lat="44.93552" lon="5.34609">
        <ele>1405.8</ele>
        <time>2020-07-21T14:05:54.000Z</time>
      </trkpt>
      <trkpt lat="44.9355" lon="5.34622">
        <ele>1406</ele>
        <time>2020-07-21T14:06:02.000Z</time>
      </trkpt>
      <trkpt lat="44.93548" lon="5.34636">
        <ele>1406.4</ele>
        <time>2020-07-21T14:06:13.000Z</time>
      </trkpt>
      <trkpt lat="44.93547" lon="5.34649">
        <ele>1407</ele>
        <time>2020-07-21T14:06:21.000Z</time>
      </trkpt>
      <trkpt lat="44.93544" lon="5.34661">
        <ele>1407.6</ele>
        <time>2020-07-21T14:06:28.000Z</time>
      </trkpt>
      <trkpt lat="44.93548" lon="5.34673">
        <ele>1407.8</ele>
        <time>2020-07-21T14:07:06.000Z</time>
      </trkpt>
      <trkpt lat="44.93548" lon="5.34686">
        <ele>1407.9</ele>
        <time>2020-07-21T14:07:15.000Z</time>
      </trkpt>
      <trkpt lat="44.93548" lon="5.347">
        <ele>1408.6</ele>
        <time>2020-07-21T14:07:22.000Z</time>
      </trkpt>
      <trkpt lat="44.93548" lon="5.34713">
        <ele>1408.9</ele>
        <time>2020-07-21T14:07:29.000Z</time>
      </trkpt>
      <trkpt lat="44.93553" lon="5.34725">
        <ele>1409.9</ele>
        <time>2020-07-21T14:07:39.000Z</time>
      </trkpt>
      <trkpt lat="44.93558" lon="5.34738">
        <ele>1410.7</ele>
        <time>2020-07-21T14:07:47.000Z</time>
      </trkpt>
      <trkpt lat="44.93563" lon="5.34749">
        <ele>1411</ele>
        <time>2020-07-21T14:07:53.000Z</time>
      </trkpt>
      <trkpt lat="44.9357" lon="5.34757">
        <ele>1411.8</ele>
        <time>2020-07-21T14:08:02.000Z</time>
      </trkpt>
      <trkpt lat="44.93577" lon="5.34767">
        <ele>1412.7</ele>
        <time>2020-07-21T14:08:11.000Z</time>
      </trkpt>
      <trkpt lat="44.93585" lon="5.34777">
        <ele>1413.2</ele>
        <time>2020-07-21T14:08:19.000Z</time>
      </trkpt>
      <trkpt lat="44.93592" lon="5.34787">
        <ele>1413.7</ele>
        <time>2020-07-21T14:08:25.000Z</time>
      </trkpt>
      <trkpt lat="44.93598" lon="5.34798">
        <ele>1414.5</ele>
        <time>2020-07-21T14:08:34.000Z</time>
      </trkpt>
      <trkpt lat="44.93604" lon="5.34807">
        <ele>1415.4</ele>
        <time>2020-07-21T14:08:43.000Z</time>
      </trkpt>
      <trkpt lat="44.93609" lon="5.34818">
        <ele>1416.2</ele>
        <time>2020-07-21T14:08:51.000Z</time>
      </trkpt>
      <trkpt lat="44.93615" lon="5.34828">
        <ele>1416.6</ele>
        <time>2020-07-21T14:08:57.000Z</time>
      </trkpt>
      <trkpt lat="44.93621" lon="5.34838">
        <ele>1417.4</ele>
        <time>2020-07-21T14:09:06.000Z</time>
      </trkpt>
      <trkpt lat="44.93627" lon="5.34848">
        <ele>1418.3</ele>
        <time>2020-07-21T14:09:14.000Z</time>
      </trkpt>
      <trkpt lat="44.93633" lon="5.34858">
        <ele>1419.3</ele>
        <time>2020-07-21T14:09:21.000Z</time>
      </trkpt>
      <trkpt lat="44.93638" lon="5.3487">
        <ele>1420.1</ele>
        <time>2020-07-21T14:09:28.000Z</time>
      </trkpt>
      <trkpt lat="44.93641" lon="5.34882">
        <ele>1421.2</ele>
        <time>2020-07-21T14:09:37.000Z</time>
      </trkpt>
      <trkpt lat="44.93645" lon="5.34895">
        <ele>1422.2</ele>
        <time>2020-07-21T14:09:47.000Z</time>
      </trkpt>
      <trkpt lat="44.93651" lon="5.34905">
        <ele>1423.2</ele>
        <time>2020-07-21T14:09:57.000Z</time>
      </trkpt>
      <trkpt lat="44.93655" lon="5.34917">
        <ele>1424</ele>
        <time>2020-07-21T14:10:04.000Z</time>
      </trkpt>
      <trkpt lat="44.93659" lon="5.34929">
        <ele>1424.6</ele>
        <time>2020-07-21T14:10:12.000Z</time>
      </trkpt>
      <trkpt lat="44.93662" lon="5.34942">
        <ele>1425.1</ele>
        <time>2020-07-21T14:10:20.000Z</time>
      </trkpt>
      <trkpt lat="44.93667" lon="5.34953">
        <ele>1425</ele>
        <time>2020-07-21T14:10:32.000Z</time>
      </trkpt>
      <trkpt lat="44.93672" lon="5.34965">
        <ele>1425.1</ele>
        <time>2020-07-21T14:10:44.000Z</time>
      </trkpt>
      <trkpt lat="44.93677" lon="5.34978">
        <ele>1425.8</ele>
        <time>2020-07-21T14:10:52.000Z</time>
      </trkpt>
      <trkpt lat="44.93679" lon="5.3499">
        <ele>1426.7</ele>
        <time>2020-07-21T14:10:59.000Z</time>
      </trkpt>
      <trkpt lat="44.93682" lon="5.35003">
        <ele>1427.3</ele>
        <time>2020-07-21T14:11:05.000Z</time>
      </trkpt>
      <trkpt lat="44.93686" lon="5.35015">
        <ele>1428.1</ele>
        <time>2020-07-21T14:11:12.000Z</time>
      </trkpt>
      <trkpt lat="44.93689" lon="5.35028">
        <ele>1429.8</ele>
        <time>2020-07-21T14:11:26.000Z</time>
      </trkpt>
      <trkpt lat="44.93694" lon="5.35039">
        <ele>1431.1</ele>
        <time>2020-07-21T14:11:37.000Z</time>
      </trkpt>
      <trkpt lat="44.93695" lon="5.35052">
        <ele>1432.3</ele>
        <time>2020-07-21T14:11:45.000Z</time>
      </trkpt>
      <trkpt lat="44.93697" lon="5.35065">
        <ele>1433.6</ele>
        <time>2020-07-21T14:11:55.000Z</time>
      </trkpt>
      <trkpt lat="44.93695" lon="5.35078">
        <ele>1434.6</ele>
        <time>2020-07-21T14:12:03.000Z</time>
      </trkpt>
      <trkpt lat="44.93696" lon="5.35091">
        <ele>1435.4</ele>
        <time>2020-07-21T14:12:11.000Z</time>
      </trkpt>
      <trkpt lat="44.93696" lon="5.35105">
        <ele>1436.3</ele>
        <time>2020-07-21T14:12:20.000Z</time>
      </trkpt>
      <trkpt lat="44.93692" lon="5.35117">
        <ele>1437.1</ele>
        <time>2020-07-21T14:12:29.000Z</time>
      </trkpt>
      <trkpt lat="44.93689" lon="5.3513">
        <ele>1438.3</ele>
        <time>2020-07-21T14:12:41.000Z</time>
      </trkpt>
      <trkpt lat="44.93686" lon="5.35142">
        <ele>1439</ele>
        <time>2020-07-21T14:12:49.000Z</time>
      </trkpt>
      <trkpt lat="44.93679" lon="5.35153">
        <ele>1439.5</ele>
        <time>2020-07-21T14:12:56.000Z</time>
      </trkpt>
      <trkpt lat="44.93676" lon="5.35166">
        <ele>1440.6</ele>
        <time>2020-07-21T14:13:07.000Z</time>
      </trkpt>
      <trkpt lat="44.93673" lon="5.35178">
        <ele>1441.5</ele>
        <time>2020-07-21T14:13:16.000Z</time>
      </trkpt>
      <trkpt lat="44.9367" lon="5.35191">
        <ele>1442.2</ele>
        <time>2020-07-21T14:13:24.000Z</time>
      </trkpt>
      <trkpt lat="44.93668" lon="5.35205">
        <ele>1443.8</ele>
        <time>2020-07-21T14:13:36.000Z</time>
      </trkpt>
      <trkpt lat="44.93666" lon="5.35218">
        <ele>1444.7</ele>
        <time>2020-07-21T14:13:42.000Z</time>
      </trkpt>
      <trkpt lat="44.93665" lon="5.35233">
        <ele>1445.4</ele>
        <time>2020-07-21T14:13:49.000Z</time>
      </trkpt>
      <trkpt lat="44.93664" lon="5.35246">
        <ele>1446</ele>
        <time>2020-07-21T14:13:56.000Z</time>
      </trkpt>
      <trkpt lat="44.93663" lon="5.35259">
        <ele>1447.1</ele>
        <time>2020-07-21T14:14:06.000Z</time>
      </trkpt>
      <trkpt lat="44.93663" lon="5.35274">
        <ele>1448.1</ele>
        <time>2020-07-21T14:14:15.000Z</time>
      </trkpt>
      <trkpt lat="44.93659" lon="5.35288">
        <ele>1448.7</ele>
        <time>2020-07-21T14:14:22.000Z</time>
      </trkpt>
      <trkpt lat="44.9366" lon="5.35301">
        <ele>1449.5</ele>
        <time>2020-07-21T14:14:32.000Z</time>
      </trkpt>
      <trkpt lat="44.93662" lon="5.35314">
        <ele>1450.6</ele>
        <time>2020-07-21T14:14:41.000Z</time>
      </trkpt>
      <trkpt lat="44.9366" lon="5.35327">
        <ele>1451.7</ele>
        <time>2020-07-21T14:14:48.000Z</time>
      </trkpt>
      <trkpt lat="44.93654" lon="5.35337">
        <ele>1452.6</ele>
        <time>2020-07-21T14:14:57.000Z</time>
      </trkpt>
      <trkpt lat="44.93647" lon="5.35346">
        <ele>1454.1</ele>
        <time>2020-07-21T14:15:08.000Z</time>
      </trkpt>
      <trkpt lat="44.93641" lon="5.35356">
        <ele>1455.1</ele>
        <time>2020-07-21T14:15:18.000Z</time>
      </trkpt>
      <trkpt lat="44.93634" lon="5.35365">
        <ele>1456</ele>
        <time>2020-07-21T14:15:26.000Z</time>
      </trkpt>
      <trkpt lat="44.93626" lon="5.35371">
        <ele>1456.7</ele>
        <time>2020-07-21T14:15:34.000Z</time>
      </trkpt>
      <trkpt lat="44.93617" lon="5.35378">
        <ele>1457.5</ele>
        <time>2020-07-21T14:15:42.000Z</time>
      </trkpt>
      <trkpt lat="44.9361" lon="5.35388">
        <ele>1457.9</ele>
        <time>2020-07-21T14:15:47.000Z</time>
      </trkpt>
      <trkpt lat="44.93602" lon="5.35396">
        <ele>1458.9</ele>
        <time>2020-07-21T14:15:54.000Z</time>
      </trkpt>
      <trkpt lat="44.93595" lon="5.35404">
        <ele>1460.4</ele>
        <time>2020-07-21T14:16:01.000Z</time>
      </trkpt>
      <trkpt lat="44.93585" lon="5.3541">
        <ele>1462</ele>
        <time>2020-07-21T14:16:09.000Z</time>
      </trkpt>
      <trkpt lat="44.93576" lon="5.35415">
        <ele>1463.3</ele>
        <time>2020-07-21T14:16:17.000Z</time>
      </trkpt>
      <trkpt lat="44.93568" lon="5.35422">
        <ele>1464.2</ele>
        <time>2020-07-21T14:16:25.000Z</time>
      </trkpt>
      <trkpt lat="44.93561" lon="5.35429">
        <ele>1464.5</ele>
        <time>2020-07-21T14:16:32.000Z</time>
      </trkpt>
      <trkpt lat="44.93553" lon="5.35437">
        <ele>1464.7</ele>
        <time>2020-07-21T14:16:40.000Z</time>
      </trkpt>
      <trkpt lat="44.93544" lon="5.35445">
        <ele>1465.3</ele>
        <time>2020-07-21T14:16:49.000Z</time>
      </trkpt>
      <trkpt lat="44.93535" lon="5.35452">
        <ele>1465.1</ele>
        <time>2020-07-21T14:16:58.000Z</time>
      </trkpt>
      <trkpt lat="44.93526" lon="5.35452">
        <ele>1464.5</ele>
        <time>2020-07-21T14:17:06.000Z</time>
      </trkpt>
      <trkpt lat="44.93518" lon="5.35459">
        <ele>1463.4</ele>
        <time>2020-07-21T14:17:15.000Z</time>
      </trkpt>
      <trkpt lat="44.93514" lon="5.35471">
        <ele>1461.7</ele>
        <time>2020-07-21T14:17:26.000Z</time>
      </trkpt>
      <trkpt lat="44.93507" lon="5.3548">
        <ele>1460.2</ele>
        <time>2020-07-21T14:17:34.000Z</time>
      </trkpt>
      <trkpt lat="44.93498" lon="5.35484">
        <ele>1459.4</ele>
        <time>2020-07-21T14:17:42.000Z</time>
      </trkpt>
      <trkpt lat="44.93489" lon="5.35487">
        <ele>1458.5</ele>
        <time>2020-07-21T14:17:52.000Z</time>
      </trkpt>
      <trkpt lat="44.93479" lon="5.35491">
        <ele>1458.1</ele>
        <time>2020-07-21T14:17:59.000Z</time>
      </trkpt>
      <trkpt lat="44.93469" lon="5.35492">
        <ele>1457.5</ele>
        <time>2020-07-21T14:18:04.000Z</time>
      </trkpt>
      <trkpt lat="44.93459" lon="5.35492">
        <ele>1457.4</ele>
        <time>2020-07-21T14:18:07.000Z</time>
      </trkpt>
      <trkpt lat="44.93449" lon="5.35494">
        <ele>1457</ele>
        <time>2020-07-21T14:18:10.000Z</time>
      </trkpt>
      <trkpt lat="44.93438" lon="5.35496">
        <ele>1457.1</ele>
        <time>2020-07-21T14:18:14.000Z</time>
      </trkpt>
      <trkpt lat="44.93428" lon="5.35494">
        <ele>1456.8</ele>
        <time>2020-07-21T14:18:17.000Z</time>
      </trkpt>
      <trkpt lat="44.93416" lon="5.35487">
        <ele>1457.4</ele>
        <time>2020-07-21T14:18:20.000Z</time>
      </trkpt>
      <trkpt lat="44.93407" lon="5.35481">
        <ele>1457.3</ele>
        <time>2020-07-21T14:18:22.000Z</time>
      </trkpt>
      <trkpt lat="44.93397" lon="5.3547">
        <ele>1457.6</ele>
        <time>2020-07-21T14:18:25.000Z</time>
      </trkpt>
      <trkpt lat="44.93384" lon="5.35464">
        <ele>1458.5</ele>
        <time>2020-07-21T14:18:27.000Z</time>
      </trkpt>
      <trkpt lat="44.9337" lon="5.35463">
        <ele>1459.5</ele>
        <time>2020-07-21T14:18:30.000Z</time>
      </trkpt>
      <trkpt lat="44.93358" lon="5.35464">
        <ele>1459.9</ele>
        <time>2020-07-21T14:18:32.000Z</time>
      </trkpt>
      <trkpt lat="44.93348" lon="5.35462">
        <ele>1460.1</ele>
        <time>2020-07-21T14:18:34.000Z</time>
      </trkpt>
      <trkpt lat="44.93335" lon="5.35461">
        <ele>1462</ele>
        <time>2020-07-21T14:18:37.000Z</time>
      </trkpt>
      <trkpt lat="44.93325" lon="5.35466">
        <ele>1462.6</ele>
        <time>2020-07-21T14:18:39.000Z</time>
      </trkpt>
      <trkpt lat="44.93314" lon="5.35474">
        <ele>1463.9</ele>
        <time>2020-07-21T14:18:42.000Z</time>
      </trkpt>
      <trkpt lat="44.93304" lon="5.35479">
        <ele>1464.4</ele>
        <time>2020-07-21T14:18:44.000Z</time>
      </trkpt>
      <trkpt lat="44.93293" lon="5.35489">
        <ele>1465.1</ele>
        <time>2020-07-21T14:18:47.000Z</time>
      </trkpt>
      <trkpt lat="44.93289" lon="5.35505">
        <ele>1467.1</ele>
        <time>2020-07-21T14:18:51.000Z</time>
      </trkpt>
      <trkpt lat="44.93287" lon="5.35519">
        <ele>1469.5</ele>
        <time>2020-07-21T14:18:56.000Z</time>
      </trkpt>
      <trkpt lat="44.93286" lon="5.35534">
        <ele>1471.3</ele>
        <time>2020-07-21T14:19:01.000Z</time>
      </trkpt>
      <trkpt lat="44.93285" lon="5.35547">
        <ele>1473.1</ele>
        <time>2020-07-21T14:19:08.000Z</time>
      </trkpt>
      <trkpt lat="44.93286" lon="5.35561">
        <ele>1476.9</ele>
        <time>2020-07-21T14:19:31.000Z</time>
      </trkpt>
      <trkpt lat="44.93286" lon="5.35574">
        <ele>1470.7</ele>
        <time>2020-07-21T14:20:20.000Z</time>
      </trkpt>
      <trkpt lat="44.93282" lon="5.35586">
        <ele>1477.2</ele>
        <time>2020-07-21T14:20:32.000Z</time>
      </trkpt>
      <trkpt lat="44.93274" lon="5.35593">
        <ele>1479.3</ele>
        <time>2020-07-21T14:20:41.000Z</time>
      </trkpt>
      <trkpt lat="44.93265" lon="5.356">
        <ele>1480.7</ele>
        <time>2020-07-21T14:20:51.000Z</time>
      </trkpt>
      <trkpt lat="44.93256" lon="5.35603">
        <ele>1482</ele>
        <time>2020-07-21T14:21:00.000Z</time>
      </trkpt>
      <trkpt lat="44.93247" lon="5.35605">
        <ele>1482.9</ele>
        <time>2020-07-21T14:21:08.000Z</time>
      </trkpt>
      <trkpt lat="44.93239" lon="5.3561">
        <ele>1483.8</ele>
        <time>2020-07-21T14:21:18.000Z</time>
      </trkpt>
      <trkpt lat="44.93232" lon="5.3562">
        <ele>1482.7</ele>
        <time>2020-07-21T14:21:32.000Z</time>
      </trkpt>
      <trkpt lat="44.93225" lon="5.35628">
        <ele>1480.8</ele>
        <time>2020-07-21T14:21:42.000Z</time>
      </trkpt>
      <trkpt lat="44.93215" lon="5.35629">
        <ele>1479.6</ele>
        <time>2020-07-21T14:21:49.000Z</time>
      </trkpt>
      <trkpt lat="44.93205" lon="5.3563">
        <ele>1478.1</ele>
        <time>2020-07-21T14:21:57.000Z</time>
      </trkpt>
      <trkpt lat="44.93195" lon="5.35629">
        <ele>1477.1</ele>
        <time>2020-07-21T14:22:05.000Z</time>
      </trkpt>
      <trkpt lat="44.93186" lon="5.35625">
        <ele>1476.6</ele>
        <time>2020-07-21T14:22:12.000Z</time>
      </trkpt>
      <trkpt lat="44.93176" lon="5.35626">
        <ele>1476.1</ele>
        <time>2020-07-21T14:22:20.000Z</time>
      </trkpt>
      <trkpt lat="44.93168" lon="5.35632">
        <ele>1475.4</ele>
        <time>2020-07-21T14:22:27.000Z</time>
      </trkpt>
      <trkpt lat="44.93159" lon="5.35639">
        <ele>1474.8</ele>
        <time>2020-07-21T14:22:35.000Z</time>
      </trkpt>
      <trkpt lat="44.93151" lon="5.35645">
        <ele>1474.3</ele>
        <time>2020-07-21T14:22:42.000Z</time>
      </trkpt>
      <trkpt lat="44.93143" lon="5.35652">
        <ele>1473.9</ele>
        <time>2020-07-21T14:22:49.000Z</time>
      </trkpt>
      <trkpt lat="44.93134" lon="5.35659">
        <ele>1473.8</ele>
        <time>2020-07-21T14:22:57.000Z</time>
      </trkpt>
      <trkpt lat="44.93126" lon="5.35667">
        <ele>1473.6</ele>
        <time>2020-07-21T14:23:06.000Z</time>
      </trkpt>
      <trkpt lat="44.93121" lon="5.35677">
        <ele>1472.8</ele>
        <time>2020-07-21T14:23:13.000Z</time>
      </trkpt>
      <trkpt lat="44.93114" lon="5.35687">
        <ele>1472</ele>
        <time>2020-07-21T14:23:22.000Z</time>
      </trkpt>
      <trkpt lat="44.93106" lon="5.35696">
        <ele>1470.9</ele>
        <time>2020-07-21T14:23:38.000Z</time>
      </trkpt>
      <trkpt lat="44.931" lon="5.35705">
        <ele>1470.9</ele>
        <time>2020-07-21T14:23:48.000Z</time>
      </trkpt>
      <trkpt lat="44.93094" lon="5.35716">
        <ele>1469.9</ele>
        <time>2020-07-21T14:23:58.000Z</time>
      </trkpt>
      <trkpt lat="44.93087" lon="5.35726">
        <ele>1468.8</ele>
        <time>2020-07-21T14:24:05.000Z</time>
      </trkpt>
      <trkpt lat="44.93081" lon="5.35736">
        <ele>1467.4</ele>
        <time>2020-07-21T14:24:12.000Z</time>
      </trkpt>
      <trkpt lat="44.93079" lon="5.35749">
        <ele>1466.7</ele>
        <time>2020-07-21T14:24:18.000Z</time>
      </trkpt>
      <trkpt lat="44.93073" lon="5.3576">
        <ele>1466.4</ele>
        <time>2020-07-21T14:24:28.000Z</time>
      </trkpt>
      <trkpt lat="44.93068" lon="5.3577">
        <ele>1466.3</ele>
        <time>2020-07-21T14:24:34.000Z</time>
      </trkpt>
      <trkpt lat="44.93059" lon="5.35778">
        <ele>1466.3</ele>
        <time>2020-07-21T14:24:41.000Z</time>
      </trkpt>
      <trkpt lat="44.9305" lon="5.35777">
        <ele>1466.3</ele>
        <time>2020-07-21T14:24:51.000Z</time>
      </trkpt>
      <trkpt lat="44.93042" lon="5.3577">
        <ele>1465.7</ele>
        <time>2020-07-21T14:24:59.000Z</time>
      </trkpt>
      <trkpt lat="44.93036" lon="5.35759">
        <ele>1465.2</ele>
        <time>2020-07-21T14:25:07.000Z</time>
      </trkpt>
      <trkpt lat="44.93032" lon="5.35747">
        <ele>1465</ele>
        <time>2020-07-21T14:25:14.000Z</time>
      </trkpt>
      <trkpt lat="44.93027" lon="5.35735">
        <ele>1465.1</ele>
        <time>2020-07-21T14:25:22.000Z</time>
      </trkpt>
      <trkpt lat="44.93017" lon="5.35737">
        <ele>1464.9</ele>
        <time>2020-07-21T14:25:28.000Z</time>
      </trkpt>
      <trkpt lat="44.9301" lon="5.35744">
        <ele>1464.7</ele>
        <time>2020-07-21T14:25:35.000Z</time>
      </trkpt>
      <trkpt lat="44.93003" lon="5.35755">
        <ele>1464.6</ele>
        <time>2020-07-21T14:25:42.000Z</time>
      </trkpt>
      <trkpt lat="44.93" lon="5.35767">
        <ele>1465.1</ele>
        <time>2020-07-21T14:25:50.000Z</time>
      </trkpt>
      <trkpt lat="44.92992" lon="5.35774">
        <ele>1466</ele>
        <time>2020-07-21T14:25:58.000Z</time>
      </trkpt>
      <trkpt lat="44.92983" lon="5.35778">
        <ele>1467.3</ele>
        <time>2020-07-21T14:26:07.000Z</time>
      </trkpt>
      <trkpt lat="44.92974" lon="5.35782">
        <ele>1467.9</ele>
        <time>2020-07-21T14:26:15.000Z</time>
      </trkpt>
      <trkpt lat="44.92964" lon="5.35782">
        <ele>1467.8</ele>
        <time>2020-07-21T14:26:22.000Z</time>
      </trkpt>
      <trkpt lat="44.92955" lon="5.35782">
        <ele>1467.8</ele>
        <time>2020-07-21T14:26:29.000Z</time>
      </trkpt>
      <trkpt lat="44.92946" lon="5.3578">
        <ele>1467.7</ele>
        <time>2020-07-21T14:26:37.000Z</time>
      </trkpt>
      <trkpt lat="44.92937" lon="5.3578">
        <ele>1465.2</ele>
        <time>2020-07-21T14:26:46.000Z</time>
      </trkpt>
      <trkpt lat="44.92927" lon="5.35778">
        <ele>1470.4</ele>
        <time>2020-07-21T14:26:53.000Z</time>
      </trkpt>
      <trkpt lat="44.92918" lon="5.35776">
        <ele>1467.6</ele>
        <time>2020-07-21T14:27:11.000Z</time>
      </trkpt>
      <trkpt lat="44.92909" lon="5.35772">
        <ele>1468.2</ele>
        <time>2020-07-21T14:28:36.000Z</time>
      </trkpt>
      <trkpt lat="44.92902" lon="5.3578">
        <ele>1467.9</ele>
        <time>2020-07-21T14:28:45.000Z</time>
      </trkpt>
      <trkpt lat="44.92897" lon="5.35793">
        <ele>1467.1</ele>
        <time>2020-07-21T14:28:54.000Z</time>
      </trkpt>
      <trkpt lat="44.92893" lon="5.35805">
        <ele>1466.2</ele>
        <time>2020-07-21T14:29:01.000Z</time>
      </trkpt>
      <trkpt lat="44.9289" lon="5.35818">
        <ele>1465.2</ele>
        <time>2020-07-21T14:29:09.000Z</time>
      </trkpt>
      <trkpt lat="44.92887" lon="5.35831">
        <ele>1464.4</ele>
        <time>2020-07-21T14:29:17.000Z</time>
      </trkpt>
      <trkpt lat="44.92885" lon="5.35844">
        <ele>1463.8</ele>
        <time>2020-07-21T14:29:26.000Z</time>
      </trkpt>
      <trkpt lat="44.92879" lon="5.35855">
        <ele>1463.4</ele>
        <time>2020-07-21T14:29:37.000Z</time>
      </trkpt>
      <trkpt lat="44.92871" lon="5.35861">
        <ele>1463.9</ele>
        <time>2020-07-21T14:29:47.000Z</time>
      </trkpt>
      <trkpt lat="44.92865" lon="5.35871">
        <ele>1464.6</ele>
        <time>2020-07-21T14:29:53.000Z</time>
      </trkpt>
      <trkpt lat="44.92858" lon="5.3588">
        <ele>1465.3</ele>
        <time>2020-07-21T14:30:02.000Z</time>
      </trkpt>
      <trkpt lat="44.92853" lon="5.35891">
        <ele>1465.7</ele>
        <time>2020-07-21T14:30:10.000Z</time>
      </trkpt>
      <trkpt lat="44.92849" lon="5.35902">
        <ele>1466.3</ele>
        <time>2020-07-21T14:30:18.000Z</time>
      </trkpt>
      <trkpt lat="44.92846" lon="5.35915">
        <ele>1466.9</ele>
        <time>2020-07-21T14:30:26.000Z</time>
      </trkpt>
      <trkpt lat="44.92844" lon="5.35928">
        <ele>1467.7</ele>
        <time>2020-07-21T14:30:36.000Z</time>
      </trkpt>
      <trkpt lat="44.92842" lon="5.35942">
        <ele>1468.5</ele>
        <time>2020-07-21T14:30:44.000Z</time>
      </trkpt>
      <trkpt lat="44.9284" lon="5.35956">
        <ele>1469</ele>
        <time>2020-07-21T14:30:53.000Z</time>
      </trkpt>
      <trkpt lat="44.92839" lon="5.35969">
        <ele>1469.5</ele>
        <time>2020-07-21T14:31:00.000Z</time>
      </trkpt>
      <trkpt lat="44.92838" lon="5.35983">
        <ele>1470.1</ele>
        <time>2020-07-21T14:31:09.000Z</time>
      </trkpt>
      <trkpt lat="44.92837" lon="5.35996">
        <ele>1470.8</ele>
        <time>2020-07-21T14:31:20.000Z</time>
      </trkpt>
      <trkpt lat="44.92838" lon="5.36011">
        <ele>1471.2</ele>
        <time>2020-07-21T14:31:29.000Z</time>
      </trkpt>
      <trkpt lat="44.92842" lon="5.36023">
        <ele>1471.6</ele>
        <time>2020-07-21T14:31:35.000Z</time>
      </trkpt>
      <trkpt lat="44.92846" lon="5.36035">
        <ele>1472.4</ele>
        <time>2020-07-21T14:31:43.000Z</time>
      </trkpt>
      <trkpt lat="44.92845" lon="5.3605">
        <ele>1473.2</ele>
        <time>2020-07-21T14:31:53.000Z</time>
      </trkpt>
      <trkpt lat="44.92841" lon="5.36061">
        <ele>1473.8</ele>
        <time>2020-07-21T14:32:02.000Z</time>
      </trkpt>
      <trkpt lat="44.92836" lon="5.36073">
        <ele>1474.1</ele>
        <time>2020-07-21T14:32:11.000Z</time>
      </trkpt>
      <trkpt lat="44.92833" lon="5.36086">
        <ele>1474.2</ele>
        <time>2020-07-21T14:32:19.000Z</time>
      </trkpt>
      <trkpt lat="44.92827" lon="5.36098">
        <ele>1474.2</ele>
        <time>2020-07-21T14:32:27.000Z</time>
      </trkpt>
      <trkpt lat="44.92825" lon="5.36112">
        <ele>1473.9</ele>
        <time>2020-07-21T14:32:35.000Z</time>
      </trkpt>
      <trkpt lat="44.92823" lon="5.36125">
        <ele>1473.2</ele>
        <time>2020-07-21T14:32:44.000Z</time>
      </trkpt>
      <trkpt lat="44.92819" lon="5.36138">
        <ele>1472.2</ele>
        <time>2020-07-21T14:32:54.000Z</time>
      </trkpt>
      <trkpt lat="44.92818" lon="5.36152">
        <ele>1470.6</ele>
        <time>2020-07-21T14:33:03.000Z</time>
      </trkpt>
      <trkpt lat="44.92818" lon="5.36166">
        <ele>1469.1</ele>
        <time>2020-07-21T14:33:12.000Z</time>
      </trkpt>
      <trkpt lat="44.92817" lon="5.36179">
        <ele>1467.9</ele>
        <time>2020-07-21T14:33:19.000Z</time>
      </trkpt>
      <trkpt lat="44.92819" lon="5.36192">
        <ele>1466.7</ele>
        <time>2020-07-21T14:33:27.000Z</time>
      </trkpt>
      <trkpt lat="44.92819" lon="5.36205">
        <ele>1465.8</ele>
        <time>2020-07-21T14:33:34.000Z</time>
      </trkpt>
      <trkpt lat="44.92816" lon="5.36218">
        <ele>1465.3</ele>
        <time>2020-07-21T14:33:42.000Z</time>
      </trkpt>
      <trkpt lat="44.92813" lon="5.36232">
        <ele>1465.1</ele>
        <time>2020-07-21T14:33:50.000Z</time>
      </trkpt>
      <trkpt lat="44.92811" lon="5.36246">
        <ele>1465</ele>
        <time>2020-07-21T14:33:57.000Z</time>
      </trkpt>
      <trkpt lat="44.92807" lon="5.3626">
        <ele>1464.9</ele>
        <time>2020-07-21T14:34:05.000Z</time>
      </trkpt>
      <trkpt lat="44.92804" lon="5.36273">
        <ele>1464.7</ele>
        <time>2020-07-21T14:34:13.000Z</time>
      </trkpt>
      <trkpt lat="44.92802" lon="5.36285">
        <ele>1464.5</ele>
        <time>2020-07-21T14:34:20.000Z</time>
      </trkpt>
      <trkpt lat="44.92799" lon="5.36299">
        <ele>1463.8</ele>
        <time>2020-07-21T14:34:27.000Z</time>
      </trkpt>
      <trkpt lat="44.92799" lon="5.36312">
        <ele>1462.8</ele>
        <time>2020-07-21T14:34:37.000Z</time>
      </trkpt>
      <trkpt lat="44.92797" lon="5.36327">
        <ele>1461.8</ele>
        <time>2020-07-21T14:34:45.000Z</time>
      </trkpt>
      <trkpt lat="44.92795" lon="5.36341">
        <ele>1461.1</ele>
        <time>2020-07-21T14:34:53.000Z</time>
      </trkpt>
      <trkpt lat="44.92792" lon="5.36354">
        <ele>1460.5</ele>
        <time>2020-07-21T14:35:00.000Z</time>
      </trkpt>
      <trkpt lat="44.9279" lon="5.36368">
        <ele>1460.1</ele>
        <time>2020-07-21T14:35:07.000Z</time>
      </trkpt>
      <trkpt lat="44.92785" lon="5.3638">
        <ele>1460</ele>
        <time>2020-07-21T14:35:13.000Z</time>
      </trkpt>
      <trkpt lat="44.92781" lon="5.36392">
        <ele>1459.8</ele>
        <time>2020-07-21T14:35:18.000Z</time>
      </trkpt>
      <trkpt lat="44.92775" lon="5.36404">
        <ele>1459.6</ele>
        <time>2020-07-21T14:35:23.000Z</time>
      </trkpt>
      <trkpt lat="44.9277" lon="5.36415">
        <ele>1459.1</ele>
        <time>2020-07-21T14:35:28.000Z</time>
      </trkpt>
      <trkpt lat="44.92763" lon="5.36428">
        <ele>1458.7</ele>
        <time>2020-07-21T14:35:32.000Z</time>
      </trkpt>
      <trkpt lat="44.92759" lon="5.3644">
        <ele>1457.9</ele>
        <time>2020-07-21T14:35:38.000Z</time>
      </trkpt>
      <trkpt lat="44.92755" lon="5.36452">
        <ele>1457.1</ele>
        <time>2020-07-21T14:35:45.000Z</time>
      </trkpt>
      <trkpt lat="44.92751" lon="5.36464">
        <ele>1456.2</ele>
        <time>2020-07-21T14:35:52.000Z</time>
      </trkpt>
      <trkpt lat="44.92745" lon="5.36475">
        <ele>1453.5</ele>
        <time>2020-07-21T14:36:07.000Z</time>
      </trkpt>
      <trkpt lat="44.92738" lon="5.36483">
        <ele>1451</ele>
        <time>2020-07-21T14:36:19.000Z</time>
      </trkpt>
      <trkpt lat="44.92728" lon="5.36483">
        <ele>1447.8</ele>
        <time>2020-07-21T14:36:35.000Z</time>
      </trkpt>
      <trkpt lat="44.9272" lon="5.36489">
        <ele>1446.5</ele>
        <time>2020-07-21T14:36:45.000Z</time>
      </trkpt>
      <trkpt lat="44.9271" lon="5.36494">
        <ele>1445.7</ele>
        <time>2020-07-21T14:36:53.000Z</time>
      </trkpt>
      <trkpt lat="44.927" lon="5.36498">
        <ele>1445.2</ele>
        <time>2020-07-21T14:37:01.000Z</time>
      </trkpt>
      <trkpt lat="44.92692" lon="5.36505">
        <ele>1444.4</ele>
        <time>2020-07-21T14:37:09.000Z</time>
      </trkpt>
      <trkpt lat="44.92683" lon="5.36509">
        <ele>1444.1</ele>
        <time>2020-07-21T14:37:15.000Z</time>
      </trkpt>
      <trkpt lat="44.92674" lon="5.36516">
        <ele>1444.7</ele>
        <time>2020-07-21T14:37:24.000Z</time>
      </trkpt>
      <trkpt lat="44.92666" lon="5.36524">
        <ele>1445.9</ele>
        <time>2020-07-21T14:37:34.000Z</time>
      </trkpt>
      <trkpt lat="44.92659" lon="5.36533">
        <ele>1446.7</ele>
        <time>2020-07-21T14:37:42.000Z</time>
      </trkpt>
      <trkpt lat="44.9265" lon="5.3654">
        <ele>1447.6</ele>
        <time>2020-07-21T14:37:51.000Z</time>
      </trkpt>
      <trkpt lat="44.92641" lon="5.36551">
        <ele>1447.8</ele>
        <time>2020-07-21T14:37:58.000Z</time>
      </trkpt>
      <trkpt lat="44.92634" lon="5.36561">
        <ele>1447.9</ele>
        <time>2020-07-21T14:38:09.000Z</time>
      </trkpt>
      <trkpt lat="44.92627" lon="5.3657">
        <ele>1447.6</ele>
        <time>2020-07-21T14:38:16.000Z</time>
      </trkpt>
      <trkpt lat="44.92622" lon="5.36582">
        <ele>1447.2</ele>
        <time>2020-07-21T14:38:23.000Z</time>
      </trkpt>
      <trkpt lat="44.92617" lon="5.36593">
        <ele>1446.7</ele>
        <time>2020-07-21T14:38:30.000Z</time>
      </trkpt>
      <trkpt lat="44.92612" lon="5.36605">
        <ele>1446</ele>
        <time>2020-07-21T14:38:37.000Z</time>
      </trkpt>
      <trkpt lat="44.92608" lon="5.36618">
        <ele>1445.2</ele>
        <time>2020-07-21T14:38:44.000Z</time>
      </trkpt>
      <trkpt lat="44.92606" lon="5.3663">
        <ele>1444.8</ele>
        <time>2020-07-21T14:38:51.000Z</time>
      </trkpt>
      <trkpt lat="44.92602" lon="5.36642">
        <ele>1444.1</ele>
        <time>2020-07-21T14:38:58.000Z</time>
      </trkpt>
      <trkpt lat="44.92593" lon="5.36648">
        <ele>1443.8</ele>
        <time>2020-07-21T14:39:06.000Z</time>
      </trkpt>
      <trkpt lat="44.92586" lon="5.36656">
        <ele>1443.9</ele>
        <time>2020-07-21T14:39:14.000Z</time>
      </trkpt>
      <trkpt lat="44.92579" lon="5.36667">
        <ele>1444.1</ele>
        <time>2020-07-21T14:39:21.000Z</time>
      </trkpt>
      <trkpt lat="44.92571" lon="5.36674">
        <ele>1444.5</ele>
        <time>2020-07-21T14:39:28.000Z</time>
      </trkpt>
      <trkpt lat="44.92562" lon="5.3668">
        <ele>1444.7</ele>
        <time>2020-07-21T14:39:36.000Z</time>
      </trkpt>
      <trkpt lat="44.92554" lon="5.36683">
        <ele>1444.9</ele>
        <time>2020-07-21T14:39:44.000Z</time>
      </trkpt>
      <trkpt lat="44.92544" lon="5.36683">
        <ele>1445</ele>
        <time>2020-07-21T14:39:53.000Z</time>
      </trkpt>
      <trkpt lat="44.92534" lon="5.36682">
        <ele>1445</ele>
        <time>2020-07-21T14:40:00.000Z</time>
      </trkpt>
      <trkpt lat="44.92525" lon="5.36682">
        <ele>1445.1</ele>
        <time>2020-07-21T14:40:09.000Z</time>
      </trkpt>
      <trkpt lat="44.92519" lon="5.36671">
        <ele>1445.5</ele>
        <time>2020-07-21T14:40:29.000Z</time>
      </trkpt>
      <trkpt lat="44.92512" lon="5.36661">
        <ele>1445.3</ele>
        <time>2020-07-21T14:40:36.000Z</time>
      </trkpt>
      <trkpt lat="44.92505" lon="5.36649">
        <ele>1445.2</ele>
        <time>2020-07-21T14:40:41.000Z</time>
      </trkpt>
      <trkpt lat="44.925" lon="5.36636">
        <ele>1440.8</ele>
        <time>2020-07-21T14:40:50.000Z</time>
      </trkpt>
      <trkpt lat="44.92494" lon="5.36625">
        <ele>1445.5</ele>
        <time>2020-07-21T14:40:57.000Z</time>
      </trkpt>
      <trkpt lat="44.92489" lon="5.36615">
        <ele>1448.5</ele>
        <time>2020-07-21T14:41:04.000Z</time>
      </trkpt>
      <trkpt lat="44.92484" lon="5.36601">
        <ele>1433.9</ele>
        <time>2020-07-21T14:41:15.000Z</time>
      </trkpt>
      <trkpt lat="44.92483" lon="5.36588">
        <ele>1455.2</ele>
        <time>2020-07-21T14:41:26.000Z</time>
      </trkpt>
      <trkpt lat="44.92479" lon="5.36576">
        <ele>1456.8</ele>
        <time>2020-07-21T14:41:39.000Z</time>
      </trkpt>
      <trkpt lat="44.92479" lon="5.36563">
        <ele>1457.8</ele>
        <time>2020-07-21T14:41:50.000Z</time>
      </trkpt>
      <trkpt lat="44.92477" lon="5.3655">
        <ele>1458.8</ele>
        <time>2020-07-21T14:42:02.000Z</time>
      </trkpt>
      <trkpt lat="44.92474" lon="5.36538">
        <ele>1459.8</ele>
        <time>2020-07-21T14:42:13.000Z</time>
      </trkpt>
      <trkpt lat="44.9247" lon="5.36525">
        <ele>1461.1</ele>
        <time>2020-07-21T14:42:21.000Z</time>
      </trkpt>
      <trkpt lat="44.92467" lon="5.36514">
        <ele>1462.5</ele>
        <time>2020-07-21T14:42:30.000Z</time>
      </trkpt>
      <trkpt lat="44.92463" lon="5.36501">
        <ele>1464</ele>
        <time>2020-07-21T14:42:41.000Z</time>
      </trkpt>
      <trkpt lat="44.92459" lon="5.36489">
        <ele>1464.7</ele>
        <time>2020-07-21T14:42:48.000Z</time>
      </trkpt>
      <trkpt lat="44.92454" lon="5.36477">
        <ele>1465</ele>
        <time>2020-07-21T14:42:53.000Z</time>
      </trkpt>
      <trkpt lat="44.92451" lon="5.36463">
        <ele>1465</ele>
        <time>2020-07-21T14:42:57.000Z</time>
      </trkpt>
      <trkpt lat="44.92447" lon="5.3645">
        <ele>1465.1</ele>
        <time>2020-07-21T14:43:00.000Z</time>
      </trkpt>
      <trkpt lat="44.92443" lon="5.36439">
        <ele>1465.1</ele>
        <time>2020-07-21T14:43:03.000Z</time>
      </trkpt>
      <trkpt lat="44.9244" lon="5.36425">
        <ele>1465.2</ele>
        <time>2020-07-21T14:43:07.000Z</time>
      </trkpt>
      <trkpt lat="44.92436" lon="5.36413">
        <ele>1465.4</ele>
        <time>2020-07-21T14:43:11.000Z</time>
      </trkpt>
      <trkpt lat="44.9243" lon="5.36404">
        <ele>1465.9</ele>
        <time>2020-07-21T14:43:16.000Z</time>
      </trkpt>
      <trkpt lat="44.92423" lon="5.36395">
        <ele>1466.3</ele>
        <time>2020-07-21T14:43:22.000Z</time>
      </trkpt>
      <trkpt lat="44.92416" lon="5.36386">
        <ele>1466.4</ele>
        <time>2020-07-21T14:43:28.000Z</time>
      </trkpt>
      <trkpt lat="44.92409" lon="5.36378">
        <ele>1466.2</ele>
        <time>2020-07-21T14:43:33.000Z</time>
      </trkpt>
      <trkpt lat="44.92401" lon="5.36369">
        <ele>1465.8</ele>
        <time>2020-07-21T14:43:39.000Z</time>
      </trkpt>
      <trkpt lat="44.92392" lon="5.36363">
        <ele>1465.2</ele>
        <time>2020-07-21T14:43:46.000Z</time>
      </trkpt>
      <trkpt lat="44.92383" lon="5.36355">
        <ele>1463</ele>
        <time>2020-07-21T14:43:55.000Z</time>
      </trkpt>
      <trkpt lat="44.92375" lon="5.3635">
        <ele>1462.7</ele>
        <time>2020-07-21T14:44:01.000Z</time>
      </trkpt>
      <trkpt lat="44.92366" lon="5.36347">
        <ele>1459.5</ele>
        <time>2020-07-21T14:44:06.000Z</time>
      </trkpt>
      <trkpt lat="44.92356" lon="5.36347">
        <ele>1465.5</ele>
        <time>2020-07-21T14:44:11.000Z</time>
      </trkpt>
      <trkpt lat="44.92363" lon="5.36355">
        <ele>1456.6</ele>
        <time>2020-07-21T14:44:36.000Z</time>
      </trkpt>
      <trkpt lat="44.9237" lon="5.36341">
        <ele>1466.8</ele>
        <time>2020-07-21T14:44:52.000Z</time>
      </trkpt>
      <trkpt lat="44.92369" lon="5.36328">
        <ele>1465.5</ele>
        <time>2020-07-21T14:44:57.000Z</time>
      </trkpt>
      <trkpt lat="44.92366" lon="5.36316">
        <ele>1464.1</ele>
        <time>2020-07-21T14:45:04.000Z</time>
      </trkpt>
      <trkpt lat="44.92364" lon="5.36303">
        <ele>1463.5</ele>
        <time>2020-07-21T14:45:11.000Z</time>
      </trkpt>
      <trkpt lat="44.92363" lon="5.3629">
        <ele>1463.2</ele>
        <time>2020-07-21T14:45:20.000Z</time>
      </trkpt>
      <trkpt lat="44.92363" lon="5.36277">
        <ele>1462.8</ele>
        <time>2020-07-21T14:45:28.000Z</time>
      </trkpt>
      <trkpt lat="44.9236" lon="5.36265">
        <ele>1462.2</ele>
        <time>2020-07-21T14:45:37.000Z</time>
      </trkpt>
      <trkpt lat="44.92357" lon="5.3625">
        <ele>1461.4</ele>
        <time>2020-07-21T14:45:44.000Z</time>
      </trkpt>
      <trkpt lat="44.92354" lon="5.36238">
        <ele>1460.7</ele>
        <time>2020-07-21T14:45:50.000Z</time>
      </trkpt>
      <trkpt lat="44.92349" lon="5.36226">
        <ele>1459.6</ele>
        <time>2020-07-21T14:45:57.000Z</time>
      </trkpt>
      <trkpt lat="44.92346" lon="5.36214">
        <ele>1457.9</ele>
        <time>2020-07-21T14:46:07.000Z</time>
      </trkpt>
      <trkpt lat="44.92343" lon="5.36201">
        <ele>1456.5</ele>
        <time>2020-07-21T14:46:15.000Z</time>
      </trkpt>
      <trkpt lat="44.92341" lon="5.36188">
        <ele>1455.4</ele>
        <time>2020-07-21T14:46:22.000Z</time>
      </trkpt>
      <trkpt lat="44.92337" lon="5.36174">
        <ele>1454.3</ele>
        <time>2020-07-21T14:46:29.000Z</time>
      </trkpt>
      <trkpt lat="44.92335" lon="5.3616">
        <ele>1452.9</ele>
        <time>2020-07-21T14:46:36.000Z</time>
      </trkpt>
      <trkpt lat="44.92335" lon="5.36147">
        <ele>1451.8</ele>
        <time>2020-07-21T14:46:43.000Z</time>
      </trkpt>
      <trkpt lat="44.92334" lon="5.36134">
        <ele>1451.2</ele>
        <time>2020-07-21T14:46:50.000Z</time>
      </trkpt>
      <trkpt lat="44.92331" lon="5.36121">
        <ele>1450.2</ele>
        <time>2020-07-21T14:46:59.000Z</time>
      </trkpt>
      <trkpt lat="44.92331" lon="5.36108">
        <ele>1449.7</ele>
        <time>2020-07-21T14:47:07.000Z</time>
      </trkpt>
      <trkpt lat="44.92328" lon="5.36095">
        <ele>1449.4</ele>
        <time>2020-07-21T14:47:13.000Z</time>
      </trkpt>
      <trkpt lat="44.92331" lon="5.36082">
        <ele>1447.8</ele>
        <time>2020-07-21T14:48:01.000Z</time>
      </trkpt>
      <trkpt lat="44.92331" lon="5.36069">
        <ele>1447.4</ele>
        <time>2020-07-21T14:48:39.000Z</time>
      </trkpt>
      <trkpt lat="44.92332" lon="5.36056">
        <ele>1447.1</ele>
        <time>2020-07-21T14:48:53.000Z</time>
      </trkpt>
      <trkpt lat="44.92332" lon="5.36043">
        <ele>1445.7</ele>
        <time>2020-07-21T14:49:02.000Z</time>
      </trkpt>
      <trkpt lat="44.92333" lon="5.36028">
        <ele>1443.9</ele>
        <time>2020-07-21T14:49:10.000Z</time>
      </trkpt>
      <trkpt lat="44.92334" lon="5.36016">
        <ele>1442.6</ele>
        <time>2020-07-21T14:49:18.000Z</time>
      </trkpt>
      <trkpt lat="44.92335" lon="5.36002">
        <ele>1441.7</ele>
        <time>2020-07-21T14:49:26.000Z</time>
      </trkpt>
      <trkpt lat="44.92336" lon="5.35988">
        <ele>1440.7</ele>
        <time>2020-07-21T14:49:34.000Z</time>
      </trkpt>
      <trkpt lat="44.92337" lon="5.35975">
        <ele>1440.1</ele>
        <time>2020-07-21T14:49:41.000Z</time>
      </trkpt>
      <trkpt lat="44.92337" lon="5.35961">
        <ele>1439.4</ele>
        <time>2020-07-21T14:49:48.000Z</time>
      </trkpt>
      <trkpt lat="44.92335" lon="5.35947">
        <ele>1438.9</ele>
        <time>2020-07-21T14:49:56.000Z</time>
      </trkpt>
      <trkpt lat="44.92332" lon="5.35934">
        <ele>1438.1</ele>
        <time>2020-07-21T14:50:05.000Z</time>
      </trkpt>
      <trkpt lat="44.92329" lon="5.35922">
        <ele>1436.5</ele>
        <time>2020-07-21T14:50:15.000Z</time>
      </trkpt>
      <trkpt lat="44.92323" lon="5.35912">
        <ele>1434.8</ele>
        <time>2020-07-21T14:50:23.000Z</time>
      </trkpt>
      <trkpt lat="44.92319" lon="5.35898">
        <ele>1433.6</ele>
        <time>2020-07-21T14:50:30.000Z</time>
      </trkpt>
      <trkpt lat="44.92317" lon="5.35885">
        <ele>1432.9</ele>
        <time>2020-07-21T14:50:37.000Z</time>
      </trkpt>
      <trkpt lat="44.92314" lon="5.35871">
        <ele>1432.4</ele>
        <time>2020-07-21T14:50:44.000Z</time>
      </trkpt>
      <trkpt lat="44.92312" lon="5.35857">
        <ele>1432.1</ele>
        <time>2020-07-21T14:50:49.000Z</time>
      </trkpt>
      <trkpt lat="44.92311" lon="5.3584">
        <ele>1431.7</ele>
        <time>2020-07-21T14:50:53.000Z</time>
      </trkpt>
      <trkpt lat="44.9231" lon="5.35821">
        <ele>1431.6</ele>
        <time>2020-07-21T14:50:56.000Z</time>
      </trkpt>
      <trkpt lat="44.92309" lon="5.35807">
        <ele>1431.7</ele>
        <time>2020-07-21T14:50:58.000Z</time>
      </trkpt>
      <trkpt lat="44.92307" lon="5.35794">
        <ele>1431.6</ele>
        <time>2020-07-21T14:51:00.000Z</time>
      </trkpt>
      <trkpt lat="44.92305" lon="5.3578">
        <ele>1431.5</ele>
        <time>2020-07-21T14:51:02.000Z</time>
      </trkpt>
      <trkpt lat="44.92304" lon="5.35766">
        <ele>1431.2</ele>
        <time>2020-07-21T14:51:04.000Z</time>
      </trkpt>
      <trkpt lat="44.92302" lon="5.35753">
        <ele>1430.7</ele>
        <time>2020-07-21T14:51:06.000Z</time>
      </trkpt>
      <trkpt lat="44.92301" lon="5.35737">
        <ele>1430.2</ele>
        <time>2020-07-21T14:51:09.000Z</time>
      </trkpt>
      <trkpt lat="44.92301" lon="5.35724">
        <ele>1429.7</ele>
        <time>2020-07-21T14:51:12.000Z</time>
      </trkpt>
      <trkpt lat="44.923" lon="5.35711">
        <ele>1429.1</ele>
        <time>2020-07-21T14:51:15.000Z</time>
      </trkpt>
      <trkpt lat="44.92295" lon="5.35698">
        <ele>1428.5</ele>
        <time>2020-07-21T14:51:18.000Z</time>
      </trkpt>
      <trkpt lat="44.92283" lon="5.3569">
        <ele>1427.9</ele>
        <time>2020-07-21T14:51:21.000Z</time>
      </trkpt>
      <trkpt lat="44.92275" lon="5.35688">
        <ele>1427.4</ele>
        <time>2020-07-21T14:51:23.000Z</time>
      </trkpt>
      <trkpt lat="44.92265" lon="5.35683">
        <ele>1426.9</ele>
        <time>2020-07-21T14:51:26.000Z</time>
      </trkpt>
      <trkpt lat="44.92255" lon="5.3568">
        <ele>1426.8</ele>
        <time>2020-07-21T14:51:31.000Z</time>
      </trkpt>
      <trkpt lat="44.92245" lon="5.35681">
        <ele>1425.7</ele>
        <time>2020-07-21T14:51:39.000Z</time>
      </trkpt>
      <trkpt lat="44.92235" lon="5.35678">
        <ele>1424.9</ele>
        <time>2020-07-21T14:51:45.000Z</time>
      </trkpt>
      <trkpt lat="44.92225" lon="5.35676">
        <ele>1424.2</ele>
        <time>2020-07-21T14:51:52.000Z</time>
      </trkpt>
      <trkpt lat="44.92216" lon="5.35674">
        <ele>1423.9</ele>
        <time>2020-07-21T14:51:57.000Z</time>
      </trkpt>
      <trkpt lat="44.92205" lon="5.35673">
        <ele>1423.8</ele>
        <time>2020-07-21T14:52:01.000Z</time>
      </trkpt>
      <trkpt lat="44.92194" lon="5.35668">
        <ele>1424</ele>
        <time>2020-07-21T14:52:05.000Z</time>
      </trkpt>
      <trkpt lat="44.92184" lon="5.35653">
        <ele>1424.2</ele>
        <time>2020-07-21T14:52:08.000Z</time>
      </trkpt>
      <trkpt lat="44.92177" lon="5.35641">
        <ele>1424.1</ele>
        <time>2020-07-21T14:52:10.000Z</time>
      </trkpt>
      <trkpt lat="44.9217" lon="5.35629">
        <ele>1424</ele>
        <time>2020-07-21T14:52:12.000Z</time>
      </trkpt>
      <trkpt lat="44.92162" lon="5.35618">
        <ele>1424</ele>
        <time>2020-07-21T14:52:14.000Z</time>
      </trkpt>
      <trkpt lat="44.92155" lon="5.35605">
        <ele>1424.1</ele>
        <time>2020-07-21T14:52:16.000Z</time>
      </trkpt>
      <trkpt lat="44.92146" lon="5.35593">
        <ele>1424.7</ele>
        <time>2020-07-21T14:52:18.000Z</time>
      </trkpt>
      <trkpt lat="44.92136" lon="5.35583">
        <ele>1425.2</ele>
        <time>2020-07-21T14:52:20.000Z</time>
      </trkpt>
      <trkpt lat="44.92126" lon="5.35575">
        <ele>1425.9</ele>
        <time>2020-07-21T14:52:22.000Z</time>
      </trkpt>
      <trkpt lat="44.92116" lon="5.35571">
        <ele>1426.6</ele>
        <time>2020-07-21T14:52:24.000Z</time>
      </trkpt>
      <trkpt lat="44.92105" lon="5.35566">
        <ele>1427.4</ele>
        <time>2020-07-21T14:52:26.000Z</time>
      </trkpt>
      <trkpt lat="44.92095" lon="5.35564">
        <ele>1428</ele>
        <time>2020-07-21T14:52:28.000Z</time>
      </trkpt>
      <trkpt lat="44.92085" lon="5.35564">
        <ele>1428.9</ele>
        <time>2020-07-21T14:52:30.000Z</time>
      </trkpt>
      <trkpt lat="44.92076" lon="5.35565">
        <ele>1429.9</ele>
        <time>2020-07-21T14:52:32.000Z</time>
      </trkpt>
      <trkpt lat="44.92066" lon="5.35568">
        <ele>1430.9</ele>
        <time>2020-07-21T14:52:34.000Z</time>
      </trkpt>
      <trkpt lat="44.92057" lon="5.35572">
        <ele>1431.7</ele>
        <time>2020-07-21T14:52:36.000Z</time>
      </trkpt>
      <trkpt lat="44.92048" lon="5.35576">
        <ele>1432.4</ele>
        <time>2020-07-21T14:52:38.000Z</time>
      </trkpt>
      <trkpt lat="44.92039" lon="5.35579">
        <ele>1432.9</ele>
        <time>2020-07-21T14:52:40.000Z</time>
      </trkpt>
      <trkpt lat="44.92028" lon="5.35585">
        <ele>1433.5</ele>
        <time>2020-07-21T14:52:43.000Z</time>
      </trkpt>
      <trkpt lat="44.92019" lon="5.3559">
        <ele>1434</ele>
        <time>2020-07-21T14:52:46.000Z</time>
      </trkpt>
      <trkpt lat="44.92009" lon="5.35595">
        <ele>1434.5</ele>
        <time>2020-07-21T14:52:49.000Z</time>
      </trkpt>
      <trkpt lat="44.91999" lon="5.35599">
        <ele>1434.8</ele>
        <time>2020-07-21T14:52:52.000Z</time>
      </trkpt>
      <trkpt lat="44.91989" lon="5.35603">
        <ele>1434.8</ele>
        <time>2020-07-21T14:52:54.000Z</time>
      </trkpt>
      <trkpt lat="44.91976" lon="5.35606">
        <ele>1435.4</ele>
        <time>2020-07-21T14:52:57.000Z</time>
      </trkpt>
      <trkpt lat="44.91967" lon="5.35612">
        <ele>1435.9</ele>
        <time>2020-07-21T14:52:59.000Z</time>
      </trkpt>
      <trkpt lat="44.91958" lon="5.35616">
        <ele>1437.1</ele>
        <time>2020-07-21T14:53:02.000Z</time>
      </trkpt>
      <trkpt lat="44.91949" lon="5.35619">
        <ele>1440.3</ele>
        <time>2020-07-21T14:53:10.000Z</time>
      </trkpt>
      <trkpt lat="44.91943" lon="5.35608">
        <ele>1443</ele>
        <time>2020-07-21T14:53:19.000Z</time>
      </trkpt>
      <trkpt lat="44.91938" lon="5.3562">
        <ele>1445.2</ele>
        <time>2020-07-21T14:54:24.000Z</time>
      </trkpt>
      <trkpt lat="44.91934" lon="5.35632">
        <ele>1445.5</ele>
        <time>2020-07-21T14:54:32.000Z</time>
      </trkpt>
      <trkpt lat="44.91927" lon="5.35641">
        <ele>1446.1</ele>
        <time>2020-07-21T14:54:40.000Z</time>
      </trkpt>
      <trkpt lat="44.91919" lon="5.35651">
        <ele>1446.2</ele>
        <time>2020-07-21T14:54:49.000Z</time>
      </trkpt>
      <trkpt lat="44.91913" lon="5.35662">
        <ele>1445.9</ele>
        <time>2020-07-21T14:54:58.000Z</time>
      </trkpt>
      <trkpt lat="44.91905" lon="5.35671">
        <ele>1445.4</ele>
        <time>2020-07-21T14:55:06.000Z</time>
      </trkpt>
      <trkpt lat="44.91898" lon="5.35679">
        <ele>1444.6</ele>
        <time>2020-07-21T14:55:13.000Z</time>
      </trkpt>
      <trkpt lat="44.91889" lon="5.35684">
        <ele>1443.5</ele>
        <time>2020-07-21T14:55:26.000Z</time>
      </trkpt>
      <trkpt lat="44.9188" lon="5.35688">
        <ele>1443.3</ele>
        <time>2020-07-21T14:55:34.000Z</time>
      </trkpt>
      <trkpt lat="44.91871" lon="5.3569">
        <ele>1443.7</ele>
        <time>2020-07-21T14:55:43.000Z</time>
      </trkpt>
      <trkpt lat="44.91862" lon="5.35694">
        <ele>1444.4</ele>
        <time>2020-07-21T14:55:51.000Z</time>
      </trkpt>
      <trkpt lat="44.91852" lon="5.35694">
        <ele>1446.6</ele>
        <time>2020-07-21T14:56:03.000Z</time>
      </trkpt>
      <trkpt lat="44.91843" lon="5.35695">
        <ele>1448</ele>
        <time>2020-07-21T14:56:11.000Z</time>
      </trkpt>
      <trkpt lat="44.91834" lon="5.35693">
        <ele>1450</ele>
        <time>2020-07-21T14:56:24.000Z</time>
      </trkpt>
      <trkpt lat="44.91826" lon="5.35685">
        <ele>1450.9</ele>
        <time>2020-07-21T14:56:34.000Z</time>
      </trkpt>
      <trkpt lat="44.91817" lon="5.35681">
        <ele>1451.3</ele>
        <time>2020-07-21T14:56:44.000Z</time>
      </trkpt>
      <trkpt lat="44.91807" lon="5.35684">
        <ele>1450.4</ele>
        <time>2020-07-21T14:56:50.000Z</time>
      </trkpt>
      <trkpt lat="44.91797" lon="5.35684">
        <ele>1455.7</ele>
        <time>2020-07-21T14:56:56.000Z</time>
      </trkpt>
      <trkpt lat="44.91787" lon="5.35682">
        <ele>1454.6</ele>
        <time>2020-07-21T14:57:03.000Z</time>
      </trkpt>
      <trkpt lat="44.91777" lon="5.35684">
        <ele>1452.3</ele>
        <time>2020-07-21T14:57:11.000Z</time>
      </trkpt>
      <trkpt lat="44.91768" lon="5.35688">
        <ele>1444.1</ele>
        <time>2020-07-21T14:57:18.000Z</time>
      </trkpt>
      <trkpt lat="44.91759" lon="5.35694">
        <ele>1458.3</ele>
        <time>2020-07-21T14:57:29.000Z</time>
      </trkpt>
      <trkpt lat="44.91751" lon="5.35704">
        <ele>1458.3</ele>
        <time>2020-07-21T14:57:34.000Z</time>
      </trkpt>
      <trkpt lat="44.91744" lon="5.35714">
        <ele>1458.2</ele>
        <time>2020-07-21T14:57:39.000Z</time>
      </trkpt>
      <trkpt lat="44.91741" lon="5.35729">
        <ele>1458.2</ele>
        <time>2020-07-21T14:57:43.000Z</time>
      </trkpt>
      <trkpt lat="44.91738" lon="5.35742">
        <ele>1458.6</ele>
        <time>2020-07-21T14:57:47.000Z</time>
      </trkpt>
      <trkpt lat="44.91737" lon="5.35755">
        <ele>1459.4</ele>
        <time>2020-07-21T14:57:53.000Z</time>
      </trkpt>
      <trkpt lat="44.91734" lon="5.35767">
        <ele>1460.1</ele>
        <time>2020-07-21T14:57:59.000Z</time>
      </trkpt>
      <trkpt lat="44.91729" lon="5.3578">
        <ele>1460.7</ele>
        <time>2020-07-21T14:58:08.000Z</time>
      </trkpt>
      <trkpt lat="44.91725" lon="5.35791">
        <ele>1461.1</ele>
        <time>2020-07-21T14:58:15.000Z</time>
      </trkpt>
      <trkpt lat="44.91718" lon="5.358">
        <ele>1461.4</ele>
        <time>2020-07-21T14:58:21.000Z</time>
      </trkpt>
      <trkpt lat="44.91713" lon="5.35814">
        <ele>1461.9</ele>
        <time>2020-07-21T14:58:28.000Z</time>
      </trkpt>
      <trkpt lat="44.91705" lon="5.35822">
        <ele>1462.2</ele>
        <time>2020-07-21T14:58:32.000Z</time>
      </trkpt>
      <trkpt lat="44.91698" lon="5.35832">
        <ele>1462.6</ele>
        <time>2020-07-21T14:58:36.000Z</time>
      </trkpt>
      <trkpt lat="44.9169" lon="5.3584">
        <ele>1463.1</ele>
        <time>2020-07-21T14:58:40.000Z</time>
      </trkpt>
      <trkpt lat="44.91684" lon="5.3585">
        <ele>1463.7</ele>
        <time>2020-07-21T14:58:44.000Z</time>
      </trkpt>
      <trkpt lat="44.91676" lon="5.35857">
        <ele>1464.1</ele>
        <time>2020-07-21T14:58:48.000Z</time>
      </trkpt>
      <trkpt lat="44.91667" lon="5.35855">
        <ele>1464.4</ele>
        <time>2020-07-21T14:58:53.000Z</time>
      </trkpt>
      <trkpt lat="44.91657" lon="5.35847">
        <ele>1464.5</ele>
        <time>2020-07-21T14:58:58.000Z</time>
      </trkpt>
      <trkpt lat="44.9165" lon="5.35837">
        <ele>1463.9</ele>
        <time>2020-07-21T14:59:08.000Z</time>
      </trkpt>
      <trkpt lat="44.91642" lon="5.35829">
        <ele>1463.5</ele>
        <time>2020-07-21T14:59:16.000Z</time>
      </trkpt>
      <trkpt lat="44.91635" lon="5.35821">
        <ele>1463.1</ele>
        <time>2020-07-21T14:59:23.000Z</time>
      </trkpt>
      <trkpt lat="44.91627" lon="5.35812">
        <ele>1462.3</ele>
        <time>2020-07-21T14:59:31.000Z</time>
      </trkpt>
      <trkpt lat="44.91621" lon="5.35802">
        <ele>1461.2</ele>
        <time>2020-07-21T14:59:39.000Z</time>
      </trkpt>
      <trkpt lat="44.91615" lon="5.35792">
        <ele>1460.1</ele>
        <time>2020-07-21T14:59:47.000Z</time>
      </trkpt>
      <trkpt lat="44.91608" lon="5.35783">
        <ele>1459.3</ele>
        <time>2020-07-21T14:59:54.000Z</time>
      </trkpt>
      <trkpt lat="44.91599" lon="5.35778">
        <ele>1458.8</ele>
        <time>2020-07-21T15:00:01.000Z</time>
      </trkpt>
      <trkpt lat="44.91589" lon="5.35774">
        <ele>1458.4</ele>
        <time>2020-07-21T15:00:09.000Z</time>
      </trkpt>
      <trkpt lat="44.9158" lon="5.35774">
        <ele>1458.3</ele>
        <time>2020-07-21T15:00:16.000Z</time>
      </trkpt>
      <trkpt lat="44.91571" lon="5.35774">
        <ele>1458.1</ele>
        <time>2020-07-21T15:00:24.000Z</time>
      </trkpt>
      <trkpt lat="44.91561" lon="5.35772">
        <ele>1457.9</ele>
        <time>2020-07-21T15:00:33.000Z</time>
      </trkpt>
      <trkpt lat="44.91551" lon="5.35772">
        <ele>1457.4</ele>
        <time>2020-07-21T15:00:40.000Z</time>
      </trkpt>
      <trkpt lat="44.91543" lon="5.35776">
        <ele>1457</ele>
        <time>2020-07-21T15:00:45.000Z</time>
      </trkpt>
      <trkpt lat="44.91534" lon="5.35781">
        <ele>1456.7</ele>
        <time>2020-07-21T15:00:49.000Z</time>
      </trkpt>
      <trkpt lat="44.91526" lon="5.35787">
        <ele>1456.3</ele>
        <time>2020-07-21T15:00:59.000Z</time>
      </trkpt>
      <trkpt lat="44.91519" lon="5.35798">
        <ele>1456.3</ele>
        <time>2020-07-21T15:01:06.000Z</time>
      </trkpt>
      <trkpt lat="44.91512" lon="5.35808">
        <ele>1456.6</ele>
        <time>2020-07-21T15:01:14.000Z</time>
      </trkpt>
      <trkpt lat="44.91505" lon="5.35817">
        <ele>1456.9</ele>
        <time>2020-07-21T15:01:20.000Z</time>
      </trkpt>
      <trkpt lat="44.91501" lon="5.35829">
        <ele>1457.3</ele>
        <time>2020-07-21T15:01:27.000Z</time>
      </trkpt>
      <trkpt lat="44.91498" lon="5.35843">
        <ele>1457.6</ele>
        <time>2020-07-21T15:01:36.000Z</time>
      </trkpt>
      <trkpt lat="44.91494" lon="5.35855">
        <ele>1458.3</ele>
        <time>2020-07-21T15:01:45.000Z</time>
      </trkpt>
      <trkpt lat="44.91489" lon="5.35865">
        <ele>1459.2</ele>
        <time>2020-07-21T15:01:53.000Z</time>
      </trkpt>
      <trkpt lat="44.91489" lon="5.35878">
        <ele>1460.2</ele>
        <time>2020-07-21T15:02:00.000Z</time>
      </trkpt>
      <trkpt lat="44.9149" lon="5.35891">
        <ele>1461.1</ele>
        <time>2020-07-21T15:02:07.000Z</time>
      </trkpt>
      <trkpt lat="44.91495" lon="5.35904">
        <ele>1462</ele>
        <time>2020-07-21T15:02:15.000Z</time>
      </trkpt>
      <trkpt lat="44.91499" lon="5.35916">
        <ele>1462.8</ele>
        <time>2020-07-21T15:02:24.000Z</time>
      </trkpt>
      <trkpt lat="44.91506" lon="5.35927">
        <ele>1464</ele>
        <time>2020-07-21T15:02:33.000Z</time>
      </trkpt>
      <trkpt lat="44.91512" lon="5.35939">
        <ele>1465</ele>
        <time>2020-07-21T15:02:41.000Z</time>
      </trkpt>
      <trkpt lat="44.91518" lon="5.35949">
        <ele>1465.8</ele>
        <time>2020-07-21T15:02:49.000Z</time>
      </trkpt>
      <trkpt lat="44.91525" lon="5.35957">
        <ele>1466.6</ele>
        <time>2020-07-21T15:02:56.000Z</time>
      </trkpt>
      <trkpt lat="44.91531" lon="5.35967">
        <ele>1467.4</ele>
        <time>2020-07-21T15:03:04.000Z</time>
      </trkpt>
      <trkpt lat="44.91535" lon="5.35978">
        <ele>1468.4</ele>
        <time>2020-07-21T15:03:13.000Z</time>
      </trkpt>
      <trkpt lat="44.91539" lon="5.3599">
        <ele>1468.9</ele>
        <time>2020-07-21T15:03:18.000Z</time>
      </trkpt>
      <trkpt lat="44.91541" lon="5.36005">
        <ele>1469.4</ele>
        <time>2020-07-21T15:03:23.000Z</time>
      </trkpt>
      <trkpt lat="44.9154" lon="5.3602">
        <ele>1469.5</ele>
        <time>2020-07-21T15:03:28.000Z</time>
      </trkpt>
      <trkpt lat="44.91538" lon="5.36033">
        <ele>1469.6</ele>
        <time>2020-07-21T15:03:32.000Z</time>
      </trkpt>
      <trkpt lat="44.91537" lon="5.36046">
        <ele>1469.8</ele>
        <time>2020-07-21T15:03:36.000Z</time>
      </trkpt>
      <trkpt lat="44.91532" lon="5.3606">
        <ele>1470.1</ele>
        <time>2020-07-21T15:03:41.000Z</time>
      </trkpt>
      <trkpt lat="44.91526" lon="5.36071">
        <ele>1470.2</ele>
        <time>2020-07-21T15:03:48.000Z</time>
      </trkpt>
      <trkpt lat="44.91517" lon="5.36069">
        <ele>1469.4</ele>
        <time>2020-07-21T15:04:01.000Z</time>
      </trkpt>
      <trkpt lat="44.91507" lon="5.36071">
        <ele>1468.1</ele>
        <time>2020-07-21T15:04:10.000Z</time>
      </trkpt>
      <trkpt lat="44.91499" lon="5.36076">
        <ele>1466.6</ele>
        <time>2020-07-21T15:04:19.000Z</time>
      </trkpt>
      <trkpt lat="44.9149" lon="5.36083">
        <ele>1465.5</ele>
        <time>2020-07-21T15:04:27.000Z</time>
      </trkpt>
      <trkpt lat="44.91481" lon="5.3609">
        <ele>1464.7</ele>
        <time>2020-07-21T15:04:34.000Z</time>
      </trkpt>
      <trkpt lat="44.91472" lon="5.36097">
        <ele>1464.1</ele>
        <time>2020-07-21T15:04:39.000Z</time>
      </trkpt>
      <trkpt lat="44.91464" lon="5.36104">
        <ele>1463.5</ele>
        <time>2020-07-21T15:04:45.000Z</time>
      </trkpt>
      <trkpt lat="44.91457" lon="5.36113">
        <ele>1463.2</ele>
        <time>2020-07-21T15:04:51.000Z</time>
      </trkpt>
      <trkpt lat="44.91448" lon="5.3612">
        <ele>1462.7</ele>
        <time>2020-07-21T15:04:59.000Z</time>
      </trkpt>
      <trkpt lat="44.9144" lon="5.36125">
        <ele>1461.9</ele>
        <time>2020-07-21T15:05:09.000Z</time>
      </trkpt>
      <trkpt lat="44.9143" lon="5.36131">
        <ele>1461.3</ele>
        <time>2020-07-21T15:05:16.000Z</time>
      </trkpt>
      <trkpt lat="44.91421" lon="5.36134">
        <ele>1460.4</ele>
        <time>2020-07-21T15:05:24.000Z</time>
      </trkpt>
      <trkpt lat="44.91412" lon="5.36136">
        <ele>1459.6</ele>
        <time>2020-07-21T15:05:32.000Z</time>
      </trkpt>
      <trkpt lat="44.91403" lon="5.36134">
        <ele>1458.7</ele>
        <time>2020-07-21T15:05:42.000Z</time>
      </trkpt>
      <trkpt lat="44.91393" lon="5.36132">
        <ele>1458.3</ele>
        <time>2020-07-21T15:05:50.000Z</time>
      </trkpt>
      <trkpt lat="44.91383" lon="5.3613">
        <ele>1457.4</ele>
        <time>2020-07-21T15:05:59.000Z</time>
      </trkpt>
      <trkpt lat="44.91374" lon="5.36127">
        <ele>1456.5</ele>
        <time>2020-07-21T15:06:07.000Z</time>
      </trkpt>
      <trkpt lat="44.91364" lon="5.36122">
        <ele>1455.6</ele>
        <time>2020-07-21T15:06:15.000Z</time>
      </trkpt>
      <trkpt lat="44.91353" lon="5.36125">
        <ele>1455</ele>
        <time>2020-07-21T15:06:21.000Z</time>
      </trkpt>
      <trkpt lat="44.91344" lon="5.36127">
        <ele>1454.2</ele>
        <time>2020-07-21T15:06:27.000Z</time>
      </trkpt>
      <trkpt lat="44.91335" lon="5.36128">
        <ele>1452.6</ele>
        <time>2020-07-21T15:06:36.000Z</time>
      </trkpt>
      <trkpt lat="44.91326" lon="5.36132">
        <ele>1451.2</ele>
        <time>2020-07-21T15:06:43.000Z</time>
      </trkpt>
      <trkpt lat="44.91316" lon="5.36133">
        <ele>1449.3</ele>
        <time>2020-07-21T15:06:52.000Z</time>
      </trkpt>
      <trkpt lat="44.91307" lon="5.3613">
        <ele>1447.8</ele>
        <time>2020-07-21T15:07:01.000Z</time>
      </trkpt>
      <trkpt lat="44.91297" lon="5.3613">
        <ele>1446.8</ele>
        <time>2020-07-21T15:07:08.000Z</time>
      </trkpt>
      <trkpt lat="44.91288" lon="5.36128">
        <ele>1445.7</ele>
        <time>2020-07-21T15:07:15.000Z</time>
      </trkpt>
      <trkpt lat="44.91279" lon="5.36124">
        <ele>1444.2</ele>
        <time>2020-07-21T15:07:25.000Z</time>
      </trkpt>
      <trkpt lat="44.91268" lon="5.36124">
        <ele>1443.2</ele>
        <time>2020-07-21T15:07:33.000Z</time>
      </trkpt>
      <trkpt lat="44.91259" lon="5.36127">
        <ele>1442.5</ele>
        <time>2020-07-21T15:07:40.000Z</time>
      </trkpt>
      <trkpt lat="44.91249" lon="5.36129">
        <ele>1441.4</ele>
        <time>2020-07-21T15:07:49.000Z</time>
      </trkpt>
      <trkpt lat="44.9124" lon="5.36128">
        <ele>1440.2</ele>
        <time>2020-07-21T15:07:57.000Z</time>
      </trkpt>
      <trkpt lat="44.9123" lon="5.36128">
        <ele>1438.7</ele>
        <time>2020-07-21T15:08:04.000Z</time>
      </trkpt>
      <trkpt lat="44.9122" lon="5.36128">
        <ele>1436.9</ele>
        <time>2020-07-21T15:08:12.000Z</time>
      </trkpt>
      <trkpt lat="44.9121" lon="5.36127">
        <ele>1434.6</ele>
        <time>2020-07-21T15:08:20.000Z</time>
      </trkpt>
      <trkpt lat="44.91202" lon="5.36119">
        <ele>1432.5</ele>
        <time>2020-07-21T15:08:28.000Z</time>
      </trkpt>
      <trkpt lat="44.91193" lon="5.36112">
        <ele>1430.7</ele>
        <time>2020-07-21T15:08:36.000Z</time>
      </trkpt>
      <trkpt lat="44.91186" lon="5.36104">
        <ele>1429.5</ele>
        <time>2020-07-21T15:08:44.000Z</time>
      </trkpt>
      <trkpt lat="44.91179" lon="5.36093">
        <ele>1428.6</ele>
        <time>2020-07-21T15:08:51.000Z</time>
      </trkpt>
      <trkpt lat="44.9117" lon="5.36087">
        <ele>1427.8</ele>
        <time>2020-07-21T15:08:58.000Z</time>
      </trkpt>
      <trkpt lat="44.91161" lon="5.36083">
        <ele>1427.4</ele>
        <time>2020-07-21T15:09:04.000Z</time>
      </trkpt>
      <trkpt lat="44.91152" lon="5.36087">
        <ele>1427.2</ele>
        <time>2020-07-21T15:09:09.000Z</time>
      </trkpt>
      <trkpt lat="44.91143" lon="5.36087">
        <ele>1427.3</ele>
        <time>2020-07-21T15:09:18.000Z</time>
      </trkpt>
      <trkpt lat="44.91134" lon="5.36082">
        <ele>1428</ele>
        <time>2020-07-21T15:09:27.000Z</time>
      </trkpt>
      <trkpt lat="44.9113" lon="5.3607">
        <ele>1428.6</ele>
        <time>2020-07-21T15:09:38.000Z</time>
      </trkpt>
      <trkpt lat="44.91121" lon="5.36063">
        <ele>1429</ele>
        <time>2020-07-21T15:10:25.000Z</time>
      </trkpt>
      <trkpt lat="44.91113" lon="5.36057">
        <ele>1429.2</ele>
        <time>2020-07-21T15:10:33.000Z</time>
      </trkpt>
      <trkpt lat="44.91104" lon="5.36052">
        <ele>1429.2</ele>
        <time>2020-07-21T15:10:43.000Z</time>
      </trkpt>
      <trkpt lat="44.91094" lon="5.36048">
        <ele>1429.1</ele>
        <time>2020-07-21T15:10:51.000Z</time>
      </trkpt>
      <trkpt lat="44.91086" lon="5.36043">
        <ele>1428.6</ele>
        <time>2020-07-21T15:10:58.000Z</time>
      </trkpt>
      <trkpt lat="44.91077" lon="5.36039">
        <ele>1427.8</ele>
        <time>2020-07-21T15:11:07.000Z</time>
      </trkpt>
      <trkpt lat="44.91069" lon="5.3603">
        <ele>1426.5</ele>
        <time>2020-07-21T15:11:17.000Z</time>
      </trkpt>
      <trkpt lat="44.91061" lon="5.36022">
        <ele>1425.1</ele>
        <time>2020-07-21T15:11:25.000Z</time>
      </trkpt>
      <trkpt lat="44.91054" lon="5.36013">
        <ele>1424.1</ele>
        <time>2020-07-21T15:11:32.000Z</time>
      </trkpt>
      <trkpt lat="44.91046" lon="5.36007">
        <ele>1423.4</ele>
        <time>2020-07-21T15:11:39.000Z</time>
      </trkpt>
      <trkpt lat="44.91037" lon="5.36001">
        <ele>1422.6</ele>
        <time>2020-07-21T15:11:47.000Z</time>
      </trkpt>
      <trkpt lat="44.91029" lon="5.35996">
        <ele>1422.1</ele>
        <time>2020-07-21T15:11:55.000Z</time>
      </trkpt>
      <trkpt lat="44.9102" lon="5.35996">
        <ele>1422</ele>
        <time>2020-07-21T15:12:00.000Z</time>
      </trkpt>
      <trkpt lat="44.9101" lon="5.35993">
        <ele>1421.9</ele>
        <time>2020-07-21T15:12:08.000Z</time>
      </trkpt>
      <trkpt lat="44.91001" lon="5.35994">
        <ele>1422.1</ele>
        <time>2020-07-21T15:12:14.000Z</time>
      </trkpt>
      <trkpt lat="44.90988" lon="5.36001">
        <ele>1419.9</ele>
        <time>2020-07-21T15:12:19.000Z</time>
      </trkpt>
      <trkpt lat="44.90978" lon="5.36">
        <ele>1421.5</ele>
        <time>2020-07-21T15:12:23.000Z</time>
      </trkpt>
      <trkpt lat="44.90968" lon="5.35997">
        <ele>1422</ele>
        <time>2020-07-21T15:12:32.000Z</time>
      </trkpt>
      <trkpt lat="44.90959" lon="5.35993">
        <ele>1424.1</ele>
        <time>2020-07-21T15:12:38.000Z</time>
      </trkpt>
      <trkpt lat="44.9095" lon="5.35995">
        <ele>1411.9</ele>
        <time>2020-07-21T15:12:46.000Z</time>
      </trkpt>
      <trkpt lat="44.9094" lon="5.35994">
        <ele>1419.7</ele>
        <time>2020-07-21T15:13:40.000Z</time>
      </trkpt>
      <trkpt lat="44.9093" lon="5.35997">
        <ele>1417.9</ele>
        <time>2020-07-21T15:13:51.000Z</time>
      </trkpt>
      <trkpt lat="44.90921" lon="5.35994">
        <ele>1415.5</ele>
        <time>2020-07-21T15:14:03.000Z</time>
      </trkpt>
      <trkpt lat="44.90911" lon="5.35993">
        <ele>1413</ele>
        <time>2020-07-21T15:14:14.000Z</time>
      </trkpt>
      <trkpt lat="44.90902" lon="5.35993">
        <ele>1410.8</ele>
        <time>2020-07-21T15:14:23.000Z</time>
      </trkpt>
      <trkpt lat="44.90892" lon="5.35992">
        <ele>1408.2</ele>
        <time>2020-07-21T15:14:34.000Z</time>
      </trkpt>
      <trkpt lat="44.90883" lon="5.35985">
        <ele>1405.2</ele>
        <time>2020-07-21T15:14:47.000Z</time>
      </trkpt>
      <trkpt lat="44.90876" lon="5.35976">
        <ele>1402.7</ele>
        <time>2020-07-21T15:14:57.000Z</time>
      </trkpt>
      <trkpt lat="44.90867" lon="5.35972">
        <ele>1400.6</ele>
        <time>2020-07-21T15:15:05.000Z</time>
      </trkpt>
      <trkpt lat="44.90862" lon="5.35961">
        <ele>1397.5</ele>
        <time>2020-07-21T15:15:22.000Z</time>
      </trkpt>
      <trkpt lat="44.90857" lon="5.35949">
        <ele>1395.6</ele>
        <time>2020-07-21T15:15:32.000Z</time>
      </trkpt>
      <trkpt lat="44.90851" lon="5.35936">
        <ele>1392.9</ele>
        <time>2020-07-21T15:15:45.000Z</time>
      </trkpt>
      <trkpt lat="44.90846" lon="5.35924">
        <ele>1390.6</ele>
        <time>2020-07-21T15:15:55.000Z</time>
      </trkpt>
      <trkpt lat="44.90841" lon="5.35912">
        <ele>1388.2</ele>
        <time>2020-07-21T15:16:04.000Z</time>
      </trkpt>
      <trkpt lat="44.90837" lon="5.359">
        <ele>1385.2</ele>
        <time>2020-07-21T15:16:17.000Z</time>
      </trkpt>
      <trkpt lat="44.90833" lon="5.35888">
        <ele>1382.2</ele>
        <time>2020-07-21T15:16:29.000Z</time>
      </trkpt>
      <trkpt lat="44.90832" lon="5.35875">
        <ele>1379.4</ele>
        <time>2020-07-21T15:16:42.000Z</time>
      </trkpt>
      <trkpt lat="44.90826" lon="5.35865">
        <ele>1377.7</ele>
        <time>2020-07-21T15:16:50.000Z</time>
      </trkpt>
      <trkpt lat="44.90819" lon="5.35856">
        <ele>1375</ele>
        <time>2020-07-21T15:17:07.000Z</time>
      </trkpt>
      <trkpt lat="44.90814" lon="5.35845">
        <ele>1374.4</ele>
        <time>2020-07-21T15:17:32.000Z</time>
      </trkpt>
      <trkpt lat="44.90805" lon="5.35841">
        <ele>1373.3</ele>
        <time>2020-07-21T15:17:51.000Z</time>
      </trkpt>
      <trkpt lat="44.90802" lon="5.35853">
        <ele>1370.8</ele>
        <time>2020-07-21T15:18:02.000Z</time>
      </trkpt>
      <trkpt lat="44.90797" lon="5.35867">
        <ele>1369.9</ele>
        <time>2020-07-21T15:18:06.000Z</time>
      </trkpt>
      <trkpt lat="44.90793" lon="5.35879">
        <ele>1368.6</ele>
        <time>2020-07-21T15:18:12.000Z</time>
      </trkpt>
      <trkpt lat="44.90792" lon="5.35893">
        <ele>1366</ele>
        <time>2020-07-21T15:18:26.000Z</time>
      </trkpt>
      <trkpt lat="44.90791" lon="5.35907">
        <ele>1364.4</ele>
        <time>2020-07-21T15:18:34.000Z</time>
      </trkpt>
      <trkpt lat="44.90787" lon="5.35919">
        <ele>1362.9</ele>
        <time>2020-07-21T15:18:41.000Z</time>
      </trkpt>
      <trkpt lat="44.90783" lon="5.35933">
        <ele>1361.9</ele>
        <time>2020-07-21T15:18:46.000Z</time>
      </trkpt>
      <trkpt lat="44.9078" lon="5.35944">
        <ele>1360.4</ele>
        <time>2020-07-21T15:18:55.000Z</time>
      </trkpt>
      <trkpt lat="44.90776" lon="5.35957">
        <ele>1358.8</ele>
        <time>2020-07-21T15:19:04.000Z</time>
      </trkpt>
      <trkpt lat="44.90768" lon="5.35966">
        <ele>1357.3</ele>
        <time>2020-07-21T15:19:12.000Z</time>
      </trkpt>
      <trkpt lat="44.90762" lon="5.35975">
        <ele>1355.3</ele>
        <time>2020-07-21T15:19:21.000Z</time>
      </trkpt>
      <trkpt lat="44.90753" lon="5.3598">
        <ele>1350</ele>
        <time>2020-07-21T15:19:45.000Z</time>
      </trkpt>
      <trkpt lat="44.90746" lon="5.3597">
        <ele>1347.7</ele>
        <time>2020-07-21T15:19:56.000Z</time>
      </trkpt>
      <trkpt lat="44.90737" lon="5.35965">
        <ele>1345.6</ele>
        <time>2020-07-21T15:20:06.000Z</time>
      </trkpt>
      <trkpt lat="44.90734" lon="5.35952">
        <ele>1344.9</ele>
        <time>2020-07-21T15:20:13.000Z</time>
      </trkpt>
      <trkpt lat="44.90732" lon="5.35938">
        <ele>1344.6</ele>
        <time>2020-07-21T15:20:20.000Z</time>
      </trkpt>
      <trkpt lat="44.90729" lon="5.35926">
        <ele>1344.8</ele>
        <time>2020-07-21T15:20:26.000Z</time>
      </trkpt>
      <trkpt lat="44.90727" lon="5.35913">
        <ele>1345.3</ele>
        <time>2020-07-21T15:20:32.000Z</time>
      </trkpt>
      <trkpt lat="44.90725" lon="5.359">
        <ele>1345.9</ele>
        <time>2020-07-21T15:20:39.000Z</time>
      </trkpt>
      <trkpt lat="44.90727" lon="5.35887">
        <ele>1346.7</ele>
        <time>2020-07-21T15:20:48.000Z</time>
      </trkpt>
      <trkpt lat="44.9073" lon="5.35875">
        <ele>1347.6</ele>
        <time>2020-07-21T15:20:56.000Z</time>
      </trkpt>
      <trkpt lat="44.90732" lon="5.35862">
        <ele>1348.2</ele>
        <time>2020-07-21T15:21:04.000Z</time>
      </trkpt>
      <trkpt lat="44.90737" lon="5.3585">
        <ele>1348.8</ele>
        <time>2020-07-21T15:21:12.000Z</time>
      </trkpt>
      <trkpt lat="44.90738" lon="5.35836">
        <ele>1349.4</ele>
        <time>2020-07-21T15:21:19.000Z</time>
      </trkpt>
      <trkpt lat="44.90739" lon="5.35822">
        <ele>1350.2</ele>
        <time>2020-07-21T15:21:27.000Z</time>
      </trkpt>
      <trkpt lat="44.90736" lon="5.3581">
        <ele>1350.8</ele>
        <time>2020-07-21T15:21:35.000Z</time>
      </trkpt>
      <trkpt lat="44.90733" lon="5.35797">
        <ele>1351.3</ele>
        <time>2020-07-21T15:21:41.000Z</time>
      </trkpt>
      <trkpt lat="44.90731" lon="5.35785">
        <ele>1352.2</ele>
        <time>2020-07-21T15:21:49.000Z</time>
      </trkpt>
      <trkpt lat="44.90727" lon="5.35772">
        <ele>1352.9</ele>
        <time>2020-07-21T15:21:55.000Z</time>
      </trkpt>
      <trkpt lat="44.90725" lon="5.3576">
        <ele>1353.7</ele>
        <time>2020-07-21T15:22:02.000Z</time>
      </trkpt>
      <trkpt lat="44.90731" lon="5.3575">
        <ele>1354.3</ele>
        <time>2020-07-21T15:22:10.000Z</time>
      </trkpt>
      <trkpt lat="44.90732" lon="5.35736">
        <ele>1354.7</ele>
        <time>2020-07-21T15:22:20.000Z</time>
      </trkpt>
      <trkpt lat="44.90732" lon="5.35723">
        <ele>1355.3</ele>
        <time>2020-07-21T15:22:29.000Z</time>
      </trkpt>
      <trkpt lat="44.90733" lon="5.3571">
        <ele>1356</ele>
        <time>2020-07-21T15:22:38.000Z</time>
      </trkpt>
      <trkpt lat="44.90731" lon="5.35698">
        <ele>1356.6</ele>
        <time>2020-07-21T15:22:45.000Z</time>
      </trkpt>
      <trkpt lat="44.9073" lon="5.35684">
        <ele>1357.4</ele>
        <time>2020-07-21T15:22:54.000Z</time>
      </trkpt>
      <trkpt lat="44.90727" lon="5.35671">
        <ele>1357.8</ele>
        <time>2020-07-21T15:22:59.000Z</time>
      </trkpt>
      <trkpt lat="44.90728" lon="5.35658">
        <ele>1359.2</ele>
        <time>2020-07-21T15:23:11.000Z</time>
      </trkpt>
      <trkpt lat="44.90734" lon="5.35648">
        <ele>1359.7</ele>
        <time>2020-07-21T15:23:19.000Z</time>
      </trkpt>
      <trkpt lat="44.90737" lon="5.35635">
        <ele>1360.7</ele>
        <time>2020-07-21T15:23:29.000Z</time>
      </trkpt>
      <trkpt lat="44.90739" lon="5.35622">
        <ele>1361.7</ele>
        <time>2020-07-21T15:23:37.000Z</time>
      </trkpt>
      <trkpt lat="44.9074" lon="5.3561">
        <ele>1362</ele>
        <time>2020-07-21T15:23:44.000Z</time>
      </trkpt>
      <trkpt lat="44.9074" lon="5.35595">
        <ele>1361.5</ele>
        <time>2020-07-21T15:23:53.000Z</time>
      </trkpt>
      <trkpt lat="44.90739" lon="5.35581">
        <ele>1360.7</ele>
        <time>2020-07-21T15:24:01.000Z</time>
      </trkpt>
      <trkpt lat="44.90736" lon="5.35568">
        <ele>1359.9</ele>
        <time>2020-07-21T15:24:10.000Z</time>
      </trkpt>
      <trkpt lat="44.90728" lon="5.35565">
        <ele>1360.4</ele>
        <time>2020-07-21T15:35:44.000Z</time>
      </trkpt>
    </trkseg>
  </trk>
</gpx>